[[{"header":{"parameterUnit":"m.s-1","parameterCategory":1,"la1":31.0,"la2":29.5877,"lo1":-88.7671,"lo2":-86.6584,"dy":0.0162,"dx":0.0185,"nx":115,"ny":88,"refTime":"2023-11-04T06:00:00:Z","depth":0,"parameterNumber":2,"parameterNumberName":"U-component_of_WINDS"},"data":[0.0,0.0,0.0,0.0,0.0,0.0,0.0,0.0,0.0,0.0,0.0,0.0,0.0,0.0,0.0,0.0,0.0,0.0,0.0,0.0,0.0,0.0,0.0,0.0,0.0,0.0,0.0,0.0,0.0,0.0,0.0,0.0,0.0,0.0,0.0,0.0,0.0,0.0,0.0,0.0,0.0,0.0,0.0,0.0,0.0,0.0,0.0,0.0,0.0,0.0,0.0,0.0,0.0,0.0,0.0,0.0,0.0,0.0,0.0,0.0,0.0,0.0,0.0,0.0,0.0,0.0,0.0,0.0,0.0,0.0,0.0,0.0,0.0,0.0,0.0,0.0,0.0,0.0,0.0,0.0,0.0,0.0,0.0,0.0,0.0,0.0,0.0,0.0,0.0,0.0,0.0,0.0,0.0,0.0,0.0,0.0,0.0,0.0,0.0,0.0,0.0,0.0,0.0,0.0,0.0,0.0,0.0,0.0,0.0,0.0,0.0,0.0,0.0,0.0,0.0,0.0,0.0,0.0,0.0,0.0,0.0,0.0,0.0,0.0,0.0,0.0,0.0,0.0,0.0,0.0,0.0,0.0,0.0,0.0,0.0,0.0,0.0,0.0,0.0,0.0,0.0,0.0,0.0,0.0,0.0,0.0,0.0,0.0,0.0,0.0,0.0,0.0,0.0,0.0,0.0,0.0,0.0,0.0,0.0,0.0,0.0,0.0,0.0,0.0,0.0,0.0,0.0,0.0,0.0,0.0,0.0,0.0,0.0,0.0,0.0,0.0,0.0,0.0,0.0,0.0,0.0,0.0,0.0,0.0,0.0,0.0,0.0,0.0,0.0,0.0,0.0,0.0,0.0,0.0,0.0,0.0,0.0,0.0,0.0,0.0,0.0,0.0,0.0,0.0,0.0,0.0,0.0,0.0,0.0,0.0,0.0,0.0,0.0,0.0,0.0,0.0,0.0,0.0,0.0,0.0,0.0,0.0,0.0,0.0,0.0,0.0,0.0,0.0,0.0,0.0,0.0,0.0,0.0,0.0,0.0,0.0,0.0,0.0,0.0,0.0,0.0,0.0,0.0,0.0,0.0,0.0,0.0,0.0,0.0,0.0,0.0,0.0,0.0,0.0,0.0,0.0,0.0,0.0,0.0,0.0,0.0,0.0,0.0,0.0,0.0,0.0,0.0,0.0,0.0,0.0,0.0,0.0,0.0,0.0,0.0,0.0,0.0,0.0,0.0,0.0,0.0,0.0,0.0,0.0,0.0,0.0,0.0,0.0,0.0,0.0,0.0,0.0,0.0,0.0,0.0,0.0,0.0,0.0,0.0,0.0,0.0,0.0,0.0,0.0,0.0,0.0,0.0,0.0,0.0,0.0,0.0,0.0,0.0,0.0,0.0,0.0,0.0,0.0,0.0,0.0,0.0,0.0,0.0,0.0,0.0,0.0,0.0,0.0,0.0,0.0,0.0,0.0,0.0,0.0,0.0,0.0,0.0,0.0,0.0,0.0,0.0,0.0,0.0,0.0,0.0,0.0,0.0,0.0,0.0,0.0,0.0,0.0,0.0,0.0,0.0,0.0,0.0,0.0,0.0,0.0,0.0,0.0,0.0,0.0,0.0,0.0,0.0,0.0,0.0,0.0,0.0,0.0,0.0,0.0,0.0,0.0,0.0,0.0,0.0,0.0,0.0,0.0,0.0,0.0,0.0,0.0,0.0,0.0,0.0,0.0,0.0,0.0,0.0,0.0,0.0,0.0,0.0,0.0,0.0,0.0,0.0,0.0,0.0,0.0,0.0,0.0,0.0,0.0,0.0,0.0,0.0,0.0,0.0,0.0,0.0,0.0,0.0,0.0,0.0,0.0,0.0,0.0,0.0,0.0,0.0,0.0,0.0,0.0,0.0,0.0,0.0,0.0,0.0,0.0,0.0,0.0,0.0,0.0,0.0,0.0,0.0,0.0,0.0,0.0,0.0,0.0,0.0,0.0,0.0,0.0,0.0,0.0,0.0,0.0,0.0,0.0,0.0,0.0,0.0,0.0,0.0,0.0,0.0,0.0,0.0,0.0,0.0,0.0,0.0,0.0,0.0,0.0,0.0,0.0,0.0,0.0,0.0,0.0,0.0,0.0,0.0,0.0,0.0,0.0,0.0,0.0,0.0,0.0,0.0,0.0,0.0,0.0,0.0,0.0,0.0,0.0,0.0,0.0,0.0,0.0,0.0,0.0,0.0,0.0,0.0,0.0,0.0,0.0,0.0,0.0,0.0,0.0,0.0,0.0,0.0,0.0,0.0,0.0,0.0,0.0,0.0,0.0,0.0,0.0,0.0,0.0,0.0,0.0,0.0,0.0,0.0,0.0,0.0,0.0,0.0,0.0,0.0,0.0,0.0,0.0,0.0,0.0,0.0,0.0,0.0,0.0,0.0,0.0,0.0,0.0,0.0,0.0,0.0,0.0,0.0,0.0,0.0,0.0,0.0,0.0,0.0,0.0,0.0,0.0,0.0,0.0,0.0,0.0,0.0,0.0,0.0,0.0,0.0,0.0,0.0,0.0,0.0,0.0,0.0,0.0,0.0,0.0,0.0,0.0,0.0,0.0,0.0,0.0,0.0,0.0,0.0,0.0,0.0,0.0,0.0,0.0,0.0,0.0,0.0,0.0,0.0,0.0,0.0,0.0,0.0,0.0,0.0,0.0,0.0,0.0,0.0,0.0,0.0,0.0,0.0,0.0,0.0,0.0,0.0,0.0,0.0,0.0,0.0,0.0,0.0,0.0,0.0,0.0,0.0,0.0,0.0,0.0,0.0,0.0,0.0,0.0,0.0,0.0,0.0,0.0,0.0,0.0,0.0,0.0,0.0,0.0,0.0,0.0,0.0,0.0,0.0,0.0,0.0,0.0,0.0,0.0,0.0,0.0,0.0,0.0,0.0,0.0,0.0,0.0,0.0,0.0,0.0,0.0,0.0,0.0,0.0,0.0,0.0,0.0,0.0,0.0,0.0,0.0,0.0,0.0,0.0,0.0,0.0,0.0,0.0,0.0,0.0,0.0,0.0,0.0,0.0,0.0,0.0,0.0,0.0,0.0,0.0,0.0,0.0,0.0,0.0,0.0,0.0,0.0,0.0,0.0,0.0,0.0,0.0,0.0,0.0,0.0,0.0,0.0,0.0,0.0,0.0,0.0,0.0,0.0,0.0,0.0,0.0,0.0,0.0,0.0,0.0,0.0,0.0,0.0,0.0,0.0,0.0,0.0,0.0,0.0,0.0,0.0,0.0,0.0,0.0,0.0,0.0,0.0,0.0,0.0,0.0,0.0,0.0,0.0,0.0,0.0,0.0,0.0,0.0,0.0,0.0,0.0,0.0,0.0,0.0,0.0,0.0,0.0,0.0,0.0,0.0,0.0,0.0,0.0,0.0,0.0,0.0,0.0,0.0,0.0,0.0,0.0,0.0,0.0,0.0,0.0,0.0,0.0,0.0,0.0,0.0,0.0,0.0,0.0,0.0,0.0,0.0,0.0,0.0,0.0,0.0,0.0,0.0,0.0,0.0,0.0,0.0,0.0,0.0,0.0,0.0,0.0,0.0,0.0,0.0,0.0,0.0,0.0,0.0,0.0,0.0,0.0,0.0,0.0,0.0,0.0,0.0,0.0,0.0,0.0,0.0,0.0,0.0,0.0,0.0,0.0,0.0,0.0,0.0,0.0,0.0,0.0,0.0,0.0,0.0,0.0,0.0,0.0,0.0,0.0,0.0,0.0,0.0,0.0,0.0,0.0,0.0,0.0,0.0,0.0,0.0,0.0,0.0,0.0,0.0,0.0,0.0,0.0,0.0,0.0,0.0,0.0,0.0,0.0,0.0,0.0,0.0,0.0,0.0,0.0,0.0,0.0,0.0,0.0,0.0,0.0,0.0,0.0,0.0,0.0,0.0,0.0,0.0,0.0,0.0,0.0,0.0,0.0,0.0,0.0,0.0,0.0,0.0,0.0,0.0,0.0,0.0,0.0,0.0,0.0,0.0,0.0,0.0,0.0,0.0,0.0,0.0,0.0,0.0,0.0,0.0,0.0,0.0,0.0,0.0,0.0,0.0,0.0,0.0,0.0,0.0,0.0,0.0,0.0,0.0,0.0,0.0,0.0,0.0,0.0,0.0,0.0,0.0,0.0,0.0,0.0,0.0,0.0,0.0,0.0,0.0,0.0,0.0,0.0,0.0,0.0,0.0,0.0,0.0,0.0,0.0,0.0,0.0,0.0,0.0,0.0,0.0,0.0,0.0,0.0,-3.0211,0.0,0.0,0.0,0.0,0.0,0.0,0.0,0.0,0.0,0.0,0.0,0.0,0.0,0.0,0.0,0.0,0.0,0.0,0.0,0.0,0.0,0.0,0.0,0.0,0.0,0.0,0.0,0.0,0.0,0.0,0.0,0.0,0.0,0.0,0.0,0.0,0.0,0.0,0.0,0.0,0.0,0.0,0.0,0.0,0.0,0.0,0.0,0.0,0.0,0.0,0.0,0.0,0.0,0.0,0.0,0.0,0.0,0.0,0.0,0.0,0.0,0.0,0.0,0.0,0.0,0.0,0.0,0.0,0.0,0.0,0.0,0.0,0.0,0.0,0.0,0.0,0.0,0.0,0.0,0.0,0.0,0.0,0.0,0.0,0.0,0.0,0.0,0.0,0.0,0.0,0.0,0.0,0.0,0.0,0.0,0.0,0.0,0.0,0.0,0.0,0.0,0.0,0.0,0.0,0.0,0.0,0.0,0.0,0.0,0.0,-3.0206,-3.0213,-3.0213,-3.0219,-3.0246,0.0,0.0,0.0,0.0,0.0,0.0,0.0,0.0,0.0,0.0,0.0,0.0,0.0,0.0,0.0,0.0,0.0,0.0,0.0,0.0,0.0,0.0,0.0,0.0,0.0,0.0,0.0,0.0,0.0,0.0,0.0,0.0,0.0,0.0,0.0,0.0,0.0,0.0,0.0,0.0,0.0,0.0,0.0,0.0,0.0,0.0,0.0,0.0,0.0,0.0,0.0,0.0,0.0,0.0,0.0,0.0,0.0,0.0,0.0,0.0,0.0,0.0,0.0,0.0,0.0,0.0,0.0,0.0,0.0,0.0,0.0,0.0,0.0,0.0,0.0,0.0,0.0,0.0,0.0,0.0,0.0,0.0,0.0,0.0,0.0,0.0,0.0,0.0,0.0,0.0,0.0,0.0,0.0,0.0,0.0,0.0,0.0,0.0,0.0,0.0,0.0,0.0,0.0,0.0,0.0,0.0,0.0,0.0,0.0,0.0,0.0,0.0,-3.048,-3.0501,-3.0547,0.0,0.0,0.0,0.0,0.0,0.0,0.0,0.0,0.0,0.0,0.0,0.0,0.0,0.0,0.0,0.0,0.0,0.0,0.0,0.0,0.0,0.0,0.0,0.0,0.0,0.0,0.0,0.0,0.0,0.0,0.0,0.0,0.0,0.0,0.0,0.0,0.0,0.0,0.0,0.0,0.0,0.0,0.0,0.0,0.0,0.0,0.0,0.0,0.0,0.0,0.0,0.0,0.0,0.0,0.0,0.0,0.0,0.0,0.0,0.0,0.0,0.0,0.0,0.0,0.0,0.0,0.0,0.0,0.0,0.0,0.0,0.0,0.0,0.0,0.0,0.0,0.0,0.0,0.0,0.0,0.0,0.0,0.0,0.0,0.0,0.0,0.0,0.0,0.0,0.0,0.0,0.0,0.0,0.0,0.0,0.0,0.0,0.0,0.0,0.0,0.0,0.0,0.0,0.0,0.0,0.0,0.0,0.0,0.0,0.0,-3.0534,-3.126,-3.129,0.0,-3.13,0.0,0.0,0.0,0.0,0.0,0.0,0.0,0.0,0.0,0.0,0.0,0.0,0.0,0.0,0.0,0.0,0.0,0.0,0.0,0.0,0.0,0.0,0.0,0.0,0.0,0.0,0.0,0.0,0.0,0.0,0.0,0.0,0.0,0.0,0.0,0.0,0.0,0.0,0.0,0.0,0.0,0.0,0.0,0.0,0.0,0.0,0.0,0.0,0.0,0.0,0.0,0.0,0.0,0.0,0.0,0.0,0.0,0.0,0.0,0.0,0.0,0.0,0.0,0.0,0.0,0.0,0.0,0.0,0.0,0.0,0.0,0.0,0.0,0.0,0.0,0.0,0.0,0.0,0.0,0.0,0.0,0.0,0.0,0.0,0.0,0.0,0.0,0.0,0.0,0.0,0.0,0.0,0.0,0.0,0.0,0.0,0.0,0.0,0.0,0.0,0.0,0.0,0.0,0.0,0.0,0.0,0.0,0.0,0.0,0.0,-3.1076,-3.1397,-3.1436,-3.1424,0.0,0.0,0.0,0.0,0.0,0.0,0.0,0.0,0.0,0.0,0.0,0.0,0.0,0.0,0.0,0.0,0.0,0.0,0.0,0.0,0.0,0.0,0.0,0.0,0.0,0.0,0.0,0.0,0.0,0.0,0.0,0.0,0.0,0.0,0.0,0.0,0.0,0.0,0.0,0.0,0.0,0.0,0.0,0.0,0.0,0.0,0.0,0.0,0.0,0.0,0.0,0.0,0.0,0.0,0.0,0.0,0.0,0.0,0.0,0.0,0.0,0.0,0.0,0.0,0.0,0.0,0.0,0.0,0.0,0.0,0.0,0.0,0.0,0.0,0.0,0.0,0.0,0.0,0.0,0.0,0.0,0.0,0.0,0.0,0.0,0.0,0.0,0.0,0.0,0.0,0.0,0.0,0.0,0.0,0.0,0.0,0.0,0.0,0.0,0.0,0.0,0.0,0.0,0.0,0.0,0.0,0.0,0.0,0.0,0.0,-3.1226,-3.1508,-3.1752,-3.1795,-3.1599,-3.1111,0.0,0.0,0.0,0.0,0.0,0.0,0.0,0.0,0.0,0.0,0.0,0.0,0.0,0.0,0.0,0.0,0.0,0.0,0.0,0.0,0.0,0.0,0.0,0.0,0.0,0.0,0.0,0.0,0.0,0.0,0.0,0.0,0.0,0.0,0.0,0.0,0.0,0.0,0.0,0.0,0.0,0.0,0.0,0.0,0.0,0.0,0.0,0.0,0.0,0.0,0.0,0.0,0.0,0.0,0.0,0.0,0.0,0.0,0.0,0.0,0.0,0.0,0.0,0.0,0.0,0.0,0.0,0.0,0.0,0.0,0.0,0.0,0.0,0.0,0.0,0.0,0.0,0.0,0.0,0.0,0.0,0.0,0.0,0.0,0.0,0.0,0.0,0.0,0.0,0.0,0.0,0.0,0.0,0.0,0.0,0.0,0.0,0.0,0.0,0.0,0.0,0.0,0.0,0.0,0.0,0.0,0.0,0.0,-3.2352,-3.1756,-3.1794,-3.2596,-3.2623,-3.1934,0.0,0.0,0.0,0.0,0.0,0.0,0.0,0.0,0.0,0.0,0.0,0.0,0.0,0.0,0.0,0.0,0.0,0.0,0.0,0.0,0.0,0.0,0.0,0.0,0.0,0.0,0.0,0.0,0.0,0.0,0.0,0.0,0.0,0.0,0.0,0.0,0.0,0.0,0.0,0.0,0.0,0.0,0.0,0.0,0.0,0.0,0.0,0.0,0.0,0.0,0.0,0.0,0.0,0.0,0.0,0.0,0.0,0.0,0.0,0.0,0.0,0.0,0.0,0.0,0.0,0.0,0.0,0.0,0.0,0.0,0.0,0.0,0.0,0.0,0.0,0.0,0.0,0.0,0.0,0.0,0.0,0.0,0.0,0.0,0.0,0.0,0.0,0.0,0.0,0.0,0.0,0.0,0.0,0.0,0.0,0.0,0.0,0.0,0.0,0.0,0.0,0.0,0.0,0.0,0.0,0.0,0.0,0.0,0.0,-3.1039,-3.1272,-3.2049,-3.3312,-3.2447,-3.164,0.0,0.0,0.0,0.0,0.0,0.0,0.0,0.0,0.0,0.0,0.0,0.0,0.0,0.0,0.0,0.0,0.0,0.0,0.0,0.0,0.0,0.0,0.0,0.0,0.0,0.0,0.0,0.0,0.0,0.0,0.0,0.0,0.0,0.0,0.0,0.0,0.0,0.0,0.0,0.0,0.0,0.0,0.0,0.0,0.0,0.0,0.0,0.0,0.0,0.0,0.0,0.0,0.0,0.0,0.0,0.0,0.0,0.0,0.0,0.0,0.0,0.0,0.0,0.0,0.0,0.0,0.0,0.0,0.0,0.0,0.0,0.0,0.0,0.0,0.0,0.0,0.0,0.0,0.0,0.0,0.0,0.0,0.0,0.0,0.0,0.0,0.0,0.0,0.0,0.0,0.0,0.0,0.0,0.0,0.0,0.0,0.0,0.0,0.0,0.0,0.0,0.0,0.0,0.0,0.0,0.0,0.0,0.0,0.0,-3.0963,0.0,-3.2561,-3.3316,-3.2405,-3.1365,0.0,0.0,0.0,0.0,0.0,0.0,0.0,0.0,0.0,0.0,0.0,0.0,0.0,0.0,0.0,0.0,0.0,0.0,0.0,0.0,0.0,0.0,0.0,0.0,0.0,0.0,0.0,0.0,0.0,0.0,0.0,0.0,0.0,0.0,0.0,0.0,0.0,0.0,0.0,0.0,0.0,0.0,0.0,0.0,0.0,0.0,0.0,0.0,0.0,0.0,0.0,0.0,0.0,0.0,0.0,0.0,0.0,0.0,0.0,0.0,0.0,0.0,0.0,0.0,0.0,0.0,0.0,0.0,0.0,0.0,0.0,0.0,0.0,0.0,0.0,0.0,0.0,0.0,0.0,0.0,0.0,0.0,0.0,0.0,0.0,0.0,0.0,0.0,0.0,0.0,0.0,0.0,0.0,0.0,0.0,0.0,0.0,0.0,0.0,0.0,0.0,0.0,0.0,0.0,0.0,0.0,0.0,0.0,-3.0944,-3.2477,-3.328,-3.3278,-3.2648,-3.2515,-3.1076,0.0,0.0,0.0,0.0,0.0,0.0,0.0,0.0,0.0,0.0,0.0,0.0,0.0,0.0,0.0,0.0,0.0,0.0,0.0,0.0,0.0,0.0,0.0,0.0,0.0,0.0,0.0,0.0,0.0,0.0,0.0,0.0,0.0,0.0,0.0,0.0,0.0,0.0,0.0,0.0,0.0,0.0,0.0,0.0,0.0,0.0,0.0,0.0,0.0,0.0,0.0,0.0,0.0,0.0,0.0,0.0,0.0,0.0,0.0,0.0,0.0,0.0,0.0,0.0,0.0,0.0,0.0,0.0,0.0,0.0,0.0,0.0,0.0,0.0,0.0,0.0,0.0,0.0,0.0,0.0,0.0,0.0,0.0,0.0,0.0,0.0,0.0,0.0,0.0,0.0,0.0,0.0,0.0,0.0,0.0,0.0,0.0,0.0,0.0,0.0,0.0,0.0,0.0,0.0,0.0,0.0,0.0,0.0,0.0,-3.0898,-3.1691,-3.2276,-3.248,-3.1508,-3.0452,0.0,0.0,0.0,0.0,0.0,0.0,0.0,0.0,0.0,0.0,0.0,0.0,0.0,0.0,0.0,0.0,0.0,0.0,0.0,0.0,0.0,0.0,0.0,0.0,0.0,0.0,0.0,0.0,0.0,0.0,0.0,0.0,0.0,0.0,0.0,0.0,0.0,0.0,0.0,0.0,0.0,0.0,0.0,0.0,0.0,0.0,0.0,0.0,0.0,0.0,0.0,0.0,0.0,0.0,0.0,0.0,0.0,0.0,0.0,0.0,0.0,0.0,0.0,0.0,0.0,0.0,0.0,0.0,0.0,0.0,0.0,0.0,0.0,0.0,0.0,0.0,0.0,0.0,0.0,0.0,0.0,0.0,0.0,0.0,0.0,0.0,0.0,0.0,0.0,0.0,0.0,0.0,0.0,0.0,0.0,0.0,0.0,0.0,0.0,0.0,0.0,0.0,0.0,0.0,0.0,0.0,0.0,0.0,0.0,-3.1123,-3.1867,-3.2368,-3.2526,-3.1592,-3.0476,-2.9198,0.0,0.0,0.0,0.0,0.0,0.0,0.0,0.0,0.0,0.0,0.0,0.0,0.0,0.0,0.0,0.0,0.0,0.0,0.0,0.0,0.0,0.0,0.0,0.0,0.0,0.0,0.0,0.0,0.0,0.0,0.0,0.0,0.0,0.0,0.0,0.0,0.0,0.0,0.0,0.0,0.0,0.0,0.0,0.0,0.0,0.0,0.0,0.0,0.0,0.0,0.0,0.0,0.0,0.0,0.0,0.0,0.0,0.0,0.0,0.0,0.0,0.0,0.0,0.0,0.0,0.0,0.0,0.0,0.0,0.0,0.0,0.0,0.0,0.0,0.0,0.0,0.0,0.0,0.0,0.0,0.0,0.0,0.0,0.0,0.0,0.0,0.0,0.0,0.0,0.0,0.0,0.0,0.0,0.0,0.0,0.0,0.0,0.0,0.0,0.0,0.0,0.0,0.0,0.0,0.0,0.0,0.0,0.0,-3.2722,-3.3446,-3.347,-3.2786,-3.2595,-3.1024,0.0,0.0,0.0,0.0,0.0,0.0,0.0,0.0,0.0,0.0,0.0,0.0,0.0,0.0,0.0,0.0,0.0,0.0,0.0,0.0,0.0,0.0,0.0,0.0,0.0,0.0,0.0,0.0,0.0,0.0,0.0,0.0,0.0,0.0,0.0,0.0,0.0,0.0,0.0,0.0,0.0,0.0,0.0,0.0,0.0,0.0,0.0,0.0,0.0,0.0,0.0,0.0,0.0,0.0,0.0,0.0,0.0,0.0,0.0,0.0,0.0,0.0,0.0,0.0,0.0,0.0,0.0,0.0,0.0,0.0,0.0,0.0,0.0,0.0,0.0,0.0,0.0,0.0,0.0,0.0,0.0,0.0,0.0,0.0,0.0,0.0,0.0,0.0,0.0,0.0,0.0,0.0,0.0,0.0,0.0,0.0,0.0,0.0,0.0,0.0,0.0,0.0,0.0,0.0,0.0,0.0,0.0,0.0,0.0,-3.2764,-3.3585,-3.4186,-3.4464,-3.2695,-3.102,0.0,0.0,0.0,0.0,0.0,0.0,0.0,0.0,0.0,0.0,0.0,0.0,0.0,0.0,0.0,0.0,0.0,0.0,0.0,0.0,0.0,0.0,0.0,0.0,0.0,0.0,0.0,0.0,0.0,0.0,0.0,0.0,0.0,0.0,0.0,0.0,0.0,0.0,0.0,0.0,0.0,0.0,0.0,0.0,0.0,0.0,0.0,0.0,0.0,0.0,0.0,0.0,0.0,0.0,0.0,0.0,0.0,0.0,0.0,0.0,0.0,0.0,0.0,0.0,0.0,0.0,0.0,0.0,0.0,0.0,0.0,0.0,0.0,0.0,0.0,0.0,0.0,0.0,0.0,0.0,0.0,0.0,0.0,0.0,0.0,0.0,0.0,0.0,0.0,0.0,0.0,0.0,0.0,0.0,0.0,0.0,0.0,0.0,0.0,0.0,0.0,0.0,0.0,0.0,0.0,0.0,0.0,0.0,-3.2393,-3.3329,-3.4239,-3.5057,-3.5799,-3.3303,-3.118,0.0,0.0,0.0,0.0,0.0,0.0,0.0,0.0,0.0,0.0,0.0,0.0,0.0,0.0,0.0,0.0,0.0,0.0,0.0,0.0,0.0,0.0,0.0,0.0,0.0,0.0,0.0,0.0,0.0,0.0,0.0,0.0,0.0,0.0,0.0,0.0,0.0,0.0,0.0,0.0,0.0,0.0,0.0,0.0,0.0,0.0,0.0,0.0,0.0,0.0,0.0,0.0,0.0,0.0,0.0,0.0,0.0,0.0,0.0,0.0,0.0,0.0,0.0,0.0,0.0,0.0,0.0,0.0,0.0,0.0,0.0,0.0,0.0,0.0,0.0,0.0,0.0,0.0,0.0,0.0,0.0,0.0,0.0,0.0,0.0,0.0,0.0,0.0,0.0,0.0,0.0,0.0,0.0,0.0,0.0,0.0,0.0,0.0,0.0,0.0,0.0,0.0,0.0,0.0,0.0,0.0,0.0,0.0,-3.3168,-3.4076,-3.5004,-3.5846,-3.6481,-3.4033,-3.1557,0.0,0.0,0.0,0.0,0.0,0.0,0.0,0.0,0.0,0.0,0.0,0.0,0.0,0.0,0.0,0.0,0.0,0.0,0.0,0.0,0.0,0.0,0.0,0.0,0.0,0.0,0.0,0.0,0.0,0.0,0.0,0.0,0.0,0.0,0.0,0.0,0.0,0.0,0.0,0.0,0.0,0.0,0.0,0.0,0.0,0.0,0.0,0.0,0.0,0.0,0.0,0.0,0.0,0.0,0.0,0.0,0.0,0.0,0.0,0.0,0.0,0.0,0.0,0.0,0.0,0.0,0.0,0.0,0.0,0.0,0.0,0.0,0.0,0.0,0.0,0.0,0.0,0.0,0.0,0.0,0.0,0.0,0.0,0.0,0.0,0.0,0.0,0.0,0.0,0.0,0.0,0.0,0.0,0.0,0.0,0.0,0.0,0.0,0.0,0.0,0.0,0.0,0.0,0.0,0.0,0.0,0.0,0.0,-3.3194,-3.408,-3.5018,-3.5577,-3.575,-3.37,-3.2088,0.0,0.0,0.0,0.0,0.0,0.0,0.0,0.0,0.0,0.0,0.0,0.0,0.0,0.0,0.0,0.0,0.0,0.0,0.0,0.0,0.0,0.0,0.0,0.0,0.0,0.0,0.0,0.0,0.0,0.0,0.0,0.0,0.0,0.0,0.0,0.0,0.0,0.0,0.0,0.0,0.0,0.0,0.0,0.0,0.0,0.0,0.0,0.0,-2.9165,0.0,0.0,0.0,0.0,0.0,0.0,0.0,0.0,0.0,0.0,0.0,0.0,0.0,0.0,0.0,0.0,0.0,0.0,0.0,0.0,0.0,0.0,0.0,0.0,0.0,0.0,0.0,0.0,0.0,0.0,0.0,0.0,0.0,0.0,0.0,0.0,0.0,0.0,0.0,0.0,0.0,0.0,0.0,0.0,0.0,0.0,0.0,0.0,0.0,0.0,0.0,0.0,0.0,0.0,0.0,0.0,0.0,0.0,0.0,-3.324,-3.4075,-3.5006,-3.55,-3.5435,-3.4044,-3.2523,0.0,0.0,0.0,0.0,0.0,0.0,0.0,0.0,0.0,0.0,0.0,0.0,0.0,0.0,0.0,0.0,0.0,0.0,0.0,0.0,0.0,0.0,0.0,0.0,0.0,0.0,0.0,0.0,0.0,0.0,0.0,0.0,0.0,0.0,0.0,0.0,0.0,0.0,0.0,0.0,0.0,0.0,0.0,0.0,0.0,0.0,0.0,0.0,0.0,0.0,0.0,0.0,0.0,0.0,0.0,0.0,0.0,0.0,0.0,0.0,0.0,0.0,0.0,0.0,0.0,0.0,0.0,0.0,0.0,0.0,0.0,0.0,0.0,0.0,0.0,0.0,0.0,0.0,0.0,0.0,0.0,0.0,0.0,0.0,0.0,0.0,0.0,0.0,0.0,0.0,0.0,0.0,0.0,0.0,0.0,0.0,0.0,0.0,0.0,0.0,0.0,0.0,0.0,0.0,0.0,0.0,0.0,-3.1489,-3.3161,-3.4286,-3.5109,-3.55,-3.5481,-3.4525,-3.28,-3.0303,0.0,0.0,0.0,0.0,0.0,0.0,0.0,0.0,0.0,0.0,0.0,0.0,0.0,0.0,0.0,0.0,0.0,0.0,0.0,0.0,0.0,0.0,0.0,0.0,0.0,0.0,0.0,0.0,0.0,0.0,0.0,0.0,0.0,0.0,0.0,0.0,0.0,0.0,-2.9669,-2.9487,0.0,0.0,0.0,0.0,0.0,0.0,0.0,0.0,-2.9738,0.0,0.0,0.0,0.0,0.0,0.0,0.0,0.0,0.0,0.0,0.0,0.0,0.0,0.0,0.0,0.0,0.0,0.0,0.0,0.0,0.0,0.0,0.0,0.0,0.0,0.0,0.0,0.0,0.0,0.0,0.0,0.0,0.0,0.0,0.0,0.0,0.0,0.0,0.0,0.0,0.0,0.0,0.0,0.0,0.0,0.0,0.0,0.0,0.0,0.0,0.0,0.0,0.0,0.0,0.0,0.0,-3.1031,-3.1498,-3.2868,-3.5205,-3.5404,-3.55,-3.5481,-3.4506,-3.2819,-3.0341,0.0,0.0,0.0,0.0,0.0,0.0,0.0,0.0,0.0,0.0,0.0,0.0,0.0,0.0,0.0,0.0,0.0,0.0,0.0,0.0,0.0,0.0,0.0,0.0,0.0,0.0,0.0,0.0,0.0,0.0,0.0,0.0,0.0,0.0,0.0,0.0,0.0,0.0,0.0,-2.9707,-2.951,0.0,0.0,0.0,0.0,0.0,0.0,0.0,0.0,-3.0659,0.0,0.0,0.0,0.0,0.0,0.0,0.0,0.0,0.0,0.0,0.0,0.0,0.0,0.0,0.0,0.0,0.0,0.0,0.0,0.0,0.0,0.0,0.0,0.0,0.0,0.0,0.0,0.0,0.0,0.0,0.0,0.0,0.0,0.0,0.0,0.0,0.0,0.0,0.0,0.0,0.0,0.0,0.0,0.0,0.0,0.0,0.0,0.0,0.0,0.0,0.0,0.0,0.0,0.0,0.0,-3.0783,-3.2164,-3.3716,-3.5423,-3.55,-3.55,-3.5462,-3.4124,-3.2381,0.0,0.0,0.0,0.0,0.0,0.0,0.0,0.0,0.0,0.0,0.0,0.0,0.0,0.0,0.0,0.0,0.0,0.0,0.0,0.0,0.0,0.0,0.0,0.0,0.0,0.0,0.0,0.0,0.0,0.0,0.0,0.0,0.0,0.0,0.0,0.0,0.0,0.0,0.0,0.0,-3.0174,-3.0211,-3.1235,0.0,0.0,0.0,0.0,0.0,0.0,-3.0459,-3.0647,0.0,0.0,0.0,0.0,0.0,0.0,0.0,0.0,0.0,0.0,0.0,0.0,0.0,0.0,0.0,0.0,0.0,0.0,0.0,0.0,0.0,0.0,0.0,0.0,0.0,0.0,0.0,0.0,0.0,0.0,0.0,0.0,0.0,0.0,0.0,0.0,0.0,0.0,0.0,0.0,0.0,0.0,0.0,0.0,0.0,0.0,0.0,0.0,0.0,0.0,0.0,0.0,0.0,0.0,0.0,-3.0252,-3.2607,-3.437,-3.5423,-3.55,-3.55,-3.5462,-3.3721,-3.1952,0.0,0.0,0.0,0.0,0.0,0.0,0.0,0.0,0.0,0.0,0.0,0.0,0.0,0.0,0.0,0.0,0.0,0.0,0.0,0.0,0.0,0.0,0.0,0.0,0.0,0.0,0.0,0.0,0.0,0.0,0.0,0.0,0.0,0.0,0.0,0.0,0.0,0.0,0.0,0.0,0.0,-3.0857,-3.1917,-3.0663,0.0,0.0,0.0,0.0,-3.0054,-3.0793,0.0,0.0,0.0,0.0,0.0,0.0,0.0,0.0,0.0,0.0,0.0,0.0,0.0,0.0,0.0,0.0,0.0,0.0,0.0,0.0,0.0,0.0,0.0,0.0,0.0,0.0,0.0,0.0,0.0,0.0,0.0,0.0,0.0,0.0,0.0,0.0,0.0,0.0,0.0,0.0,0.0,0.0,0.0,0.0,0.0,0.0,0.0,0.0,0.0,0.0,0.0,0.0,0.0,0.0,0.0,0.0,-3.0195,-3.2005,-3.378,-3.5385,-3.55,-3.55,-3.5462,-3.3632,-3.1848,0.0,0.0,0.0,0.0,0.0,0.0,0.0,0.0,0.0,0.0,0.0,0.0,0.0,0.0,0.0,0.0,0.0,0.0,0.0,0.0,0.0,0.0,0.0,0.0,0.0,0.0,0.0,0.0,0.0,0.0,0.0,0.0,0.0,0.0,0.0,0.0,0.0,0.0,0.0,0.0,0.0,-3.0798,-3.1856,-3.1067,-3.0624,0.0,0.0,-3.195,-3.2649,-3.3099,0.0,0.0,0.0,0.0,0.0,0.0,0.0,0.0,0.0,0.0,0.0,0.0,0.0,0.0,0.0,0.0,0.0,0.0,0.0,0.0,0.0,0.0,0.0,0.0,0.0,0.0,0.0,0.0,0.0,0.0,0.0,0.0,0.0,0.0,0.0,0.0,0.0,0.0,0.0,0.0,0.0,0.0,0.0,0.0,0.0,0.0,0.0,0.0,0.0,0.0,0.0,0.0,0.0,0.0,0.0,-2.9755,-3.096,-3.3177,-3.471,-3.5462,-3.55,-3.55,-3.5481,-3.318,-3.1386,0.0,0.0,0.0,0.0,0.0,0.0,0.0,0.0,0.0,0.0,0.0,0.0,0.0,0.0,0.0,0.0,0.0,0.0,0.0,0.0,0.0,0.0,0.0,0.0,0.0,0.0,0.0,0.0,0.0,0.0,0.0,0.0,0.0,0.0,0.0,0.0,0.0,0.0,0.0,0.0,0.0,0.0,-3.2478,-3.2224,0.0,0.0,0.0,-3.2478,-3.221,0.0,0.0,0.0,0.0,0.0,0.0,0.0,0.0,0.0,0.0,0.0,0.0,0.0,0.0,0.0,0.0,0.0,0.0,0.0,0.0,0.0,0.0,0.0,0.0,0.0,0.0,0.0,0.0,0.0,0.0,0.0,0.0,0.0,0.0,0.0,0.0,0.0,0.0,0.0,0.0,0.0,0.0,0.0,0.0,0.0,0.0,0.0,0.0,0.0,0.0,0.0,0.0,0.0,0.0,0.0,0.0,0.0,-3.1527,-3.4138,-3.55,-3.55,-3.55,-3.55,-3.5442,-3.3247,0.0,0.0,0.0,0.0,0.0,0.0,0.0,0.0,0.0,0.0,0.0,0.0,0.0,0.0,0.0,0.0,0.0,0.0,0.0,0.0,0.0,0.0,0.0,0.0,0.0,0.0,0.0,-2.467,0.0,0.0,0.0,0.0,0.0,0.0,0.0,0.0,0.0,0.0,0.0,0.0,0.0,0.0,-3.2064,-3.301,-3.3049,-3.309,0.0,0.0,-3.273,-3.2206,-3.3143,-3.3251,0.0,0.0,0.0,0.0,0.0,0.0,0.0,0.0,0.0,0.0,0.0,0.0,0.0,0.0,0.0,0.0,0.0,0.0,0.0,0.0,0.0,0.0,0.0,0.0,0.0,0.0,0.0,0.0,0.0,0.0,0.0,0.0,0.0,0.0,0.0,0.0,0.0,0.0,0.0,0.0,0.0,0.0,0.0,0.0,0.0,0.0,0.0,0.0,0.0,0.0,0.0,0.0,0.0,0.0,0.0,-3.1546,-3.4119,-3.55,-3.55,-3.55,-3.55,-3.5481,-3.4429,-3.2678,0.0,0.0,0.0,0.0,0.0,0.0,0.0,0.0,0.0,0.0,0.0,0.0,0.0,0.0,0.0,0.0,0.0,0.0,0.0,0.0,0.0,0.0,0.0,0.0,0.0,0.0,0.0,0.0,0.0,0.0,0.0,0.0,0.0,0.0,0.0,0.0,0.0,0.0,0.0,0.0,0.0,-3.2126,-3.3072,-3.3078,-3.3329,0.0,0.0,-3.3031,-3.3948,-3.4373,-3.3951,-3.1957,0.0,0.0,0.0,0.0,0.0,0.0,0.0,0.0,0.0,0.0,0.0,0.0,0.0,0.0,0.0,0.0,0.0,0.0,0.0,0.0,0.0,0.0,0.0,0.0,0.0,0.0,0.0,0.0,0.0,0.0,0.0,0.0,0.0,0.0,0.0,0.0,0.0,0.0,0.0,0.0,0.0,0.0,0.0,0.0,0.0,0.0,0.0,0.0,0.0,0.0,0.0,0.0,0.0,-3.1473,-3.2232,-3.4381,-3.55,-3.55,-3.55,-3.55,-3.55,-3.4525,-3.3068,0.0,0.0,0.0,0.0,0.0,0.0,0.0,0.0,0.0,0.0,0.0,0.0,0.0,0.0,0.0,0.0,0.0,0.0,0.0,0.0,0.0,0.0,0.0,0.0,0.0,0.0,0.0,0.0,-2.6096,-2.6018,-2.5254,0.0,0.0,0.0,0.0,0.0,0.0,0.0,0.0,0.0,0.0,-3.2881,-3.381,-3.39,0.0,0.0,-3.3936,-3.3691,-3.3887,-3.3855,-3.3219,-3.1647,-3.1082,0.0,0.0,0.0,0.0,0.0,0.0,0.0,0.0,0.0,0.0,0.0,0.0,0.0,0.0,0.0,0.0,0.0,0.0,0.0,0.0,0.0,0.0,0.0,0.0,0.0,0.0,0.0,0.0,0.0,0.0,0.0,0.0,0.0,0.0,0.0,0.0,0.0,0.0,0.0,0.0,0.0,0.0,0.0,0.0,0.0,0.0,0.0,0.0,0.0,0.0,0.0,0.0,-3.1971,-3.2684,-3.4553,-3.55,-3.55,-3.55,-3.55,-3.5481,-3.4803,-3.364,0.0,0.0,0.0,0.0,0.0,0.0,0.0,0.0,0.0,0.0,0.0,0.0,0.0,0.0,0.0,0.0,0.0,0.0,0.0,0.0,0.0,0.0,0.0,0.0,0.0,0.0,0.0,0.0,-2.6526,-2.6391,-2.5583,0.0,0.0,0.0,0.0,0.0,0.0,0.0,0.0,0.0,0.0,-3.3377,-3.4111,-3.42,-3.4159,-3.4049,-3.3923,-3.3778,-3.3611,-3.3388,-3.2834,-3.1712,0.0,0.0,0.0,0.0,0.0,0.0,0.0,0.0,0.0,0.0,0.0,0.0,0.0,0.0,0.0,0.0,0.0,0.0,0.0,0.0,0.0,0.0,0.0,0.0,0.0,0.0,0.0,0.0,0.0,0.0,-3.0723,0.0,0.0,0.0,0.0,0.0,0.0,0.0,0.0,0.0,0.0,0.0,0.0,0.0,0.0,0.0,0.0,0.0,0.0,0.0,0.0,0.0,0.0,-3.199,-3.2703,-3.4553,-3.55,-3.55,-3.55,-3.55,-3.55,-3.5462,-3.4607,-3.2812,0.0,0.0,0.0,0.0,0.0,0.0,0.0,0.0,0.0,0.0,0.0,0.0,0.0,0.0,0.0,0.0,0.0,0.0,0.0,0.0,0.0,0.0,0.0,0.0,0.0,0.0,-2.5165,-2.5774,-2.6277,0.0,0.0,0.0,0.0,0.0,0.0,0.0,0.0,0.0,0.0,-3.2915,-3.3403,-3.3751,-3.3768,-3.3697,-3.3629,-3.3299,-3.3096,-3.3273,-3.3281,-3.3074,0.0,0.0,0.0,0.0,0.0,0.0,0.0,0.0,0.0,0.0,0.0,0.0,0.0,0.0,0.0,0.0,0.0,0.0,0.0,0.0,0.0,0.0,0.0,0.0,0.0,0.0,0.0,-3.3279,-3.2498,0.0,0.0,0.0,0.0,0.0,0.0,0.0,0.0,0.0,0.0,0.0,-3.3314,-3.3841,0.0,0.0,0.0,0.0,0.0,0.0,0.0,0.0,0.0,0.0,0.0,0.0,-3.2508,-3.2787,-3.4534,-3.55,-3.55,-3.55,-3.55,-3.55,-3.55,-3.4653,-3.2838,0.0,0.0,0.0,0.0,0.0,0.0,0.0,0.0,0.0,0.0,0.0,0.0,0.0,0.0,0.0,0.0,0.0,0.0,0.0,0.0,0.0,0.0,0.0,0.0,0.0,-2.6385,0.0,0.0,0.0,0.0,0.0,0.0,0.0,0.0,0.0,0.0,0.0,-3.1655,-3.2365,-3.2913,-3.3348,-3.3633,-3.3643,-3.3661,0.0,0.0,0.0,0.0,0.0,0.0,0.0,0.0,0.0,0.0,0.0,0.0,0.0,0.0,-3.0889,-2.8204,-2.7109,-2.6626,-2.662,0.0,0.0,0.0,0.0,0.0,0.0,0.0,0.0,0.0,0.0,0.0,0.0,0.0,0.0,-3.4995,0.0,-3.4179,0.0,0.0,0.0,0.0,0.0,0.0,0.0,0.0,-3.4372,-3.5039,-3.5086,-3.558,-3.5527,0.0,-3.5311,-3.396,0.0,0.0,0.0,0.0,0.0,0.0,0.0,0.0,-3.3324,-3.3647,-3.5417,-3.6365,-3.6365,-3.6077,-3.5904,-3.5923,-3.5654,-3.4948,-3.3787,-3.2586,-3.1037,0.0,0.0,0.0,0.0,0.0,0.0,0.0,0.0,0.0,0.0,0.0,0.0,0.0,0.0,0.0,0.0,0.0,0.0,0.0,0.0,0.0,0.0,0.0,-2.7101,0.0,0.0,0.0,0.0,0.0,0.0,0.0,0.0,0.0,-3.0303,-3.1388,-3.2333,-3.2752,-3.3214,-3.3427,-3.3306,0.0,0.0,0.0,0.0,0.0,0.0,0.0,-3.2536,-3.2362,-3.1923,-3.152,-3.1327,-3.1992,-3.2463,-3.2206,0.0,0.0,-2.9868,-2.863,-2.7913,-2.7906,-2.7411,-2.7133,-2.7576,-2.7844,-2.8141,0.0,0.0,0.0,0.0,0.0,0.0,0.0,0.0,-3.6879,-3.6744,0.0,-3.6053,0.0,0.0,0.0,0.0,0.0,-3.4284,0.0,0.0,-3.5733,-3.6087,-3.6051,-3.6138,-3.6077,-3.6085,-3.6787,-3.6236,-3.4565,-3.3734,0.0,0.0,0.0,0.0,0.0,0.0,-3.4431,-3.5176,-3.6953,-3.7911,-3.7834,-3.7084,-3.6692,-3.6673,-3.5904,-3.5462,-3.5385,-3.3754,-3.2422,-3.152,-2.9031,0.0,0.0,0.0,0.0,0.0,0.0,0.0,0.0,0.0,0.0,0.0,0.0,0.0,0.0,0.0,0.0,0.0,0.0,0.0,0.0,-2.7168,0.0,0.0,0.0,0.0,0.0,0.0,0.0,0.0,0.0,0.0,-3.1281,-3.201,-3.2755,-3.3291,0.0,0.0,0.0,0.0,-3.3371,-3.3512,-3.3458,-3.365,-3.4352,-3.4076,-3.3867,-3.4155,0.0,0.0,-3.2755,-3.2956,-3.2979,-3.2303,-3.2345,-3.2583,-3.3219,-3.1914,-3.0871,-3.0767,-2.9574,-2.8624,-2.8492,-2.9085,-2.9511,-4.172,0.0,0.0,0.0,0.0,-3.8884,-3.8834,-3.8642,-3.9501,-3.9076,-3.7801,-3.9022,0.0,0.0,0.0,0.0,0.0,0.0,-3.6801,-3.7431,-3.8313,-3.8731,-3.8764,-3.9346,-3.9284,-3.8676,-3.8337,-3.7591,-3.6516,-3.6241,-3.4601,-3.1675,0.0,0.0,0.0,0.0,-3.5048,-3.5396,-3.6476,-3.6788,-3.6231,-3.6546,-3.6712,-3.6712,-3.5923,-3.5218,-3.4584,-3.407,-3.2833,-3.0772,-2.9922,0.0,0.0,0.0,0.0,0.0,0.0,0.0,0.0,0.0,0.0,0.0,0.0,0.0,0.0,0.0,0.0,0.0,0.0,0.0,-2.7298,-2.8361,-2.8775,0.0,0.0,0.0,0.0,0.0,0.0,0.0,0.0,0.0,-3.2079,-3.2874,-3.3347,0.0,0.0,-3.4004,-3.3301,-3.3453,-3.3737,-3.4035,-3.3637,0.0,-3.3906,-3.3713,-3.3524,-3.3569,-3.3654,-3.3652,-3.3428,-3.3542,-3.3616,-3.341,-3.3359,-3.3437,-3.352,-3.2386,-3.138,-3.1203,-3.0861,-3.0569,-3.0531,-3.0732,-3.0847,-4.4738,-4.3267,-4.2326,-4.1639,-4.119,-4.1186,-4.1192,-4.1167,-4.1373,-4.0912,-4.0062,-4.1065,-4.0193,-3.8005,-3.8493,0.0,0.0,0.0,-3.8846,-3.9031,-3.9548,-3.9653,-3.9435,-3.9881,-3.9821,-3.9331,-3.9157,-3.8629,-3.7828,-3.8108,-3.6709,-3.3789,0.0,0.0,-3.3788,-3.5117,-3.5845,-3.5944,-3.7106,-3.7334,-3.65,-3.6635,-3.6558,-3.6231,-3.575,-3.5103,-3.4218,-3.3853,-3.2821,-3.0938,-3.0177,-2.9053,0.0,0.0,0.0,0.0,0.0,0.0,0.0,0.0,0.0,0.0,0.0,-2.5816,0.0,0.0,0.0,0.0,-2.7113,-2.7874,-2.8965,-2.9766,0.0,0.0,0.0,0.0,0.0,0.0,0.0,-3.1127,-3.2452,-3.314,-3.273,-3.3507,-3.3868,-3.3152,-3.3681,-3.3963,-3.3384,0.0,-3.3887,-3.429,-3.4184,-3.4264,-3.4788,-3.4854,-3.4775,-3.4582,-3.4692,-3.478,-3.4784,-3.4595,-3.4415,-3.4333,-3.4054,-3.3807,-3.3807,-3.2981,-3.2241,-3.1916,-3.1617,-3.1403,-3.1403,-3.1641,-3.188,-4.7212,-4.7008,-4.4826,-4.3739,-4.3495,-4.3572,-4.3501,-4.3359,-4.27,-4.2417,-4.2438,-4.256,-4.2129,-4.1304,-4.1245,0.0,-4.1296,-4.1239,-4.076,-4.0015,-3.9995,-3.9566,-3.8806,-3.8884,-3.8864,-3.8806,-3.9468,-3.9429,-3.8746,-3.9358,-3.8779,-3.7017,-3.6202,-3.5668,-3.5454,-3.6255,-3.6665,-3.66,-3.8212,-3.8719,-3.8007,-3.7084,-3.6308,-3.5731,-3.5558,-3.5064,-3.4129,-3.3314,-3.2487,-3.1602,-3.0011,-2.911,-2.9046,0.0,0.0,0.0,0.0,0.0,0.0,0.0,0.0,0.0,0.0,0.0,0.0,0.0,0.0,0.0,-2.8966,0.0,-3.0593,-3.1089,0.0,0.0,0.0,-3.0194,-2.9811,-3.0813,-3.1802,-3.2506,0.0,0.0,-3.3276,-3.3994,-3.4316,-3.3812,-3.3863,-3.3807,-3.3442,-3.3728,-3.4029,-3.4635,-3.5071,-3.5654,-3.6219,-3.6558,-3.662,-3.6343,-3.6496,-3.6376,-3.6265,-3.5759,-3.5271,-3.5142,-3.4449,-3.3917,-3.3899,-3.3825,-3.3568,-3.2834,-3.2155,-3.1641,-3.1727,-3.2247,-3.2693,-4.8082,-4.8051,-4.7475,-4.6113,-4.4324,-4.4381,-4.4054,-4.3551,-4.4049,-4.3911,-4.3453,-4.4763,-4.4882,-4.4004,-4.3367,-4.307,-4.3054,-4.2389,-4.1981,-4.1791,-4.1791,-4.1342,-4.0563,-4.1186,-4.1147,-4.0504,-4.0015,-3.9702,-3.9527,-3.9696,-3.9135,-3.7947,-3.7676,-3.7125,-3.6288,-3.7018,-3.7165,-3.6619,-3.7026,-3.7506,-3.793,-3.6558,-3.6308,-3.7373,-3.6154,-3.4769,-3.3276,-3.3006,-3.2218,-3.0788,-3.029,-3.0035,-2.9979,-2.832,0.0,0.0,0.0,0.0,0.0,0.0,0.0,0.0,0.0,-2.7269,-2.5972,0.0,-2.8222,0.0,-3.0086,-3.0576,-3.0131,-3.0201,0.0,0.0,-3.0849,-3.1209,-3.2844,-3.279,-3.2822,-3.3338,-3.4036,-3.4239,-3.3725,-3.429,-3.48,-3.4929,-3.5038,-3.5035,-3.4907,-3.516,-3.5636,-3.6227,-3.6273,-3.6292,-3.6501,-3.657,-3.6624,-3.6519,-3.6514,-3.6496,-3.6482,-3.6279,-3.6108,-3.6007,-3.5321,-3.4784,-3.4692,-3.4247,-3.3788,-3.355,-3.3348,-3.3238,-3.3238,-3.3385,-3.3513,-4.8991,-4.8933,-4.8566,-4.7579,-4.6271,-4.5944,-4.5574,-4.5226,-4.54,-4.5224,-4.4901,-4.5467,-4.5655,-4.5552,-4.5075,-4.4641,-4.425,-4.3782,-4.3138,-4.2435,-4.2786,-4.2513,-4.1732,-4.2572,-4.2513,-4.1674,-4.1186,-4.0756,-4.0385,-4.0385,-4.006,-3.9459,-3.9388,-3.8802,-3.7778,-3.7357,-3.6771,-3.5989,-3.601,-3.6657,-3.7911,-3.6719,-3.6459,-3.7279,-3.6446,-3.5112,-3.3367,-3.2915,-3.213,-3.0871,-3.0445,-3.0195,-3.0147,-2.8874,-2.8053,0.0,0.0,0.0,0.0,0.0,0.0,0.0,0.0,0.0,0.0,0.0,-2.9109,-2.9607,-3.0526,-3.1046,-3.0908,-3.1164,-3.1722,-3.2561,-3.2249,-3.2493,-3.3886,-3.3537,-3.3441,-3.3988,-3.4687,-3.4971,-3.4618,-3.5146,-3.5667,-3.5853,-3.5926,-3.596,-3.5939,-3.6076,-3.6351,-3.6769,-3.6912,-3.7112,-3.7411,-3.7485,-3.7485,-3.7466,-3.7485,-3.7466,-3.7466,-3.7143,-3.6889,-3.6838,-3.6166,-3.5426,-3.5078,-3.4674,-3.4252,-3.3899,-3.3807,-3.3807,-3.3807,-3.3807,-3.3807,-4.9842,-4.9803,-4.903,-4.8662,-4.8515,-4.7818,-4.7428,-4.7246,-4.6511,-4.6294,-4.6426,-4.5669,-4.5812,-4.6612,-4.6378,-4.5948,-4.5322,-4.4972,-4.4016,-4.265,-4.3352,-4.3235,-4.2454,-4.3411,-4.3411,-4.2591,-4.2454,-4.2006,-4.1265,-4.1148,-4.1009,-4.0831,-4.0703,-4.0139,-3.909,-3.7494,-3.6247,-3.54,-3.5434,-3.6259,-3.7908,-3.7009,-3.647,-3.6463,-3.6359,-3.5518,-3.3876,-3.3067,-3.223,-3.1347,-3.0555,-3.0213,-3.0323,-2.9352,-2.8853,0.0,-2.8062,0.0,0.0,0.0,0.0,0.0,0.0,0.0,0.0,-2.9453,-3.0017,-3.0145,-3.0837,-3.1522,-3.2166,-3.2797,-3.3308,-3.3624,-3.3626,-3.3693,-3.3887,-3.3838,-3.3978,-3.4581,-3.5218,-3.5633,-3.5639,-3.6218,-3.6564,-3.662,-3.6667,-3.6763,-3.6851,-3.6773,-3.6712,-3.674,-3.7286,-3.7893,-3.8429,-3.8615,-3.8615,-3.8652,-3.8579,-3.8707,-3.8615,-3.8098,-3.7658,-3.7584,-3.6997,-3.6229,-3.5445,-3.5261,-3.4876,-3.4192,-3.4027,-3.3972,-3.3844,-3.3807,-3.3807,-5.0666,-5.0666,-5.0492,-5.0055,-4.9436,-4.9304,-4.849,-4.7261,-4.6454,-4.6591,-4.7319,-4.7186,-4.7569,-4.8193,-4.6905,-4.6593,-4.6981,-4.4914,-4.3762,-4.3469,-4.3627,-4.3235,-4.2513,-4.4016,-4.4309,-4.343,-4.2747,-4.2318,-4.2142,-4.1459,-4.0691,-3.9893,-3.9821,-3.9282,-3.8206,0.0,0.0,0.0,-3.628,-3.6791,-3.7715,-3.6184,-3.5639,-3.6288,-3.5651,0.0,-3.3857,-3.3648,-3.2868,-3.1404,-3.1094,0.0,0.0,0.0,0.0,0.0,0.0,0.0,0.0,0.0,0.0,0.0,-3.076,-2.988,-2.884,-2.9916,-3.1085,-3.1987,-3.2124,-3.2308,-3.2721,-3.2874,-3.3256,-3.3915,-3.3813,-3.3948,-3.4603,-3.4948,-3.5203,-3.5369,-3.593,-3.6324,-3.6396,-3.6472,-3.6773,-3.7307,-3.7446,-3.7718,-3.828,-3.7786,-3.7661,-3.8217,-3.8364,-3.8505,-3.867,-3.8707,-3.8707,-3.8707,-3.8707,-3.8707,-3.8689,-3.8597,-3.8469,-3.8432,-3.7808,-3.7235,-3.7015,-3.6505,-3.5789,-3.4949,-3.4766,-3.4582,-3.3954,-3.3807,-3.3807,-5.1525,0.0,-5.108,-5.0666,0.0,-4.9881,-4.9285,-4.8525,-4.7696,-4.7448,-4.757,-4.7146,-4.7412,-4.8152,-4.6866,-4.6534,-4.6885,-4.5578,-4.4289,-4.3138,-4.4389,-4.4289,-4.3099,-4.4836,-4.5187,-4.4328,-4.345,-4.2806,-4.2357,-4.1518,-4.0842,-4.0359,-4.0244,-3.9908,-3.9358,-3.9234,-3.8716,-3.7778,-3.7392,-3.7827,-3.9018,-3.783,-3.7285,-3.7646,-3.7264,0.0,0.0,0.0,0.0,0.0,0.0,0.0,0.0,-3.1744,0.0,-3.2519,-3.1775,-3.15,-3.1932,-3.1585,-3.1722,-3.2569,-3.2256,-3.16,-3.0696,-3.1413,-3.213,-3.268,-3.2678,-3.2891,-3.3467,-3.3525,-3.4004,-3.5192,-3.5203,-3.5339,-3.5969,-3.6222,-3.6276,-3.6242,-3.6745,-3.7156,-3.7202,-3.7488,-3.7763,-3.8125,-3.8184,-3.8317,-3.8636,-3.8446,-3.8368,-3.871,-3.8719,-3.8707,-3.8707,-3.8707,-3.8707,-3.8707,-3.8707,-3.8707,-3.8707,-3.8707,-3.8707,-3.867,-3.8358,-3.8025,-3.7566,-3.7162,-3.6633,-3.5844,-3.5298,-3.4931,-3.4435,-3.4082,-3.3807,-5.2414,-5.2384,-5.166,-5.1362,-5.1293,-5.0503,-5.008,-4.9861,0.0,0.0,0.0,-4.6855,-4.7022,-4.7723,-4.6749,-4.6378,-4.6515,-4.6202,-4.4992,-4.3216,-4.5148,-4.5402,-4.425,-4.5617,-4.5929,-4.5207,-4.4348,-4.3469,-4.263,-4.1752,-4.1246,-4.1103,-4.0938,-4.0829,-4.0786,-4.0603,-4.0119,-3.9364,-3.8534,-3.8807,-4.0196,-3.9431,-3.8953,-3.8852,-3.8825,-3.8456,-3.7613,-3.6918,-3.6137,-3.5347,-3.449,-3.3718,-3.3043,-3.2844,-3.2817,-3.2942,-3.2961,-3.3018,-3.3172,-3.3199,-3.3231,-3.3365,-3.3353,-3.3223,-3.2901,-3.2889,-3.3026,-3.3333,-3.3205,-3.3512,-3.4518,-3.4548,-3.5134,-3.6669,-3.6712,-3.6776,-3.7144,-3.7284,-3.7142,-3.7023,-3.7507,-3.797,-3.8002,-3.8405,-3.8777,-3.8762,-3.8661,-3.8707,-3.8707,-3.8713,-3.8691,-3.8704,-3.8707,-3.8707,-3.8707,-3.8707,-3.8707,-3.8707,-3.8707,-3.8707,-3.8707,-3.8707,-3.8707,-3.8707,-3.8707,-3.8426,-3.7919,-3.782,-3.7492,-3.6762,-3.6039,-3.5441,-3.5243,-3.4623,-3.4027,-5.3323,-5.3285,-5.3188,-5.313,-5.308,-5.2269,-5.12,-4.9956,-4.9128,-4.832,-4.7608,-4.7478,-4.7861,-4.8545,-4.7002,-4.669,-4.7313,-4.587,-4.5382,-4.5714,-4.5363,-4.5441,-4.5948,-4.6184,-4.6243,-4.6066,-4.5246,-4.4367,-4.3489,-4.263,-4.1849,-4.1204,-4.1057,-4.096,-4.0804,-4.0595,-4.0431,-4.0288,-3.9405,-3.9048,-3.9267,-3.8341,-3.7831,-3.7803,-3.785,-3.7746,-3.7613,-3.7499,-3.7013,-3.6175,-3.5302,-3.4859,-3.4883,-3.4144,-3.4117,-3.4976,-3.506,-3.5093,-3.5088,-3.5107,-3.5114,-3.5135,-3.5135,-3.4801,-3.4038,-3.332,-3.3526,-3.4897,-3.4366,-3.4492,-3.5921,-3.6139,-3.6446,-3.7167,-3.7194,-3.7079,-3.7087,-3.7416,-3.7673,-3.7664,-3.8241,-3.8663,-3.8685,-3.8733,-3.8735,-3.8719,-3.8723,-3.8707,-3.8707,-3.8689,-3.8689,-3.8707,-3.8707,-3.8707,-3.8707,-3.8707,-3.8707,-3.8707,-3.8707,-3.8707,-3.8707,-3.8707,-3.8707,-3.8707,-3.8707,-3.8691,-3.8666,-3.8793,-3.8451,-3.7856,-3.7418,-3.7031,-3.6431,-3.5533,-3.4637,-5.4194,-5.4136,-5.3691,-5.3498,-5.3475,-5.3165,-5.2431,-5.1355,-5.0555,-4.9219,-4.759,-4.7096,-4.7616,-4.8642,-4.7549,-4.7705,-4.8913,-4.8133,-4.7471,-4.7022,-4.7042,-4.6788,-4.6319,-4.6302,-4.6302,-4.6243,-4.5402,-4.4797,-4.4328,-4.306,-4.2201,-4.1788,-4.124,-4.0887,-4.0738,-4.0579,-4.0496,-4.0496,-4.0084,-3.986,-3.9841,-3.9408,-3.9163,-3.9163,-3.9163,-3.9182,-3.9182,-3.9182,-3.878,-3.7975,-3.7537,-3.6949,-3.6108,-3.6101,-3.6135,-3.6173,-3.6603,-3.6654,-3.6173,-3.5731,-3.55,-3.55,-3.55,-3.5353,-3.4949,-3.4538,-3.4827,-3.6,-3.5727,-3.5947,-3.7168,-3.7295,-3.7529,-3.8193,-3.8117,-3.8091,-3.8288,-3.8417,-3.8461,-3.8428,-3.8608,-3.8848,-3.8993,-3.8921,-3.8881,-3.8866,-3.8777,-3.8707,-3.8707,-3.8707,-3.8707,-3.8707,-3.8707,-3.8707,-3.8707,-3.8707,-3.8707,-3.8707,-3.8707,-3.8707,-3.8707,-3.8707,-3.8707,-3.8707,-3.8707,-3.8762,-3.896,-3.8906,-3.8746,-3.8646,-3.8012,-3.7515,-3.7034,-3.6323,-3.5312,-5.5084,-5.4987,-5.4349,-5.3975,-5.3851,-5.3952,-5.3576,-5.2843,-5.1813,-5.0289,-4.8456,-4.7163,-4.7409,-4.8649,-4.7961,-4.8406,-4.9675,-4.9792,-4.9206,-4.8289,-4.8603,-4.8096,-4.6944,-4.669,-4.6495,-4.6261,-4.5597,-4.5207,-4.4855,-4.3429,-4.2469,-4.2041,-4.1214,-4.0779,-4.072,-4.0557,-4.0496,-4.0496,-4.0496,-4.0496,-4.0496,-4.0496,-4.0496,-4.0496,-4.0496,-4.0496,-4.0496,-4.0496,-4.0208,-3.9611,-3.94,-3.8681,-3.7442,-3.7738,-3.77,-3.7142,-3.7623,-3.7719,-3.7038,-3.6404,-3.6058,-3.6058,-3.6058,-3.6058,-3.6058,-3.6058,-3.6219,-3.6635,-3.6798,-3.7256,-3.7993,-3.8193,-3.8408,-3.8956,-3.9031,-3.9072,-3.9339,-3.9343,-3.9197,-3.9007,-3.895,-3.8989,-3.9059,-3.9087,-3.9073,-3.9045,-3.8892,-3.878,-3.8765,-3.8735,-3.8707,-3.8707,-3.8707,-3.8707,-3.8707,-3.8707,-3.8707,-3.8707,-3.8707,-3.8707,-3.8707,-3.8707,-3.8707,-3.8707,-3.8707,-3.8777,-3.8931,-3.8892,-3.8892,-3.8934,-3.8503,-3.7862,-3.7308,-3.6814,-3.5906,-5.5877,-5.5896,-5.5741,-5.5423,-5.4883,-5.4872,-5.45,-5.373,-5.2138,-5.1309,-5.0796,-4.8534,-4.7982,-4.8623,-4.7966,-4.8152,-4.8974,-4.8935,-4.9267,-4.9714,-4.913,-4.872,-4.8427,-4.7781,-4.7061,-4.6378,-4.6165,-4.5714,-4.4972,-4.3997,-4.2707,-4.1276,-4.0891,-4.0757,-4.0681,-4.0569,-4.0496,-4.0496,-4.0496,-4.0496,-4.0496,-4.0496,-4.0496,-4.0496,-4.0496,-4.0496,-4.0496,-4.0496,-4.0477,-4.0342,-3.9688,-3.9246,-3.8996,-3.8411,-3.7988,-3.7892,-3.7969,-3.795,-3.7873,-3.7796,-3.77,-3.7777,-3.768,-3.768,-3.77,-3.7738,-3.745,-3.7089,-3.7352,-3.8029,-3.8642,-3.8894,-3.9071,-3.9246,-3.9572,-3.9738,-3.9364,-3.9357,-3.9401,-3.9197,-3.9237,-3.9304,-3.9183,-3.9219,-3.9253,-3.9253,-3.9073,-3.8946,-3.8946,-3.8792,-3.8704,-3.8704,-3.8689,-3.8707,-3.8707,-3.8707,-3.8707,-3.8707,-3.8707,-3.8707,-3.8707,-3.8707,-3.8707,-3.875,-3.8707,-3.878,-3.895,-3.8974,-3.9031,-3.9146,-3.8944,-3.8603,-3.7367,-3.6807,-3.6209,-5.6003,-5.6003,-5.6003,-5.5897,-5.5734,-5.5755,-5.5628,-5.5262,-5.365,-5.294,-5.2598,-5.0211,-4.9004,-4.8782,-4.8436,-4.8779,-4.9538,-4.9558,-5.0046,-5.0748,-4.9969,-4.9286,-4.874,-4.7977,-4.7139,-4.6358,-4.6302,-4.5851,-4.4893,-4.3601,-4.2266,-4.1126,-4.0863,-4.0776,-4.07,-4.0557,-4.0496,-4.0496,-4.0496,-4.0496,-4.0496,-4.0496,-4.0496,-4.0496,-4.0496,-4.0496,-4.0496,-4.0496,-4.0496,-4.0477,-4.0169,-3.9785,-3.9323,-3.9419,-3.9258,-3.8815,-3.8777,-3.8757,-3.8765,-3.8296,-3.8007,-3.8007,-3.8007,-3.8007,-3.8027,-3.8469,-3.8584,-3.8365,-3.8508,-3.8991,-3.967,-3.9874,-3.9923,-3.9915,-3.9951,-3.9816,-3.9599,-3.9471,-3.935,-3.9272,-3.9298,-3.9376,-3.9389,-3.9439,-3.9477,-3.9421,-3.9219,-3.9055,-3.9124,-3.8906,-3.878,-3.8837,-3.8795,-3.8707,-3.8707,-3.8707,-3.8707,-3.8707,-3.8707,-3.8707,-3.8707,-3.8707,-3.8719,-3.8851,-3.878,-3.8851,-3.9137,-3.8946,-3.8906,-3.9026,-3.8738,-3.8202,-3.7013,-3.6808,-3.6373,-5.6003,-5.6003,-5.6003,-5.6091,-5.6233,-5.6281,-5.6368,-5.6287,-5.4955,-5.4244,-5.3778,-5.1725,-5.0194,-4.9215,-4.8931,-4.9389,-5.034,-5.0221,-5.0573,-5.1258,-5.0729,-4.9872,-4.8818,-4.8213,-4.7354,-4.6436,-4.6302,-4.5734,-4.4637,-4.339,-4.2125,-4.1097,-4.0825,-4.073,-4.064,-4.0554,-4.0496,-4.0496,-4.0496,-4.0496,-4.0496,-4.0496,-4.0496,-4.0496,-4.0496,-4.0496,-4.0496,-4.0496,-4.0496,-4.0496,-4.0496,-4.0246,-3.9708,-4.0189,-4.0246,-3.9708,-3.9631,-3.9631,-3.9611,-3.9027,-3.8681,-3.8681,-3.8681,-3.87,-3.8796,-3.9258,-3.9611,-3.9611,-3.9631,-3.9904,-4.0326,-4.0473,-4.0433,-4.026,-4.0061,-3.9931,-3.9785,-3.9594,-3.9464,-3.9401,-3.9446,-3.9514,-3.9654,-3.9689,-3.9689,-3.9635,-3.9401,-3.9183,-3.9232,-3.9003,-3.8822,-3.8906,-3.8822,-3.878,-3.8723,-3.8707,-3.8707,-3.8707,-3.8707,-3.8738,-3.8765,-3.8795,-3.8792,-3.8921,-3.8837,-3.8773,-3.8876,-3.8763,-3.8317,-3.8407,-3.8159,-3.7573,-3.6738,-3.6646,-3.6264,-5.6003,-5.6003,-5.6003,-5.609,-5.6303,-5.6308,-5.6409,-5.6494,-5.5608,-5.4771,-5.3934,-5.2935,-5.1618,-5.0019,-4.9253,-4.9712,-5.0986,-5.0416,-5.0534,-5.1277,-5.1297,-5.0418,-4.8857,-4.874,-4.79,-4.6495,-4.6319,-4.5441,-4.3897,-4.3496,-4.2545,-4.0893,-4.0748,-4.0628,-4.0527,-4.0523,-4.0496,-4.0496,-4.0496,-4.0496,-4.0496,-4.0496,-4.0496,-4.0496,-4.0496,-4.0496,-4.0496,-4.0496,-4.0496,-4.0496,-4.0496,-4.0458,-4.0439,-4.0477,-4.0458,-4.04,-4.0419,-4.0419,-4.04,-4.0285,-4.0246,-4.0304,-4.0189,-4.0323,-4.015,-4.0246,-4.0323,-4.0419,-4.0342,-4.0372,-4.0347,-4.0441,-4.0356,-4.0003,-4.0081,-4.004,-3.9848,-3.9826,-3.977,-3.9647,-3.9705,-3.9804,-3.9848,-3.987,-3.9867,-3.9834,-3.9689,-3.9502,-3.9324,-3.9129,-3.8906,-3.8822,-3.8851,-3.8921,-3.875,-3.8795,-3.8765,-3.8735,-3.8795,-3.875,-3.8892,-3.8989,-3.8989,-3.8989,-3.8935,-3.8815,-3.8633,-3.8181,-3.754,-3.736,-3.7326,-3.6829,-3.6193,-3.6202,-3.5871,-5.6003,-5.6003,-5.6003,-5.6051,-5.6124,-5.6238,-5.6344,-5.634,-5.563,-5.481,-5.3936,-5.3091,-5.2048,-5.0879,-5.0016,-4.9654,-4.9757,-4.9967,-5.028,-5.0631,-5.1141,-5.077,-4.9696,-4.9072,-4.8252,-4.7217,-4.6554,-4.5404,-4.38,-4.3105,-4.2126,-4.1033,-4.0768,-4.0681,-4.0527,-4.0496,-4.0496,-4.0496,-4.0496,-4.0496,-4.0496,-4.0496,-4.0496,-4.0496,-4.0496,-4.0496,-4.0496,-4.0496,-4.0496,-4.0496,-4.0496,-4.0496,-4.0496,-4.0496,-4.0496,-4.0496,-4.0496,-4.0496,-4.0496,-4.0496,-4.0496,-4.0496,-4.0496,-4.0496,-4.0496,-4.0496,-4.0496,-4.0496,-4.0496,-4.0465,-4.0449,-4.0473,-4.043,-4.0294,-4.0223,-4.0177,-4.007,-3.9967,-3.9848,-3.9815,-3.9867,-3.9889,-3.99,-3.99,-3.99,-3.9878,-3.9611,-3.9464,-3.9414,-3.911,-3.8837,-3.8862,-3.8851,-3.8818,-3.8921,-3.9017,-3.9059,-3.895,-3.8906,-3.8822,-3.8877,-3.8881,-3.8851,-3.8942,-3.8927,-3.8511,-3.8167,-3.7649,-3.6976,-3.6414,-3.6362,-3.618,-3.5524,-3.5609,-3.5382,-5.6003,-5.6003,-5.6003,-5.6018,-5.6083,-5.6226,-5.6324,-5.63,-5.5873,-5.5083,-5.4053,-5.3365,-5.2497,-5.1445,-5.0777,-5.0044,-4.9288,-4.956,-4.9675,-4.9772,-5.0575,-5.0377,-4.9401,-4.8954,-4.8232,-4.7237,-4.6593,-4.5382,-4.3819,-4.3049,-4.2068,-4.0893,-4.0787,-4.0668,-4.0527,-4.0496,-4.0496,-4.0496,-4.0496,-4.0496,-4.0496,-4.0496,-4.0496,-4.0496,-4.0496,-4.0496,-4.0496,-4.0496,-4.0496,-4.0496,-4.0496,-4.0496,-4.0496,-4.0496,-4.0496,-4.0496,-4.0496,-4.0496,-4.0496,-4.0496,-4.0496,-4.0496,-4.0496,-4.0496,-4.0496,-4.0496,-4.0496,-4.0496,-4.0496,-4.0496,-4.0496,-4.0496,-4.0496,-4.0481,-4.0358,-4.0261,-4.0252,-4.0109,-4.0008,-3.9988,-3.9975,-3.9965,-3.9954,-3.9922,-3.99,-3.99,-3.9599,-3.9464,-3.9414,-3.9142,-3.881,-3.8877,-3.8848,-3.8896,-3.8979,-3.9115,-3.9156,-3.9059,-3.8892,-3.8837,-3.8851,-3.881,-3.877,-3.8861,-3.8591,-3.8094,-3.7584,-3.7064,-3.6453,-3.577,-3.5651,-3.5609,-3.5239,-3.5059,-3.502,-5.6003,-5.6003,-5.6003,-5.6078,-5.6192,-5.6269,-5.6334,-5.6395,-5.6489,-5.5532,-5.409,-5.3931,-5.2926,-5.1641,-5.1285,-5.0845,-4.9971,-4.9267,-4.8935,-4.9013,-4.9811,-4.9362,-4.7996,-4.8545,-4.7939,-4.6475,-4.6319,-4.5402,-4.3878,-4.3493,-4.2545,-4.1116,-4.0769,-4.064,-4.0496,-4.0496,-4.0496,-4.0496,-4.0496,-4.0496,-4.0496,-4.0496,-4.0496,-4.0496,-4.0496,-4.0496,-4.0496,-4.0496,-4.0496,-4.0496,-4.0496,-4.0496,-4.0496,-4.0496,-4.0496,-4.0496,-4.0496,-4.0496,-4.0496,-4.0496,-4.0496,-4.0496,-4.0496,-4.0496,-4.0496,-4.0496,-4.0496,-4.0496,-4.0496,-4.0496,-4.0496,-4.0496,-4.0496,-4.0489,-4.0427,-4.0368,-4.036,-4.027,-4.0196,-4.0168,-4.0118,-4.0098,-4.0067,-4.0007,-3.9924,-3.99,-3.9735,-3.9514,-3.9389,-3.9137,-3.895,-3.8822,-3.8921,-3.9101,-3.9142,-3.9151,-3.9124,-3.9101,-3.8906,-3.881,-3.8906,-3.8888,-3.8718,-3.8683,-3.7953,-3.7436,-3.6766,-3.6266,-3.5878,-3.5352,-3.5267,-3.5264,-3.515,-3.5063,-3.5108,-5.6003,-5.6003,-5.6003,-5.6067,-5.6206,-5.6269,-5.6334,-5.6402,-5.6531,-5.563,-5.4207,-5.3988,-5.3043,-5.1699,-5.1402,-5.0923,-5.0046,-4.9208,-4.8798,-4.8954,-4.9675,-4.948,-4.8603,-4.8662,-4.792,-4.6534,-4.6302,-4.573,-4.4643,-4.3854,-4.2844,-4.1796,-4.1009,-4.0646,-4.0504,-4.0496,-4.0496,-4.0496,-4.0496,-4.0496,-4.0496,-4.0496,-4.0496,-4.0496,-4.0496,-4.0496,-4.0496,-4.0496,-4.0496,-4.0496,-4.0496,-4.0496,-4.0496,-4.0496,-4.0496,-4.0496,-4.0496,-4.0496,-4.0496,-4.0496,-4.0496,-4.0496,-4.0496,-4.0496,-4.0496,-4.0496,-4.0496,-4.0496,-4.0496,-4.0496,-4.0496,-4.0496,-4.0496,-4.0496,-4.0444,-4.0413,-4.0405,-4.0298,-4.0215,-4.0205,-4.0196,-4.0177,-4.0158,-4.0109,-4.007,-4.0017,-3.9848,-3.9635,-3.9389,-3.9285,-3.9142,-3.8979,-3.9165,-3.9344,-3.9395,-3.9389,-3.9364,-3.9318,-3.9137,-3.8974,-3.9027,-3.9027,-3.8822,-3.8199,-3.7444,-3.6737,-3.6094,-3.5656,-3.5353,-3.5218,-3.523,-3.5217,-3.516,-3.5176,-3.5201,-5.6003,-5.6003,-5.6003,-5.6086,-5.6206,-5.6255,-5.6339,-5.6425,-5.655,-5.5611,-5.4229,-5.3988,-5.3043,-5.168,-5.1402,-5.1098,-5.0477,-4.9364,-4.8798,-4.8857,-4.9306,-4.9013,-4.8017,-4.7861,-4.7412,-4.6515,-4.6302,-4.5845,-4.4974,-4.3988,-4.3039,-4.2082,-4.1157,-4.0646,-4.0504,-4.0496,-4.0496,-4.0496,-4.0496,-4.0496,-4.0496,-4.0496,-4.0496,-4.0496,-4.0496,-4.0496,-4.0496,-4.0496,-4.0496,-4.0496,-4.0496,-4.0496,-4.0496,-4.0496,-4.0496,-4.0496,-4.0496,-4.0496,-4.0496,-4.0496,-4.0496,-4.0496,-4.0496,-4.0496,-4.0496,-4.0496,-4.0496,-4.0496,-4.0496,-4.0496,-4.0496,-4.0496,-4.0496,-4.0496,-4.0457,-4.0444,-4.0427,-4.0358,-4.0323,-4.0323,-4.0297,-4.027,-4.027,-4.0215,-4.0206,-4.0118,-3.9967,-3.9799,-3.9561,-3.9445,-3.9338,-3.9287,-3.9383,-3.9531,-3.9656,-3.9656,-3.9602,-3.9531,-3.9439,-3.9326,-3.9268,-3.9269,-3.9133,-3.7948,-3.706,-3.6338,-3.5676,-3.5498,-3.5267,-3.5242,-3.5242,-3.525,-3.5231,-3.5231,-3.5273,-5.6003,-5.6003,-5.6003,-5.6075,-5.6219,-5.6275,-5.6344,-5.6432,-5.6536,-5.5613,-5.4248,-5.399,-5.3042,-5.1679,-5.1385,-5.1296,-5.0986,-4.954,-4.8701,-4.8681,-4.8779,-4.8232,-4.7159,-4.6924,-4.6651,-4.6341,-4.6302,-4.5826,-4.4953,-4.3978,-4.3015,-4.2091,-4.1164,-4.0639,-4.0531,-4.0496,-4.0496,-4.0496,-4.0496,-4.0496,-4.0496,-4.0496,-4.0496,-4.0496,-4.0496,-4.0496,-4.0496,-4.0496,-4.0496,-4.0496,-4.0496,-4.0496,-4.0496,-4.0496,-4.0496,-4.0496,-4.0496,-4.0496,-4.0496,-4.0496,-4.0496,-4.0496,-4.0496,-4.0496,-4.0496,-4.0496,-4.0496,-4.0496,-4.0496,-4.0496,-4.0496,-4.0496,-4.0496,-4.0496,-4.0481,-4.05,-4.0489,-4.0481,-4.0465,-4.0476,-4.0444,-4.0413,-4.0394,-4.0316,-4.0252,-4.0196,-4.008,-3.9962,-3.9838,-3.9709,-3.9652,-3.9634,-3.9675,-3.9786,-3.9941,-3.9899,-3.987,-3.9922,-3.9805,-3.9671,-3.9315,-3.9183,-3.8731,-3.7578,-3.6682,-3.5948,-3.5539,-3.5396,-3.532,-3.5297,-3.5304,-3.5308,-3.5315,-3.5335,-3.532,-5.6003,-5.6003,-5.6003,-5.6102,-5.6263,-5.6303,-5.6405,-5.655,-5.6579,-5.5622,-5.4271,-5.399,-5.3037,-5.149,-5.1386,-5.1068,-5.0326,-4.9325,-4.8427,-4.8074,-4.8564,-4.8603,-4.8057,-4.7489,-4.6885,-4.6378,-4.6261,-4.5802,-4.4902,-4.3907,-4.2981,-4.2103,-4.108,-4.0534,-4.0496,-4.0496,-4.0496,-4.0496,-4.0496,-4.0496,-4.0496,-4.0496,-4.0496,-4.0496,-4.0496,-4.0496,-4.0496,-4.0496,-4.0496,-4.0496,-4.0496,-4.0496,-4.0496,-4.0496,-4.0496,-4.0496,-4.0496,-4.0496,-4.0496,-4.0496,-4.0496,-4.0496,-4.0496,-4.0496,-4.0496,-4.0496,-4.0496,-4.0496,-4.0496,-4.0496,-4.0496,-4.0496,-4.0496,-4.0496,-4.0496,-4.0496,-4.0496,-4.0496,-4.0496,-4.0489,-4.0473,-4.0476,-4.0468,-4.0452,-4.0392,-4.0351,-4.0279,-4.0167,-4.0042,-4.0032,-3.9983,-3.9972,-3.9992,-4.0129,-4.0205,-4.0148,-4.0177,-4.0304,-4.0204,-4.0012,-3.9409,-3.8779,-3.7928,-3.6847,-3.6277,-3.5603,-3.5534,-3.5465,-3.5405,-3.5369,-3.5391,-3.5412,-3.5427,-3.5446,-3.5391,-5.6003,-5.6003,-5.6003,-5.6117,-5.6303,-5.6308,-5.6418,-5.658,-5.6579,-5.5622,-5.427,-5.3987,-5.3016,-5.1495,-5.1386,-5.0912,-5.0049,-4.9208,-4.8369,-4.7762,-4.8055,-4.8408,-4.8388,-4.7686,-4.6768,-4.6378,-4.6302,-4.5763,-4.4874,-4.3888,-4.2961,-4.2055,-4.1019,-4.0516,-4.0496,-4.0496,-4.0496,-4.0496,-4.0496,-4.0496,-4.0496,-4.0496,-4.0496,-4.0496,-4.0496,-4.0496,-4.0496,-4.0496,-4.0496,-4.0496,-4.0496,-4.0496,-4.0496,-4.0496,-4.0496,-4.0496,-4.0496,-4.0496,-4.0496,-4.0496,-4.0496,-4.0496,-4.0496,-4.0496,-4.0496,-4.0496,-4.0496,-4.0496,-4.0496,-4.0496,-4.0496,-4.0496,-4.0496,-4.0496,-4.0496,-4.0496,-4.0496,-4.0496,-4.0496,-4.0496,-4.0496,-4.0496,-4.0496,-4.0496,-4.0492,-4.046,-4.0436,-4.033,-4.0212,-4.0286,-4.0286,-4.0251,-4.0223,-4.0313,-4.0347,-4.0321,-4.0304,-4.0433,-4.0252,-4.0116,-3.9353,-3.8467,-3.763,-3.6726,-3.5996,-3.55,-3.55,-3.55,-3.5467,-3.5453,-3.55,-3.55,-3.55,-3.55,-3.5446,-5.6003,-5.6003,-5.6003,-5.6097,-5.6278,-5.6314,-5.6414,-5.6558,-5.6417,-5.5497,-5.4229,-5.3907,-5.2846,-5.1406,-5.1171,-5.0733,-4.987,-4.8935,-4.8388,-4.7861,-4.7725,-4.7861,-4.8603,-4.7412,-4.6632,-4.6339,-4.6302,-4.5646,-4.4716,-4.3751,-4.2864,-4.1881,-4.0891,-4.0543,-4.0496,-4.0496,-4.0496,-4.0496,-4.0496,-4.0496,-4.0496,-4.0496,-4.0496,-4.0496,-4.0496,-4.0496,-4.0496,-4.0496,-4.0496,-4.0496,-4.0496,-4.0496,-4.0496,-4.0496,-4.0496,-4.0496,-4.0496,-4.0496,-4.0496,-4.0496,-4.0496,-4.0496,-4.0496,-4.0496,-4.0496,-4.0496,-4.0496,-4.0496,-4.0496,-4.0496,-4.0496,-4.0496,-4.0496,-4.0496,-4.0496,-4.0496,-4.0496,-4.0496,-4.0496,-4.0496,-4.0496,-4.0496,-4.0496,-4.0496,-4.0489,-4.0492,-4.0484,-4.0433,-4.0381,-4.0389,-4.0425,-4.0433,-4.0441,-4.0465,-4.0481,-4.0473,-4.0465,-4.0462,-4.0173,-3.9849,-3.9092,-3.8278,-3.754,-3.6731,-3.5885,-3.55,-3.55,-3.55,-3.55,-3.55,-3.55,-3.55,-3.55,-3.55,-3.546,-5.6003,-5.6003,-5.6003,-5.6117,-5.6292,-5.6314,-5.6414,-5.6547,-5.5881,-5.5018,-5.4019,-5.3294,-5.2402,-5.1367,-5.072,-4.9889,-4.9112,-4.833,-4.8035,-4.8408,-4.7081,-4.7549,-4.831,-4.7647,-4.6944,-4.6475,-4.6302,-4.5475,-4.4217,-4.3494,-4.2573,-4.1205,-4.0822,-4.0496,-4.0496,-4.0496,-4.0496,-4.0496,-4.0496,-4.0496,-4.0496,-4.0496,-4.0496,-4.0496,-4.0496,-4.0496,-4.0496,-4.0496,-4.0496,-4.0496,-4.0496,-4.0496,-4.0496,-4.0496,-4.0496,-4.0496,-4.0496,-4.0496,-4.0496,-4.0496,-4.0496,-4.0496,-4.0496,-4.0496,-4.0496,-4.0496,-4.0496,-4.0496,-4.0496,-4.0496,-4.0496,-4.0496,-4.0496,-4.0496,-4.0496,-4.0496,-4.0496,-4.0496,-4.0496,-4.0496,-4.0496,-4.0496,-4.0496,-4.0496,-4.0496,-4.0496,-4.0496,-4.0496,-4.0496,-4.0496,-4.0496,-4.0496,-4.0496,-4.0496,-4.0496,-4.0496,-4.0496,-4.0362,-4.0054,-3.9508,-3.8738,-3.8007,-3.7257,-3.6481,-3.5712,-3.5519,-3.55,-3.55,-3.55,-3.55,-3.55,-3.55,-3.55,-3.55,-3.5481,-5.6003,-5.6003,-5.6003,-5.6097,-5.6292,-5.6314,-5.6418,-5.6404,-5.5681,-5.4807,-5.3949,-5.3083,-5.2226,-5.1346,-5.048,-4.9631,-4.8646,-4.7569,-4.7666,-4.8135,-4.7198,-4.7295,-4.8193,-4.7627,-4.671,-4.6261,-4.5851,-4.4909,-4.3907,-4.3065,-4.2125,-4.0902,-4.0668,-4.0557,-4.0504,-4.0496,-4.0496,-4.0496,-4.0496,-4.0496,-4.0496,-4.0496,-4.0496,-4.0496,-4.0496,-4.0496,-4.0496,-4.0496,-4.0496,-4.0496,-4.0496,-4.0496,-4.0496,-4.0496,-4.0496,-4.0496,-4.0496,-4.0496,-4.0496,-4.0496,-4.0496,-4.0496,-4.0496,-4.0496,-4.0496,-4.0496,-4.0496,-4.0496,-4.0496,-4.0496,-4.0496,-4.0496,-4.0496,-4.0496,-4.0496,-4.0496,-4.0496,-4.0496,-4.0496,-4.0496,-4.0496,-4.0496,-4.0496,-4.0496,-4.0496,-4.0496,-4.0496,-4.0496,-4.0496,-4.0496,-4.0496,-4.0496,-4.0496,-4.0496,-4.0496,-4.0496,-4.0496,-4.0246,-3.9854,-3.9161,-3.8354,-3.7642,-3.6923,-3.6192,-3.5519,-3.55,-3.55,-3.55,-3.55,-3.55,-3.55,-3.55,-3.55,-3.55,-3.5481,-5.6003,-5.6003,-5.6003,-5.6117,-5.6297,-5.6314,-5.6301,-5.6231,-5.5478,-5.4494,-5.3742,-5.2868,-5.1894,-5.1106,-5.022,-4.9352,-4.8214,-4.7256,-4.7217,-4.8115,-4.6983,-4.7237,-4.7881,-4.7178,-4.6261,-4.6046,-4.546,-4.4557,-4.3682,-4.2701,-4.182,-4.0932,-4.0725,-4.0619,-4.0519,-4.0496,-4.0496,-4.0496,-4.0496,-4.0496,-4.0496,-4.0496,-4.0496,-4.0496,-4.0496,-4.0496,-4.0496,-4.0496,-4.0496,-4.0496,-4.0496,-4.0496,-4.0496,-4.0496,-4.0496,-4.0496,-4.0496,-4.0496,-4.0496,-4.0496,-4.0496,-4.0496,-4.0496,-4.0496,-4.0496,-4.0496,-4.0496,-4.0496,-4.0496,-4.0496,-4.0496,-4.0496,-4.0496,-4.0496,-4.0496,-4.0496,-4.0496,-4.0496,-4.0496,-4.0496,-4.0496,-4.0496,-4.0496,-4.0496,-4.0496,-4.0496,-4.0496,-4.0496,-4.0496,-4.0496,-4.0496,-4.0496,-4.0496,-4.0496,-4.0496,-4.0496,-4.0496,-4.015,-3.9738,-3.8854,-3.7988,-3.7065,-3.6346,-3.5942,-3.55,-3.55,-3.55,-3.55,-3.55,-3.55,-3.55,-3.55,-3.55,-3.55,-3.5474,-5.6003,-5.6003,-5.6003,-5.6117,-5.6297,-5.6308,-5.6028,-5.5413,-5.4669,-5.374,-5.2904,-5.2011,-5.1207,-5.0322,-4.9414,-4.8214,-4.7121,-4.6495,-4.6866,-4.7627,-4.6827,-4.6983,-4.7489,-4.6866,-4.5987,-4.5363,-4.4933,-4.4424,-4.3554,-4.2688,-4.1704,-4.0976,-4.073,-4.064,-4.0631,-4.0516,-4.0554,-4.0631,-4.0573,-4.0516,-4.0631,-4.0535,-4.0496,-4.0496,-4.0496,-4.0496,-4.0496,-4.0496,-4.0496,-4.0496,-4.0496,-4.0496,-4.0496,-4.0496,-4.0496,-4.0496,-4.0496,-4.0496,-4.0496,-4.0496,-4.0496,-4.0496,-4.0496,-4.0496,-4.0496,-4.0496,-4.0496,-4.0496,-4.0496,-4.0496,-4.0496,-4.0496,-4.0496,-4.0496,-4.0496,-4.0496,-4.0496,-4.0496,-4.0496,-4.0496,-4.0496,-4.0496,-4.0496,-4.0496,-4.0496,-4.0496,-4.0496,-4.0496,-4.0496,-4.0496,-4.0496,-4.0496,-4.0496,-4.0496,-4.0496,-4.0496,-4.0458,-4.0054,-3.9508,-3.8584,-3.7623,-3.6488,-3.5769,-3.5577,-3.55,-3.55,-3.55,-3.55,-3.55,-3.55,-3.55,-3.55,-3.55,-3.55,-3.55,-5.6003,-5.6003,-5.6003,-5.6117,-5.6272,-5.6308,-5.5911,-5.5235,-5.4371,-5.3501,-5.2651,-5.1777,-5.0914,-5.0049,-4.9197,-4.7881,-4.6653,-4.6302,-4.6807,-4.7254,-4.6807,-4.6749,-4.7391,-4.669,-4.5851,-4.509,-4.4563,-4.3899,-4.2999,-4.2073,-4.1601,-4.1489,-4.1059,-4.0881,-4.1019,-4.0735,-4.0823,-4.0912,-4.0766,-4.0719,-4.1027,-4.0785,-4.0535,-4.0496,-4.0496,-4.0496,-4.0496,-4.0496,-4.0496,-4.0496,-4.0496,-4.0496,-4.0496,-4.0496,-4.0496,-4.0496,-4.0496,-4.0496,-4.0496,-4.0496,-4.0496,-4.0496,-4.0496,-4.0496,-4.0496,-4.0496,-4.0496,-4.0496,-4.0496,-4.0496,-4.0496,-4.0496,-4.0496,-4.0496,-4.0496,-4.0496,-4.0496,-4.0496,-4.0496,-4.0496,-4.0496,-4.0496,-4.0496,-4.0496,-4.0496,-4.0496,-4.0496,-4.0496,-4.0496,-4.0496,-4.0496,-4.0496,-4.0496,-4.0496,-4.0496,-4.0496,-4.0362,-3.9958,-3.9258,-3.8315,-3.745,-3.6392,-3.5827,-3.5519,-3.55,-3.55,-3.55,-3.55,-3.55,-3.55,-3.55,-3.55,-3.55,-3.55,-3.55,-5.6003,-5.6003,-5.6003,-5.6097,-5.6253,-5.6094,-5.5634,-5.4957,-5.4074,-5.3206,-5.2395,-5.1503,-5.0605,-4.9721,-4.8659,-4.7479,-4.6306,-4.6305,-4.6694,-4.6986,-4.6653,-4.671,-4.6905,-4.6612,-4.5734,-4.4582,-4.4133,-4.3255,-4.2492,-4.162,-4.1538,-4.1459,-4.1053,-4.1019,-4.1263,-4.0796,-4.1101,-4.1066,-4.095,-4.0931,-4.12,-4.1066,-4.065,-4.0516,-4.0496,-4.0496,-4.0496,-4.0496,-4.0496,-4.0496,-4.0496,-4.0496,-4.0496,-4.0496,-4.0496,-4.0496,-4.0496,-4.0496,-4.0496,-4.0496,-4.0496,-4.0496,-4.0496,-4.0496,-4.0496,-4.0496,-4.0496,-4.0496,-4.0496,-4.0496,-4.0496,-4.0496,-4.0496,-4.0496,-4.0496,-4.0496,-4.0496,-4.0496,-4.0496,-4.0496,-4.0496,-4.0496,-4.0496,-4.0496,-4.0496,-4.0496,-4.0496,-4.0496,-4.0496,-4.0496,-4.0496,-4.0496,-4.0496,-4.0496,-4.0496,-4.0496,-4.0265,-3.9842,-3.8988,-3.8007,-3.7238,-3.643,-3.5962,-3.55,-3.55,-3.55,-3.55,-3.55,-3.55,-3.55,-3.55,-3.55,-3.55,-3.55,-3.55,-5.6003,-5.6003,-5.6003,-5.6097,-5.6142,-5.5486,-5.4792,-5.4086,-5.3264,-5.2354,-5.1612,-5.0682,-4.9844,-4.8788,-4.7361,-4.6576,-4.6338,-4.6313,-4.6408,-4.6565,-4.6404,-4.6381,-4.6497,-4.6397,-4.5347,-4.4273,-4.3822,-4.3216,-4.2297,-4.1431,-4.1186,-4.1217,-4.1096,-4.0939,-4.1292,-4.0822,-4.0554,-4.0708,-4.0708,-4.0708,-4.0862,-4.1316,-4.1143,-4.0766,-4.0516,-4.0496,-4.0496,-4.0496,-4.0496,-4.0496,-4.0496,-4.0496,-4.0496,-4.0496,-4.0496,-4.0496,-4.0496,-4.0496,-4.0496,-4.0496,-4.0496,-4.0496,-4.0496,-4.0496,-4.0496,-4.0496,-4.0496,-4.0496,-4.0496,-4.0496,-4.0496,-4.0496,-4.0496,-4.0496,-4.0496,-4.0496,-4.0496,-4.0496,-4.0496,-4.0496,-4.0496,-4.0496,-4.0496,-4.0496,-4.0496,-4.0496,-4.0496,-4.0496,-4.0496,-4.0496,-4.0496,-4.0496,-4.0496,-4.0496,-4.0496,-4.0496,-4.015,-3.9727,-3.8796,-3.7777,-3.7019,-3.6346,-3.5846,-3.55,-3.55,-3.55,-3.55,-3.55,-3.55,-3.55,-3.55,-3.55,-3.55,-3.55,-3.55,-5.6003,-5.6003,-5.6003,-5.5826,-5.5514,-5.5155,-5.4324,-5.3338,-5.2868,-5.2207,-5.1351,-5.0482,-4.9394,-4.8047,-4.6795,-4.6325,-4.6302,-4.63,-4.6299,-4.6297,-4.6295,-4.6294,-4.6313,-4.6196,-4.5376,-4.4084,-4.3536,-4.283,-4.1988,-4.1454,-4.1239,-4.1581,-4.1249,-4.1505,-4.1583,-4.1059,-4.1616,-4.2263,-4.2632,-4.2162,-4.1585,-4.1566,-4.1643,-4.1219,-4.0758,-4.0535,-4.0496,-4.0496,-4.0496,-4.0496,-4.0496,-4.0496,-4.0496,-4.0496,-4.0496,-4.0496,-4.0496,-4.0496,-4.0496,-4.0496,-4.0496,-4.0496,-4.0496,-4.0496,-4.0496,-4.0496,-4.0496,-4.0496,-4.0496,-4.0496,-4.0496,-4.0496,-4.0496,-4.0496,-4.0496,-4.0496,-4.0496,-4.0496,-4.0496,-4.0496,-4.0496,-4.0496,-4.0496,-4.0496,-4.0496,-4.0496,-4.0496,-4.0496,-4.0496,-4.0496,-4.0496,-4.0496,-4.0496,-4.0496,-4.0496,-4.0477,-4.0015,-3.9515,-3.8707,-3.7738,-3.6885,-3.6231,-3.5731,-3.5488,-3.5488,-3.5488,-3.5488,-3.55,-3.55,-3.55,-3.55,-3.55,-3.55,-3.55,-3.55,-5.5567,-5.5412,-5.5606,-5.5307,-5.4636,-5.4463,-5.3728,-5.2745,-5.2427,-5.1999,-5.1242,-5.0218,-4.8824,-4.7461,-4.664,-4.6289,-4.6305,-4.6304,-4.6303,-4.6303,-4.6302,-4.6301,-4.6301,-4.6183,-4.5382,-4.3719,-4.407,-4.3188,-4.2052,-4.15,-4.1702,-4.1997,-4.1273,-4.1535,-4.1948,-4.1538,-4.1487,-4.2959,-4.35,-4.3088,-4.2351,-4.2144,-4.2032,-4.162,-4.1046,-4.0504,-4.0554,-4.0504,-4.0496,-4.0561,-4.0504,-4.0496,-4.0496,-4.0496,-4.0496,-4.0496,-4.0496,-4.0496,-4.0496,-4.0496,-4.0496,-4.0496,-4.0496,-4.0496,-4.0496,-4.0496,-4.0496,-4.0496,-4.0496,-4.0496,-4.0496,-4.0496,-4.0496,-4.0496,-4.0496,-4.0496,-4.0496,-4.0496,-4.0496,-4.0496,-4.0496,-4.0496,-4.0496,-4.0496,-4.0496,-4.0496,-4.0496,-4.0496,-4.0496,-4.0496,-4.0496,-4.0504,-4.0504,-4.0504,-4.0504,-4.0369,-3.99,-3.9253,-3.8426,-3.7495,-3.6526,-3.6007,-3.5615,-3.5488,-3.5501,-3.5515,-3.5541,-3.5521,-3.55,-3.55,-3.55,-3.55,-3.55,-3.55,-3.55,-5.4407,-5.3749,-5.4542,-5.439,-5.365,-5.2964,-5.2674,-5.2438,-5.1811,-5.1472,-5.0945,-4.968,-4.811,-4.681,-4.6482,-4.6347,-4.6347,-4.6307,-4.6287,-4.6306,-4.6304,-4.6303,-4.6303,-4.6049,-4.5443,-4.4074,-4.4133,-4.3584,-4.2584,-4.1861,-4.1656,-4.1246,-4.1128,-4.1061,-4.131,-4.1451,-4.1368,-4.2549,-4.3146,-4.3462,-4.3034,-4.2868,-4.264,-4.1836,-4.107,-4.0561,-4.0673,-4.0583,-4.0564,-4.0654,-4.0591,-4.0549,-4.0557,-4.0557,-4.0537,-4.0557,-4.0554,-4.0527,-4.0527,-4.0504,-4.0496,-4.0496,-4.0496,-4.0496,-4.0496,-4.0496,-4.0496,-4.0496,-4.0496,-4.0496,-4.0496,-4.0496,-4.0496,-4.0496,-4.0496,-4.0496,-4.0496,-4.0496,-4.0496,-4.0496,-4.0512,-4.0554,-4.0554,-4.0569,-4.0504,-4.0504,-4.0496,-4.0496,-4.0496,-4.0496,-4.0523,-4.0531,-4.0531,-4.0531,-4.0519,-4.0207,-3.968,-3.8901,-3.804,-3.7011,-3.5951,-3.5617,-3.5521,-3.5541,-3.5554,-3.5565,-3.5577,-3.5554,-3.5534,-3.5494,-3.55,-3.55,-3.55,-3.55,-3.55,-5.3506,-5.2724,-5.3072,-5.3046,-5.279,-5.2589,-5.2241,-5.1821,-5.1516,-5.0731,-4.9833,-4.9054,-4.8184,-4.7217,-4.6517,-4.6638,-4.6933,-4.6484,-4.6367,-4.6289,-4.6288,-4.6289,-4.6289,-4.6055,-4.5428,-4.4118,-4.402,-4.3296,-4.1711,-4.1807,-4.1513,-4.1148,-4.1096,-4.1422,-4.1567,-4.1789,-4.2022,-4.2219,-4.3137,-4.3821,-4.3279,-4.3221,-4.3079,-4.2718,-4.1255,-4.079,-4.0738,-4.0674,-4.0681,-4.07,-4.0668,-4.0668,-4.0668,-4.0662,-4.0662,-4.0655,-4.0635,-4.0619,-4.0591,-4.0561,-4.0496,-4.0496,-4.0496,-4.0496,-4.0496,-4.0496,-4.0496,-4.0496,-4.0496,-4.0496,-4.0496,-4.0496,-4.0496,-4.0496,-4.0496,-4.0496,-4.0512,-4.0527,-4.0542,-4.0564,-4.0605,-4.0653,-4.0646,-4.0646,-4.0576,-4.0531,-4.0504,-4.0496,-4.0512,-4.0542,-4.0571,-4.0593,-4.06,-4.0635,-4.0648,-4.0108,-3.947,-3.8595,-3.7694,-3.6736,-3.583,-3.5643,-3.5584,-3.5602,-3.5595,-3.5599,-3.5618,-3.5596,-3.556,-3.5522,-3.5508,-3.55,-3.55,-3.55,-3.55,-5.2589,-5.1834,-5.1796,-5.1865,-5.1955,-5.2064,-5.1793,-5.1372,-5.1379,-5.0614,-4.9208,-4.915,-4.873,-4.7919,-4.7141,-4.697,-4.7187,-4.6758,-4.6406,-4.6289,-4.6289,-4.6289,-4.6289,-4.6035,-4.541,-4.4121,-4.3887,-4.3279,-4.1714,-4.1539,-4.1576,-4.1531,-4.1244,-4.1445,-4.1727,-4.2247,-4.2437,-4.2744,-4.3335,-4.443,-4.3978,-4.3588,-4.3325,-4.2997,-4.1643,-4.0895,-4.0793,-4.0748,-4.0767,-4.079,-4.0779,-4.0775,-4.0779,-4.0807,-4.0807,-4.0784,-4.0756,-4.072,-4.068,-4.0583,-4.0496,-4.0496,-4.0496,-4.0496,-4.0496,-4.0496,-4.0496,-4.0496,-4.0496,-4.0496,-4.0496,-4.0496,-4.0496,-4.0496,-4.0496,-4.0504,-4.0564,-4.0593,-4.0614,-4.0641,-4.0675,-4.0725,-4.0732,-4.07,-4.0628,-4.0586,-4.0591,-4.0591,-4.0605,-4.064,-4.0668,-4.0694,-4.0707,-4.075,-4.0751,-4.0037,-3.9284,-3.846,-3.7586,-3.6709,-3.6008,-3.5789,-3.5612,-3.5601,-3.5618,-3.5643,-3.5626,-3.557,-3.5565,-3.556,-3.5515,-3.55,-3.55,-3.55,-3.55,-5.1738,-5.0956,-5.0975,-5.1051,-5.1218,-5.1214,-5.1291,-5.1287,-5.136,-5.0848,-4.9989,-4.995,-4.951,-4.8701,-4.7747,-4.7497,-4.7324,-4.6719,-4.6289,-4.6289,-4.6289,-4.6289,-4.623,-4.5996,-4.5234,-4.4277,-4.3906,-4.3398,-4.2147,-4.1951,-4.2048,-4.1908,-4.1413,-4.1218,-4.1161,-4.1041,-4.1762,-4.3025,-4.3379,-4.4282,-4.4694,-4.4016,-4.3525,-4.3015,-4.1733,-4.0911,-4.0889,-4.0844,-4.0864,-4.0891,-4.0845,-4.0819,-4.0844,-4.0849,-4.0844,-4.0814,-4.0798,-4.0761,-4.0707,-4.0583,-4.0534,-4.0512,-4.0512,-4.0519,-4.0504,-4.0496,-4.0496,-4.0496,-4.0496,-4.0504,-4.0504,-4.0512,-4.0519,-4.0545,-4.0559,-4.0581,-4.063,-4.0674,-4.0686,-4.0715,-4.0749,-4.08,-4.0804,-4.0771,-4.0674,-4.0642,-4.0661,-4.0687,-4.0707,-4.0707,-4.0736,-4.0787,-4.0784,-4.0607,-4.0471,-3.9854,-3.9116,-3.8292,-3.7404,-3.6473,-3.5979,-3.575,-3.5651,-3.5623,-3.5626,-3.5669,-3.5612,-3.5562,-3.5475,-3.5405,-3.5489,-3.55,-3.55,-3.5501,-3.5509,-5.1169,-5.0898,-5.0898,-5.0974,-5.1101,-5.1175,-5.1205,-5.1265,-5.1283,-5.091,-5.023,-5.0108,-4.9651,-4.884,-4.808,-4.7598,-4.7422,-4.6719,-4.6289,-4.6289,-4.6289,-4.6289,-4.6172,-4.5664,-4.4844,-4.3906,-4.3555,-4.291,-4.1543,-4.1699,-4.1641,-4.1464,-4.1399,-4.1433,-4.1543,-4.1466,-4.1634,-4.25,-4.3162,-4.3857,-4.4269,-4.3879,-4.3504,-4.3381,-4.1825,-4.1045,-4.1,-4.0951,-4.0967,-4.0984,-4.0918,-4.0917,-4.096,-4.0984,-4.0988,-4.0956,-4.0924,-4.0835,-4.0782,-4.0705,-4.063,-4.0575,-4.0566,-4.0574,-4.0519,-4.0496,-4.0496,-4.0519,-4.053,-4.054,-4.0602,-4.0629,-4.0662,-4.0715,-4.0724,-4.0724,-4.0775,-4.0776,-4.0781,-4.0805,-4.0855,-4.0894,-4.0918,-4.0902,-4.0825,-4.0775,-4.0784,-4.0773,-4.0779,-4.0782,-4.08,-4.0858,-4.0831,-4.0544,-4.0163,-3.9373,-3.863,-3.7825,-3.6956,-3.6048,-3.5728,-3.5708,-3.5664,-3.5643,-3.5664,-3.5664,-3.5435,-3.5237,-3.5243,-3.5232,-3.5111,-3.5257,-3.5402,-3.5485,-3.5575,-5.0898,-5.0898,-5.0898,-5.0792,-5.0694,-5.0728,-5.0767,-5.084,-5.0925,-5.0756,-5.0547,-5.0269,-4.9868,-4.9136,-4.82,-4.7614,-4.75,-4.6719,-4.6289,-4.6289,-4.6289,-4.6289,-4.6016,-4.5391,-4.4609,-4.3691,-4.2832,-4.2012,-4.1308,-4.123,-4.125,-4.1269,-4.1149,-4.131,-4.1473,-4.1359,-4.1716,-4.2633,-4.3493,-4.3891,-4.4067,-4.3846,-4.3468,-4.2882,-4.1954,-4.1106,-4.1083,-4.1074,-4.1057,-4.105,-4.1034,-4.101,-4.1091,-4.111,-4.111,-4.1055,-4.0976,-4.0889,-4.0844,-4.0866,-4.0772,-4.0633,-4.0697,-4.0686,-4.0623,-4.0629,-4.0623,-4.0616,-4.0597,-4.0648,-4.0713,-4.0749,-4.0761,-4.0818,-4.0822,-4.0822,-4.0875,-4.0871,-4.0896,-4.0912,-4.0947,-4.1003,-4.1025,-4.1022,-4.0983,-4.0954,-4.0926,-4.0885,-4.0864,-4.0872,-4.087,-4.0887,-4.0682,-4.0263,-3.9627,-3.8721,-3.8007,-3.7322,-3.6576,-3.5799,-3.5776,-3.5799,-3.5735,-3.5674,-3.5678,-3.5556,-3.5108,-3.4883,-3.467,-3.4499,-3.4362,-3.4656,-3.5175,-3.5321,-3.5368,-5.0898,-5.0898,-5.0879,-5.0444,-4.9905,-4.9897,-4.9964,-5.0139,-5.0202,-5.0639,-5.1214,-5.0354,-4.9872,-4.9607,-4.8279,-4.7557,-4.7344,-4.6621,-4.6387,-4.6289,-4.6289,-4.6289,-4.5957,-4.5273,-4.4394,-4.3594,-4.2734,-4.1797,-4.123,-4.1191,-4.1191,-4.1191,-4.1133,-4.1223,-4.1217,-4.1328,-4.1846,-4.2598,-4.3199,-4.3613,-4.3847,-4.3759,-4.3177,-4.2497,-4.1699,-4.1194,-4.1094,-4.109,-4.1095,-4.1105,-4.1091,-4.1095,-4.11,-4.111,-4.111,-4.1071,-4.0984,-4.0942,-4.0942,-4.0986,-4.0941,-4.0824,-4.0832,-4.0809,-4.0773,-4.0752,-4.0743,-4.0728,-4.0743,-4.0779,-4.0817,-4.0817,-4.0824,-4.0843,-4.085,-4.089,-4.0978,-4.0996,-4.1012,-4.1042,-4.1051,-4.1094,-4.1088,-4.1087,-4.108,-4.1053,-4.1013,-4.0995,-4.0974,-4.1003,-4.097,-4.0905,-4.0571,-3.9925,-3.9151,-3.8259,-3.7498,-3.6863,-3.6443,-3.5839,-3.5872,-3.5841,-3.5767,-3.5694,-3.5682,-3.5441,-3.4904,-3.4372,-3.3883,-3.3731,-3.3637,-3.4072,-3.4598,-3.4829,-3.4845,-5.0898,-5.084,-5.0279,-4.9959,-4.9743,-4.9264,-4.9435,-5.0102,-5.0692,-5.0915,-5.0458,-5.0232,-4.944,-4.8318,-4.7808,-4.7243,-4.6796,-4.6445,-4.6348,-4.6289,-4.6289,-4.6289,-4.5781,-4.4902,-4.4082,-4.3281,-4.2402,-4.1523,-4.1269,-4.1191,-4.1191,-4.1191,-4.1172,-4.1152,-4.1152,-4.1172,-4.1574,-4.2014,-4.2596,-4.3045,-4.3261,-4.3032,-4.2585,-4.2177,-4.1576,-4.1206,-4.1126,-4.1104,-4.1115,-4.1115,-4.11,-4.11,-4.1114,-4.1109,-4.1108,-4.1109,-4.107,-4.1031,-4.1053,-4.1065,-4.1051,-4.1025,-4.103,-4.0933,-4.0874,-4.0836,-4.0843,-4.0857,-4.0864,-4.0899,-4.0936,-4.0944,-4.0955,-4.0966,-4.097,-4.1017,-4.107,-4.1074,-4.1082,-4.1084,-4.1128,-4.1128,-4.1126,-4.1126,-4.1102,-4.1103,-4.11,-4.107,-4.1062,-4.1083,-4.0861,-4.0775,-4.0214,-3.9511,-3.8775,-3.7921,-3.7159,-3.6453,-3.6112,-3.5908,-3.5895,-3.5838,-3.5771,-3.5593,-3.5377,-3.5045,-3.4632,-3.3962,-3.3114,-3.3062,-3.3014,-3.3517,-3.3975,-3.4181,-3.4213,-5.0898,-5.0782,-5.0028,-4.9387,-4.8805,-4.8402,-4.8588,-4.9204,-4.9989,-5.0038,-4.9618,-4.9218,-4.8541,-4.7731,-4.7262,-4.6793,-4.6366,-4.6348,-4.6289,-4.6289,-4.6289,-4.5996,-4.5371,-4.4473,-4.3633,-4.2832,-4.207,-4.1269,-4.1191,-4.1191,-4.1191,-4.1191,-4.1191,-4.1191,-4.1191,-4.1191,-4.1172,-4.1538,-4.1906,-4.2266,-4.2363,-4.2324,-4.2226,-4.1894,-4.1367,-4.123,-4.1152,-4.1131,-4.1126,-4.1114,-4.1103,-4.1111,-4.1113,-4.1105,-4.1111,-4.1108,-4.1094,-4.1095,-4.1098,-4.1126,-4.1129,-4.1152,-4.1172,-4.1105,-4.1051,-4.1014,-4.0992,-4.0994,-4.099,-4.0992,-4.1044,-4.1076,-4.1104,-4.1129,-4.113,-4.113,-4.1131,-4.1131,-4.1132,-4.1132,-4.1152,-4.1152,-4.1152,-4.1152,-4.1151,-4.1151,-4.115,-4.1129,-4.1124,-4.1121,-4.0723,-4.0382,-3.9725,-3.8988,-3.825,-3.7547,-3.6802,-3.6253,-3.6115,-3.5931,-3.5916,-3.5795,-3.5674,-3.532,-3.4913,-3.4434,-3.3802,-3.3007,-3.2278,-3.226,-3.2219,-3.2467,-3.2966,-3.3505,-3.3448,-5.0859,-5.0693,-4.9857,-4.8651,-4.7451,-4.7508,-4.7638,-4.7682,-4.8505,-4.8748,-4.8621,-4.7991,-4.7663,-4.7241,-4.6773,-4.6481,-4.6287,-4.6289,-4.6289,-4.6289,-4.6289,-4.5957,-4.5117,-4.4199,-4.3555,-4.2558,-4.1816,-4.1445,-4.123,-4.1191,-4.1191,-4.1191,-4.1191,-4.1191,-4.1191,-4.1191,-4.1191,-4.1308,-4.1719,-4.2109,-4.2168,-4.2148,-4.1973,-4.1406,-4.1211,-4.1191,-4.1191,-4.1191,-4.1171,-4.1129,-4.1103,-4.1117,-4.1114,-4.1109,-4.1111,-4.1117,-4.1125,-4.1127,-4.1129,-4.1151,-4.1172,-4.1191,-4.1191,-4.1191,-4.1152,-4.1133,-4.1094,-4.1094,-4.1094,-4.1094,-4.1133,-4.1133,-4.1152,-4.1172,-4.1172,-4.1172,-4.1172,-4.1172,-4.1172,-4.1172,-4.1172,-4.1191,-4.1191,-4.1172,-4.1172,-4.1191,-4.1191,-4.1172,-4.0898,-4.0879,-4.0488,-3.9902,-3.9062,-3.832,-3.7727,-3.7024,-3.6418,-3.6026,-3.5996,-3.5989,-3.5964,-3.5788,-3.5576,-3.5007,-3.438,-3.3508,-3.2786,-3.2109,-3.1621,-3.1372,-3.1371,-3.1389,-3.1855,-3.2578,-3.2748,-5.0558,-4.9857,-4.8462,-4.7617,-4.7352,-4.7488,-4.7578,-4.7606,-4.7781,-4.7886,-4.7853,-4.7655,-4.7225,-4.667,-4.6478,-4.6303,-4.6305,-4.6289,-4.6289,-4.6289,-4.6289,-4.582,-4.5156,-4.4648,-4.3769,-4.2773,-4.2109,-4.1738,-4.1308,-4.1191,-4.1191,-4.1191,-4.1191,-4.1191,-4.1191,-4.1191,-4.1211,-4.123,-4.1406,-4.1621,-4.1621,-4.1523,-4.1308,-4.1191,-4.1191,-4.1191,-4.1171,-4.113,-4.1127,-4.1102,-4.1116,-4.1117,-4.1103,-4.1103,-4.1127,-4.1172,-4.1172,-4.1152,-4.1152,-4.1172,-4.1191,-4.1191,-4.1191,-4.1191,-4.1191,-4.1191,-4.1191,-4.1191,-4.1191,-4.1191,-4.1191,-4.1191,-4.1191,-4.1191,-4.1191,-4.1191,-4.1191,-4.1191,-4.1191,-4.1191,-4.1191,-4.1191,-4.1191,-4.1191,-4.1191,-4.1191,-4.1191,-4.1016,-4.0391,-4.0117,-3.9883,-3.9277,-3.8301,-3.7559,-3.7031,-3.6699,-3.6191,-3.6016,-3.5996,-3.6016,-3.5976,-3.5547,-3.5098,-3.4453,-3.3769,-3.291,-3.2148,-3.1582,-3.1133,-3.0918,-3.0898,-3.1094,-3.1094,-3.1641,-3.1836,-4.9533,-4.8987,-4.7759,-4.7042,-4.6803,-4.6891,-4.6952,-4.7018,-4.7022,-4.7006,-4.7029,-4.6986,-4.6734,-4.6311,-4.6296,-4.6301,-4.6302,-4.6287,-4.6289,-4.6289,-4.6191,-4.5723,-4.5332,-4.5019,-4.418,-4.3203,-4.2519,-4.1992,-4.1387,-4.1191,-4.1191,-4.1191,-4.1191,-4.1191,-4.1191,-4.1191,-4.1191,-4.1191,-4.1191,-4.1191,-4.1191,-4.1191,-4.1191,-4.1191,-4.1191,-4.1172,-4.1171,-4.1151,-4.115,-4.1148,-4.1147,-4.1147,-4.115,-4.115,-4.1171,-4.1191,-4.1191,-4.1191,-4.1191,-4.1191,-4.1191,-4.1191,-4.1191,-4.1191,-4.1191,-4.1191,-4.1191,-4.1191,-4.1191,-4.1191,-4.1191,-4.1191,-4.1191,-4.1191,-4.1191,-4.1191,-4.1191,-4.1191,-4.1191,-4.1191,-4.1191,-4.1191,-4.1191,-4.1191,-4.1172,-4.1035,-4.1055,-4.0586,-3.998,-3.9238,-3.9023,-3.8652,-3.7676,-3.6992,-3.6543,-3.6309,-3.6113,-3.6016,-3.6016,-3.5703,-3.5469,-3.5039,-3.457,-3.373,-3.2988,-3.2324,-3.1641,-3.1191,-3.1035,-3.0918,-3.0898,-3.0937,-3.0918,-3.0918,-3.1191,-4.8372,-4.8101,-4.7291,-4.6634,-4.6147,-4.613,-4.6216,-4.6314,-4.6316,-4.6335,-4.6376,-4.6374,-4.6302,-4.629,-4.6294,-4.6297,-4.6302,-4.6306,-4.6288,-4.6289,-4.6289,-4.5723,-4.5351,-4.5078,-4.457,-4.3769,-4.2891,-4.2187,-4.1523,-4.1504,-4.1465,-4.1289,-4.1191,-4.1191,-4.1191,-4.1191,-4.1191,-4.1191,-4.1191,-4.1191,-4.1191,-4.1191,-4.1191,-4.1191,-4.1191,-4.1191,-4.1191,-4.1191,-4.1191,-4.1191,-4.1172,-4.1172,-4.1191,-4.1191,-4.1191,-4.1191,-4.1191,-4.1191,-4.1191,-4.1191,-4.1191,-4.1191,-4.1191,-4.1191,-4.1191,-4.1191,-4.1191,-4.1191,-4.1191,-4.1191,-4.1191,-4.1191,-4.1191,-4.1191,-4.1191,-4.1191,-4.1191,-4.1191,-4.1191,-4.1191,-4.1191,-4.1191,-4.1191,-4.1191,-4.1035,-4.0898,-4.0508,-4.0,-3.9394,-3.8535,-3.7969,-3.7676,-3.7051,-3.6465,-3.6113,-3.6055,-3.6016,-3.6016,-3.5937,-3.5449,-3.4902,-3.4238,-3.3555,-3.2793,-3.207,-3.168,-3.1387,-3.1035,-3.0918,-3.0918,-3.0918,-3.0918,-3.0918,-3.0918,-3.0918,-4.7985,-4.7296,-4.6532,-4.6166,-4.6117,-4.615,-4.6223,-4.6292,-4.6253,-4.6236,-4.6267,-4.6253,-4.6236,-4.6303,-4.629,-4.6296,-4.6301,-4.6305,-4.6288,-4.6289,-4.6289,-4.5723,-4.5371,-4.541,-4.5371,-4.4394,-4.3164,-4.2402,-4.1719,-4.1875,-4.1816,-4.125,-4.1211,-4.1191,-4.1191,-4.1191,-4.1191,-4.1191,-4.1191,-4.1191,-4.1191,-4.1191,-4.1191,-4.1191,-4.1191,-4.1191,-4.1191,-4.1191,-4.1191,-4.1191,-4.1191,-4.1191,-4.1191,-4.1191,-4.1191,-4.1191,-4.1191,-4.1191,-4.1191,-4.1191,-4.1191,-4.1191,-4.1191,-4.1191,-4.1191,-4.1191,-4.1191,-4.1191,-4.1191,-4.1191,-4.1191,-4.1191,-4.1191,-4.1191,-4.1191,-4.1191,-4.1191,-4.1191,-4.1191,-4.1191,-4.1191,-4.1191,-4.1191,-4.1055,-4.0723,-4.0449,-3.9941,-3.9355,-3.8359,-3.7637,-3.6992,-3.6719,-3.6445,-3.625,-3.6035,-3.6035,-3.6016,-3.6016,-3.5859,-3.5351,-3.4512,-3.3262,-3.2539,-3.2266,-3.1738,-3.1269,-3.0996,-3.0918,-3.0918,-3.0918,-3.0918,-3.0918,-3.0918,-3.0918,-3.0918]},{"header":{"parameterUnit":"m.s-1","parameterCategory":1,"la1":31.0,"la2":29.5877,"lo1":-88.7671,"lo2":-86.6584,"dy":0.0162,"dx":0.0185,"nx":115,"ny":88,"refTime":"2023-11-04T06:00:00:Z","depth":0,"parameterNumber":3,"parameterNumberName":"V-component_of_WINDS"},"data":[0.0,0.0,0.0,0.0,0.0,0.0,0.0,0.0,0.0,0.0,0.0,0.0,0.0,0.0,0.0,0.0,0.0,0.0,0.0,0.0,0.0,0.0,0.0,0.0,0.0,0.0,0.0,0.0,0.0,0.0,0.0,0.0,0.0,0.0,0.0,0.0,0.0,0.0,0.0,0.0,0.0,0.0,0.0,0.0,0.0,0.0,0.0,0.0,0.0,0.0,0.0,0.0,0.0,0.0,0.0,0.0,0.0,0.0,0.0,0.0,0.0,0.0,0.0,0.0,0.0,0.0,0.0,0.0,0.0,0.0,0.0,0.0,0.0,0.0,0.0,0.0,0.0,0.0,0.0,0.0,0.0,0.0,0.0,0.0,0.0,0.0,0.0,0.0,0.0,0.0,0.0,0.0,0.0,0.0,0.0,0.0,0.0,0.0,0.0,0.0,0.0,0.0,0.0,0.0,0.0,0.0,0.0,0.0,0.0,0.0,0.0,0.0,0.0,0.0,0.0,0.0,0.0,0.0,0.0,0.0,0.0,0.0,0.0,0.0,0.0,0.0,0.0,0.0,0.0,0.0,0.0,0.0,0.0,0.0,0.0,0.0,0.0,0.0,0.0,0.0,0.0,0.0,0.0,0.0,0.0,0.0,0.0,0.0,0.0,0.0,0.0,0.0,0.0,0.0,0.0,0.0,0.0,0.0,0.0,0.0,0.0,0.0,0.0,0.0,0.0,0.0,0.0,0.0,0.0,0.0,0.0,0.0,0.0,0.0,0.0,0.0,0.0,0.0,0.0,0.0,0.0,0.0,0.0,0.0,0.0,0.0,0.0,0.0,0.0,0.0,0.0,0.0,0.0,0.0,0.0,0.0,0.0,0.0,0.0,0.0,0.0,0.0,0.0,0.0,0.0,0.0,0.0,0.0,0.0,0.0,0.0,0.0,0.0,0.0,0.0,0.0,0.0,0.0,0.0,0.0,0.0,0.0,0.0,0.0,0.0,0.0,0.0,0.0,0.0,0.0,0.0,0.0,0.0,0.0,0.0,0.0,0.0,0.0,0.0,0.0,0.0,0.0,0.0,0.0,0.0,0.0,0.0,0.0,0.0,0.0,0.0,0.0,0.0,0.0,0.0,0.0,0.0,0.0,0.0,0.0,0.0,0.0,0.0,0.0,0.0,0.0,0.0,0.0,0.0,0.0,0.0,0.0,0.0,0.0,0.0,0.0,0.0,0.0,0.0,0.0,0.0,0.0,0.0,0.0,0.0,0.0,0.0,0.0,0.0,0.0,0.0,0.0,0.0,0.0,0.0,0.0,0.0,0.0,0.0,0.0,0.0,0.0,0.0,0.0,0.0,0.0,0.0,0.0,0.0,0.0,0.0,0.0,0.0,0.0,0.0,0.0,0.0,0.0,0.0,0.0,0.0,0.0,0.0,0.0,0.0,0.0,0.0,0.0,0.0,0.0,0.0,0.0,0.0,0.0,0.0,0.0,0.0,0.0,0.0,0.0,0.0,0.0,0.0,0.0,0.0,0.0,0.0,0.0,0.0,0.0,0.0,0.0,0.0,0.0,0.0,0.0,0.0,0.0,0.0,0.0,0.0,0.0,0.0,0.0,0.0,0.0,0.0,0.0,0.0,0.0,0.0,0.0,0.0,0.0,0.0,0.0,0.0,0.0,0.0,0.0,0.0,0.0,0.0,0.0,0.0,0.0,0.0,0.0,0.0,0.0,0.0,0.0,0.0,0.0,0.0,0.0,0.0,0.0,0.0,0.0,0.0,0.0,0.0,0.0,0.0,0.0,0.0,0.0,0.0,0.0,0.0,0.0,0.0,0.0,0.0,0.0,0.0,0.0,0.0,0.0,0.0,0.0,0.0,0.0,0.0,0.0,0.0,0.0,0.0,0.0,0.0,0.0,0.0,0.0,0.0,0.0,0.0,0.0,0.0,0.0,0.0,0.0,0.0,0.0,0.0,0.0,0.0,0.0,0.0,0.0,0.0,0.0,0.0,0.0,0.0,0.0,0.0,0.0,0.0,0.0,0.0,0.0,0.0,0.0,0.0,0.0,0.0,0.0,0.0,0.0,0.0,0.0,0.0,0.0,0.0,0.0,0.0,0.0,0.0,0.0,0.0,0.0,0.0,0.0,0.0,0.0,0.0,0.0,0.0,0.0,0.0,0.0,0.0,0.0,0.0,0.0,0.0,0.0,0.0,0.0,0.0,0.0,0.0,0.0,0.0,0.0,0.0,0.0,0.0,0.0,0.0,0.0,0.0,0.0,0.0,0.0,0.0,0.0,0.0,0.0,0.0,0.0,0.0,0.0,0.0,0.0,0.0,0.0,0.0,0.0,0.0,0.0,0.0,0.0,0.0,0.0,0.0,0.0,0.0,0.0,0.0,0.0,0.0,0.0,0.0,0.0,0.0,0.0,0.0,0.0,0.0,0.0,0.0,0.0,0.0,0.0,0.0,0.0,0.0,0.0,0.0,0.0,0.0,0.0,0.0,0.0,0.0,0.0,0.0,0.0,0.0,0.0,0.0,0.0,0.0,0.0,0.0,0.0,0.0,0.0,0.0,0.0,0.0,0.0,0.0,0.0,0.0,0.0,0.0,0.0,0.0,0.0,0.0,0.0,0.0,0.0,0.0,0.0,0.0,0.0,0.0,0.0,0.0,0.0,0.0,0.0,0.0,0.0,0.0,0.0,0.0,0.0,0.0,0.0,0.0,0.0,0.0,0.0,0.0,0.0,0.0,0.0,0.0,0.0,0.0,0.0,0.0,0.0,0.0,0.0,0.0,0.0,0.0,0.0,0.0,0.0,0.0,0.0,0.0,0.0,0.0,0.0,0.0,0.0,0.0,0.0,0.0,0.0,0.0,0.0,0.0,0.0,0.0,0.0,0.0,0.0,0.0,0.0,0.0,0.0,0.0,0.0,0.0,0.0,0.0,0.0,0.0,0.0,0.0,0.0,0.0,0.0,0.0,0.0,0.0,0.0,0.0,0.0,0.0,0.0,0.0,0.0,0.0,0.0,0.0,0.0,0.0,0.0,0.0,0.0,0.0,0.0,0.0,0.0,0.0,0.0,0.0,0.0,0.0,0.0,0.0,0.0,0.0,0.0,0.0,0.0,0.0,0.0,0.0,0.0,0.0,0.0,0.0,0.0,0.0,0.0,0.0,0.0,0.0,0.0,0.0,0.0,0.0,0.0,0.0,0.0,0.0,0.0,0.0,0.0,0.0,0.0,0.0,0.0,0.0,0.0,0.0,0.0,0.0,0.0,0.0,0.0,0.0,0.0,0.0,0.0,0.0,0.0,0.0,0.0,0.0,0.0,0.0,0.0,0.0,0.0,0.0,0.0,0.0,0.0,0.0,0.0,0.0,0.0,0.0,0.0,0.0,0.0,0.0,0.0,0.0,0.0,0.0,0.0,0.0,0.0,0.0,0.0,0.0,0.0,0.0,0.0,0.0,0.0,0.0,0.0,0.0,0.0,0.0,0.0,0.0,0.0,0.0,0.0,0.0,0.0,0.0,0.0,0.0,0.0,0.0,0.0,0.0,0.0,0.0,0.0,0.0,0.0,0.0,0.0,0.0,0.0,0.0,0.0,0.0,0.0,0.0,0.0,0.0,0.0,0.0,0.0,0.0,0.0,0.0,0.0,0.0,0.0,0.0,0.0,0.0,0.0,0.0,0.0,0.0,0.0,0.0,0.0,0.0,0.0,0.0,0.0,0.0,0.0,0.0,0.0,0.0,0.0,0.0,0.0,0.0,0.0,0.0,0.0,0.0,0.0,0.0,0.0,0.0,0.0,0.0,0.0,0.0,0.0,0.0,0.0,0.0,0.0,0.0,0.0,0.0,0.0,0.0,0.0,0.0,0.0,0.0,0.0,0.0,0.0,0.0,0.0,0.0,0.0,0.0,0.0,0.0,0.0,0.0,0.0,0.0,0.0,0.0,0.0,0.0,0.0,0.0,0.0,0.0,0.0,0.0,0.0,0.0,0.0,0.0,0.0,0.0,0.0,0.0,0.0,0.0,0.0,0.0,0.0,0.0,0.0,0.0,0.0,0.0,0.0,0.0,0.0,0.0,0.0,0.0,0.0,0.0,0.0,0.0,0.0,0.0,0.0,0.0,0.0,0.0,0.0,0.0,0.0,0.0,0.0,0.0,0.0,0.0,0.0,0.0,0.0,0.0,0.0,0.0,0.0,0.0,0.0,0.0,0.0,0.0,0.0,0.0,0.0,0.0,0.0,0.0,0.0,0.0,0.0,0.0,0.0,-0.6387,0.0,0.0,0.0,0.0,0.0,0.0,0.0,0.0,0.0,0.0,0.0,0.0,0.0,0.0,0.0,0.0,0.0,0.0,0.0,0.0,0.0,0.0,0.0,0.0,0.0,0.0,0.0,0.0,0.0,0.0,0.0,0.0,0.0,0.0,0.0,0.0,0.0,0.0,0.0,0.0,0.0,0.0,0.0,0.0,0.0,0.0,0.0,0.0,0.0,0.0,0.0,0.0,0.0,0.0,0.0,0.0,0.0,0.0,0.0,0.0,0.0,0.0,0.0,0.0,0.0,0.0,0.0,0.0,0.0,0.0,0.0,0.0,0.0,0.0,0.0,0.0,0.0,0.0,0.0,0.0,0.0,0.0,0.0,0.0,0.0,0.0,0.0,0.0,0.0,0.0,0.0,0.0,0.0,0.0,0.0,0.0,0.0,0.0,0.0,0.0,0.0,0.0,0.0,0.0,0.0,0.0,0.0,0.0,0.0,0.0,-0.6317,-0.6284,-0.6284,-0.6251,-0.6119,0.0,0.0,0.0,0.0,0.0,0.0,0.0,0.0,0.0,0.0,0.0,0.0,0.0,0.0,0.0,0.0,0.0,0.0,0.0,0.0,0.0,0.0,0.0,0.0,0.0,0.0,0.0,0.0,0.0,0.0,0.0,0.0,0.0,0.0,0.0,0.0,0.0,0.0,0.0,0.0,0.0,0.0,0.0,0.0,0.0,0.0,0.0,0.0,0.0,0.0,0.0,0.0,0.0,0.0,0.0,0.0,0.0,0.0,0.0,0.0,0.0,0.0,0.0,0.0,0.0,0.0,0.0,0.0,0.0,0.0,0.0,0.0,0.0,0.0,0.0,0.0,0.0,0.0,0.0,0.0,0.0,0.0,0.0,0.0,0.0,0.0,0.0,0.0,0.0,0.0,0.0,0.0,0.0,0.0,0.0,0.0,0.0,0.0,0.0,0.0,0.0,0.0,0.0,0.0,0.0,0.0,0.0,0.0,0.0,0.0,0.0,0.0,-0.634,-0.624,-0.6111,0.0,0.0,0.0,0.0,0.0,0.0,0.0,0.0,0.0,0.0,0.0,0.0,0.0,0.0,0.0,0.0,0.0,0.0,0.0,0.0,0.0,0.0,0.0,0.0,0.0,0.0,0.0,0.0,0.0,0.0,0.0,0.0,0.0,0.0,0.0,0.0,0.0,0.0,0.0,0.0,0.0,0.0,0.0,0.0,0.0,0.0,0.0,0.0,0.0,0.0,0.0,0.0,0.0,0.0,0.0,0.0,0.0,0.0,0.0,0.0,0.0,0.0,0.0,0.0,0.0,0.0,0.0,0.0,0.0,0.0,0.0,0.0,0.0,0.0,0.0,0.0,0.0,0.0,0.0,0.0,0.0,0.0,0.0,0.0,0.0,0.0,0.0,0.0,0.0,0.0,0.0,0.0,0.0,0.0,0.0,0.0,0.0,0.0,0.0,0.0,0.0,0.0,0.0,0.0,0.0,0.0,0.0,0.0,0.0,0.0,-0.656,-0.6894,-0.6758,0.0,-0.6617,0.0,0.0,0.0,0.0,0.0,0.0,0.0,0.0,0.0,0.0,0.0,0.0,0.0,0.0,0.0,0.0,0.0,0.0,0.0,0.0,0.0,0.0,0.0,0.0,0.0,0.0,0.0,0.0,0.0,0.0,0.0,0.0,0.0,0.0,0.0,0.0,0.0,0.0,0.0,0.0,0.0,0.0,0.0,0.0,0.0,0.0,0.0,0.0,0.0,0.0,0.0,0.0,0.0,0.0,0.0,0.0,0.0,0.0,0.0,0.0,0.0,0.0,0.0,0.0,0.0,0.0,0.0,0.0,0.0,0.0,0.0,0.0,0.0,0.0,0.0,0.0,0.0,0.0,0.0,0.0,0.0,0.0,0.0,0.0,0.0,0.0,0.0,0.0,0.0,0.0,0.0,0.0,0.0,0.0,0.0,0.0,0.0,0.0,0.0,0.0,0.0,0.0,0.0,0.0,0.0,0.0,0.0,0.0,0.0,0.0,-0.6641,-0.6817,-0.6539,-0.6501,0.0,0.0,0.0,0.0,0.0,0.0,0.0,0.0,0.0,0.0,0.0,0.0,0.0,0.0,0.0,0.0,0.0,0.0,0.0,0.0,0.0,0.0,0.0,0.0,0.0,0.0,0.0,0.0,0.0,0.0,0.0,0.0,0.0,0.0,0.0,0.0,0.0,0.0,0.0,0.0,0.0,0.0,0.0,0.0,0.0,0.0,0.0,0.0,0.0,0.0,0.0,0.0,0.0,0.0,0.0,0.0,0.0,0.0,0.0,0.0,0.0,0.0,0.0,0.0,0.0,0.0,0.0,0.0,0.0,0.0,0.0,0.0,0.0,0.0,0.0,0.0,0.0,0.0,0.0,0.0,0.0,0.0,0.0,0.0,0.0,0.0,0.0,0.0,0.0,0.0,0.0,0.0,0.0,0.0,0.0,0.0,0.0,0.0,0.0,0.0,0.0,0.0,0.0,0.0,0.0,0.0,0.0,0.0,0.0,0.0,-0.678,-0.6769,-0.6749,-0.6541,-0.6429,-0.6471,0.0,0.0,0.0,0.0,0.0,0.0,0.0,0.0,0.0,0.0,0.0,0.0,0.0,0.0,0.0,0.0,0.0,0.0,0.0,0.0,0.0,0.0,0.0,0.0,0.0,0.0,0.0,0.0,0.0,0.0,0.0,0.0,0.0,0.0,0.0,0.0,0.0,0.0,0.0,0.0,0.0,0.0,0.0,0.0,0.0,0.0,0.0,0.0,0.0,0.0,0.0,0.0,0.0,0.0,0.0,0.0,0.0,0.0,0.0,0.0,0.0,0.0,0.0,0.0,0.0,0.0,0.0,0.0,0.0,0.0,0.0,0.0,0.0,0.0,0.0,0.0,0.0,0.0,0.0,0.0,0.0,0.0,0.0,0.0,0.0,0.0,0.0,0.0,0.0,0.0,0.0,0.0,0.0,0.0,0.0,0.0,0.0,0.0,0.0,0.0,0.0,0.0,0.0,0.0,0.0,0.0,0.0,0.0,-0.7469,-0.7186,-0.7012,-0.7003,-0.6971,-0.6642,0.0,0.0,0.0,0.0,0.0,0.0,0.0,0.0,0.0,0.0,0.0,0.0,0.0,0.0,0.0,0.0,0.0,0.0,0.0,0.0,0.0,0.0,0.0,0.0,0.0,0.0,0.0,0.0,0.0,0.0,0.0,0.0,0.0,0.0,0.0,0.0,0.0,0.0,0.0,0.0,0.0,0.0,0.0,0.0,0.0,0.0,0.0,0.0,0.0,0.0,0.0,0.0,0.0,0.0,0.0,0.0,0.0,0.0,0.0,0.0,0.0,0.0,0.0,0.0,0.0,0.0,0.0,0.0,0.0,0.0,0.0,0.0,0.0,0.0,0.0,0.0,0.0,0.0,0.0,0.0,0.0,0.0,0.0,0.0,0.0,0.0,0.0,0.0,0.0,0.0,0.0,0.0,0.0,0.0,0.0,0.0,0.0,0.0,0.0,0.0,0.0,0.0,0.0,0.0,0.0,0.0,0.0,0.0,0.0,-0.681,-0.6933,-0.7215,-0.7652,-0.7045,-0.6617,0.0,0.0,0.0,0.0,0.0,0.0,0.0,0.0,0.0,0.0,0.0,0.0,0.0,0.0,0.0,0.0,0.0,0.0,0.0,0.0,0.0,0.0,0.0,0.0,0.0,0.0,0.0,0.0,0.0,0.0,0.0,0.0,0.0,0.0,0.0,0.0,0.0,0.0,0.0,0.0,0.0,0.0,0.0,0.0,0.0,0.0,0.0,0.0,0.0,0.0,0.0,0.0,0.0,0.0,0.0,0.0,0.0,0.0,0.0,0.0,0.0,0.0,0.0,0.0,0.0,0.0,0.0,0.0,0.0,0.0,0.0,0.0,0.0,0.0,0.0,0.0,0.0,0.0,0.0,0.0,0.0,0.0,0.0,0.0,0.0,0.0,0.0,0.0,0.0,0.0,0.0,0.0,0.0,0.0,0.0,0.0,0.0,0.0,0.0,0.0,0.0,0.0,0.0,0.0,0.0,0.0,0.0,0.0,0.0,-0.6793,0.0,-0.7517,-0.7807,-0.7147,-0.6595,0.0,0.0,0.0,0.0,0.0,0.0,0.0,0.0,0.0,0.0,0.0,0.0,0.0,0.0,0.0,0.0,0.0,0.0,0.0,0.0,0.0,0.0,0.0,0.0,0.0,0.0,0.0,0.0,0.0,0.0,0.0,0.0,0.0,0.0,0.0,0.0,0.0,0.0,0.0,0.0,0.0,0.0,0.0,0.0,0.0,0.0,0.0,0.0,0.0,0.0,0.0,0.0,0.0,0.0,0.0,0.0,0.0,0.0,0.0,0.0,0.0,0.0,0.0,0.0,0.0,0.0,0.0,0.0,0.0,0.0,0.0,0.0,0.0,0.0,0.0,0.0,0.0,0.0,0.0,0.0,0.0,0.0,0.0,0.0,0.0,0.0,0.0,0.0,0.0,0.0,0.0,0.0,0.0,0.0,0.0,0.0,0.0,0.0,0.0,0.0,0.0,0.0,0.0,0.0,0.0,0.0,0.0,0.0,-0.6789,-0.7535,-0.7875,-0.7798,-0.7313,-0.7283,-0.6641,0.0,0.0,0.0,0.0,0.0,0.0,0.0,0.0,0.0,0.0,0.0,0.0,0.0,0.0,0.0,0.0,0.0,0.0,0.0,0.0,0.0,0.0,0.0,0.0,0.0,0.0,0.0,0.0,0.0,0.0,0.0,0.0,0.0,0.0,0.0,0.0,0.0,0.0,0.0,0.0,0.0,0.0,0.0,0.0,0.0,0.0,0.0,0.0,0.0,0.0,0.0,0.0,0.0,0.0,0.0,0.0,0.0,0.0,0.0,0.0,0.0,0.0,0.0,0.0,0.0,0.0,0.0,0.0,0.0,0.0,0.0,0.0,0.0,0.0,0.0,0.0,0.0,0.0,0.0,0.0,0.0,0.0,0.0,0.0,0.0,0.0,0.0,0.0,0.0,0.0,0.0,0.0,0.0,0.0,0.0,0.0,0.0,0.0,0.0,0.0,0.0,0.0,0.0,0.0,0.0,0.0,0.0,0.0,0.0,-0.6992,-0.7207,-0.7451,-0.7611,-0.6949,-0.6473,0.0,0.0,0.0,0.0,0.0,0.0,0.0,0.0,0.0,0.0,0.0,0.0,0.0,0.0,0.0,0.0,0.0,0.0,0.0,0.0,0.0,0.0,0.0,0.0,0.0,0.0,0.0,0.0,0.0,0.0,0.0,0.0,0.0,0.0,0.0,0.0,0.0,0.0,0.0,0.0,0.0,0.0,0.0,0.0,0.0,0.0,0.0,0.0,0.0,0.0,0.0,0.0,0.0,0.0,0.0,0.0,0.0,0.0,0.0,0.0,0.0,0.0,0.0,0.0,0.0,0.0,0.0,0.0,0.0,0.0,0.0,0.0,0.0,0.0,0.0,0.0,0.0,0.0,0.0,0.0,0.0,0.0,0.0,0.0,0.0,0.0,0.0,0.0,0.0,0.0,0.0,0.0,0.0,0.0,0.0,0.0,0.0,0.0,0.0,0.0,0.0,0.0,0.0,0.0,0.0,0.0,0.0,0.0,0.0,-0.6793,-0.7138,-0.7398,-0.7584,-0.6932,-0.6547,-0.654,0.0,0.0,0.0,0.0,0.0,0.0,0.0,0.0,0.0,0.0,0.0,0.0,0.0,0.0,0.0,0.0,0.0,0.0,0.0,0.0,0.0,0.0,0.0,0.0,0.0,0.0,0.0,0.0,0.0,0.0,0.0,0.0,0.0,0.0,0.0,0.0,0.0,0.0,0.0,0.0,0.0,0.0,0.0,0.0,0.0,0.0,0.0,0.0,0.0,0.0,0.0,0.0,0.0,0.0,0.0,0.0,0.0,0.0,0.0,0.0,0.0,0.0,0.0,0.0,0.0,0.0,0.0,0.0,0.0,0.0,0.0,0.0,0.0,0.0,0.0,0.0,0.0,0.0,0.0,0.0,0.0,0.0,0.0,0.0,0.0,0.0,0.0,0.0,0.0,0.0,0.0,0.0,0.0,0.0,0.0,0.0,0.0,0.0,0.0,0.0,0.0,0.0,0.0,0.0,0.0,0.0,0.0,0.0,-0.6881,-0.7415,-0.7574,-0.7231,-0.7189,-0.6878,0.0,0.0,0.0,0.0,0.0,0.0,0.0,0.0,0.0,0.0,0.0,0.0,0.0,0.0,0.0,0.0,0.0,0.0,0.0,0.0,0.0,0.0,0.0,0.0,0.0,0.0,0.0,0.0,0.0,0.0,0.0,0.0,0.0,0.0,0.0,0.0,0.0,0.0,0.0,0.0,0.0,0.0,0.0,0.0,0.0,0.0,0.0,0.0,0.0,0.0,0.0,0.0,0.0,0.0,0.0,0.0,0.0,0.0,0.0,0.0,0.0,0.0,0.0,0.0,0.0,0.0,0.0,0.0,0.0,0.0,0.0,0.0,0.0,0.0,0.0,0.0,0.0,0.0,0.0,0.0,0.0,0.0,0.0,0.0,0.0,0.0,0.0,0.0,0.0,0.0,0.0,0.0,0.0,0.0,0.0,0.0,0.0,0.0,0.0,0.0,0.0,0.0,0.0,0.0,0.0,0.0,0.0,0.0,0.0,-0.648,-0.6757,-0.7033,-0.7326,-0.7099,-0.6806,0.0,0.0,0.0,0.0,0.0,0.0,0.0,0.0,0.0,0.0,0.0,0.0,0.0,0.0,0.0,0.0,0.0,0.0,0.0,0.0,0.0,0.0,0.0,0.0,0.0,0.0,0.0,0.0,0.0,0.0,0.0,0.0,0.0,0.0,0.0,0.0,0.0,0.0,0.0,0.0,0.0,0.0,0.0,0.0,0.0,0.0,0.0,0.0,0.0,0.0,0.0,0.0,0.0,0.0,0.0,0.0,0.0,0.0,0.0,0.0,0.0,0.0,0.0,0.0,0.0,0.0,0.0,0.0,0.0,0.0,0.0,0.0,0.0,0.0,0.0,0.0,0.0,0.0,0.0,0.0,0.0,0.0,0.0,0.0,0.0,0.0,0.0,0.0,0.0,0.0,0.0,0.0,0.0,0.0,0.0,0.0,0.0,0.0,0.0,0.0,0.0,0.0,0.0,0.0,0.0,0.0,0.0,0.0,-0.6738,-0.6441,-0.6462,-0.6656,-0.704,-0.6965,-0.6805,0.0,0.0,0.0,0.0,0.0,0.0,0.0,0.0,0.0,0.0,0.0,0.0,0.0,0.0,0.0,0.0,0.0,0.0,0.0,0.0,0.0,0.0,0.0,0.0,0.0,0.0,0.0,0.0,0.0,0.0,0.0,0.0,0.0,0.0,0.0,0.0,0.0,0.0,0.0,0.0,0.0,0.0,0.0,0.0,0.0,0.0,0.0,0.0,0.0,0.0,0.0,0.0,0.0,0.0,0.0,0.0,0.0,0.0,0.0,0.0,0.0,0.0,0.0,0.0,0.0,0.0,0.0,0.0,0.0,0.0,0.0,0.0,0.0,0.0,0.0,0.0,0.0,0.0,0.0,0.0,0.0,0.0,0.0,0.0,0.0,0.0,0.0,0.0,0.0,0.0,0.0,0.0,0.0,0.0,0.0,0.0,0.0,0.0,0.0,0.0,0.0,0.0,0.0,0.0,0.0,0.0,0.0,0.0,-0.6748,-0.6585,-0.6409,-0.6361,-0.6474,-0.6808,-0.6816,0.0,0.0,0.0,0.0,0.0,0.0,0.0,0.0,0.0,0.0,0.0,0.0,0.0,0.0,0.0,0.0,0.0,0.0,0.0,0.0,0.0,0.0,0.0,0.0,0.0,0.0,0.0,0.0,0.0,0.0,0.0,0.0,0.0,0.0,0.0,0.0,0.0,0.0,0.0,0.0,0.0,0.0,0.0,0.0,0.0,0.0,0.0,0.0,0.0,0.0,0.0,0.0,0.0,0.0,0.0,0.0,0.0,0.0,0.0,0.0,0.0,0.0,0.0,0.0,0.0,0.0,0.0,0.0,0.0,0.0,0.0,0.0,0.0,0.0,0.0,0.0,0.0,0.0,0.0,0.0,0.0,0.0,0.0,0.0,0.0,0.0,0.0,0.0,0.0,0.0,0.0,0.0,0.0,0.0,0.0,0.0,0.0,0.0,0.0,0.0,0.0,0.0,0.0,0.0,0.0,0.0,0.0,0.0,-0.6415,-0.6355,-0.6332,-0.6313,-0.6344,-0.6971,-0.704,0.0,0.0,0.0,0.0,0.0,0.0,0.0,0.0,0.0,0.0,0.0,0.0,0.0,0.0,0.0,0.0,0.0,0.0,0.0,0.0,0.0,0.0,0.0,0.0,0.0,0.0,0.0,0.0,0.0,0.0,0.0,0.0,0.0,0.0,0.0,0.0,0.0,0.0,0.0,0.0,0.0,0.0,0.0,0.0,0.0,0.0,0.0,0.0,-0.826,0.0,0.0,0.0,0.0,0.0,0.0,0.0,0.0,0.0,0.0,0.0,0.0,0.0,0.0,0.0,0.0,0.0,0.0,0.0,0.0,0.0,0.0,0.0,0.0,0.0,0.0,0.0,0.0,0.0,0.0,0.0,0.0,0.0,0.0,0.0,0.0,0.0,0.0,0.0,0.0,0.0,0.0,0.0,0.0,0.0,0.0,0.0,0.0,0.0,0.0,0.0,0.0,0.0,0.0,0.0,0.0,0.0,0.0,0.0,-0.6386,-0.6277,-0.6291,-0.63,-0.6328,-0.6849,-0.6876,0.0,0.0,0.0,0.0,0.0,0.0,0.0,0.0,0.0,0.0,0.0,0.0,0.0,0.0,0.0,0.0,0.0,0.0,0.0,0.0,0.0,0.0,0.0,0.0,0.0,0.0,0.0,0.0,0.0,0.0,0.0,0.0,0.0,0.0,0.0,0.0,0.0,0.0,0.0,0.0,0.0,0.0,0.0,0.0,0.0,0.0,0.0,0.0,0.0,0.0,0.0,0.0,0.0,0.0,0.0,0.0,0.0,0.0,0.0,0.0,0.0,0.0,0.0,0.0,0.0,0.0,0.0,0.0,0.0,0.0,0.0,0.0,0.0,0.0,0.0,0.0,0.0,0.0,0.0,0.0,0.0,0.0,0.0,0.0,0.0,0.0,0.0,0.0,0.0,0.0,0.0,0.0,0.0,0.0,0.0,0.0,0.0,0.0,0.0,0.0,0.0,0.0,0.0,0.0,0.0,0.0,0.0,-0.6478,-0.6483,-0.6316,-0.627,-0.63,-0.6296,-0.6633,-0.6599,-0.6234,0.0,0.0,0.0,0.0,0.0,0.0,0.0,0.0,0.0,0.0,0.0,0.0,0.0,0.0,0.0,0.0,0.0,0.0,0.0,0.0,0.0,0.0,0.0,0.0,0.0,0.0,0.0,0.0,0.0,0.0,0.0,0.0,0.0,0.0,0.0,0.0,0.0,0.0,-0.9106,-0.9297,0.0,0.0,0.0,0.0,0.0,0.0,0.0,0.0,-0.8809,0.0,0.0,0.0,0.0,0.0,0.0,0.0,0.0,0.0,0.0,0.0,0.0,0.0,0.0,0.0,0.0,0.0,0.0,0.0,0.0,0.0,0.0,0.0,0.0,0.0,0.0,0.0,0.0,0.0,0.0,0.0,0.0,0.0,0.0,0.0,0.0,0.0,0.0,0.0,0.0,0.0,0.0,0.0,0.0,0.0,0.0,0.0,0.0,0.0,0.0,0.0,0.0,0.0,0.0,0.0,0.0,-0.6278,-0.6337,-0.6352,-0.6287,-0.6282,-0.63,-0.6296,-0.6629,-0.6603,-0.6242,0.0,0.0,0.0,0.0,0.0,0.0,0.0,0.0,0.0,0.0,0.0,0.0,0.0,0.0,0.0,0.0,0.0,0.0,0.0,0.0,0.0,0.0,0.0,0.0,0.0,0.0,0.0,0.0,0.0,0.0,0.0,0.0,0.0,0.0,0.0,0.0,0.0,0.0,0.0,-0.976,-0.9981,0.0,0.0,0.0,0.0,0.0,0.0,0.0,0.0,-0.8791,0.0,0.0,0.0,0.0,0.0,0.0,0.0,0.0,0.0,0.0,0.0,0.0,0.0,0.0,0.0,0.0,0.0,0.0,0.0,0.0,0.0,0.0,0.0,0.0,0.0,0.0,0.0,0.0,0.0,0.0,0.0,0.0,0.0,0.0,0.0,0.0,0.0,0.0,0.0,0.0,0.0,0.0,0.0,0.0,0.0,0.0,0.0,0.0,0.0,0.0,0.0,0.0,0.0,0.0,0.0,-0.6228,-0.6289,-0.6287,-0.6286,-0.63,-0.63,-0.6293,-0.644,-0.6404,0.0,0.0,0.0,0.0,0.0,0.0,0.0,0.0,0.0,0.0,0.0,0.0,0.0,0.0,0.0,0.0,0.0,0.0,0.0,0.0,0.0,0.0,0.0,0.0,0.0,0.0,0.0,0.0,0.0,0.0,0.0,0.0,0.0,0.0,0.0,0.0,0.0,0.0,0.0,0.0,-0.9841,-0.9853,-0.9326,0.0,0.0,0.0,0.0,0.0,0.0,-0.9058,-0.9042,0.0,0.0,0.0,0.0,0.0,0.0,0.0,0.0,0.0,0.0,0.0,0.0,0.0,0.0,0.0,0.0,0.0,0.0,0.0,0.0,0.0,0.0,0.0,0.0,0.0,0.0,0.0,0.0,0.0,0.0,0.0,0.0,0.0,0.0,0.0,0.0,0.0,0.0,0.0,0.0,0.0,0.0,0.0,0.0,0.0,0.0,0.0,0.0,0.0,0.0,0.0,0.0,0.0,0.0,0.0,-0.6189,-0.6264,-0.6293,-0.6286,-0.63,-0.63,-0.6293,-0.6364,-0.6356,0.0,0.0,0.0,0.0,0.0,0.0,0.0,0.0,0.0,0.0,0.0,0.0,0.0,0.0,0.0,0.0,0.0,0.0,0.0,0.0,0.0,0.0,0.0,0.0,0.0,0.0,0.0,0.0,0.0,0.0,0.0,0.0,0.0,0.0,0.0,0.0,0.0,0.0,0.0,0.0,0.0,-0.9692,-0.9152,-0.9192,0.0,0.0,0.0,0.0,-0.9512,-0.9304,0.0,0.0,0.0,0.0,0.0,0.0,0.0,0.0,0.0,0.0,0.0,0.0,0.0,0.0,0.0,0.0,0.0,0.0,0.0,0.0,0.0,0.0,0.0,0.0,0.0,0.0,0.0,0.0,0.0,0.0,0.0,0.0,0.0,0.0,0.0,0.0,0.0,0.0,0.0,0.0,0.0,0.0,0.0,0.0,0.0,0.0,0.0,0.0,0.0,0.0,0.0,0.0,0.0,0.0,0.0,0.0,-0.6178,-0.6185,-0.6261,-0.6279,-0.63,-0.63,-0.6293,-0.6919,-0.6951,0.0,0.0,0.0,0.0,0.0,0.0,0.0,0.0,0.0,0.0,0.0,0.0,0.0,0.0,0.0,0.0,0.0,0.0,0.0,0.0,0.0,0.0,0.0,0.0,0.0,0.0,0.0,0.0,0.0,0.0,0.0,0.0,0.0,0.0,0.0,0.0,0.0,0.0,0.0,0.0,0.0,-1.0007,-0.9361,-0.9609,-1.0098,0.0,0.0,-0.9388,-0.971,-0.8985,0.0,0.0,0.0,0.0,0.0,0.0,0.0,0.0,0.0,0.0,0.0,0.0,0.0,0.0,0.0,0.0,0.0,0.0,0.0,0.0,0.0,0.0,0.0,0.0,0.0,0.0,0.0,0.0,0.0,0.0,0.0,0.0,0.0,0.0,0.0,0.0,0.0,0.0,0.0,0.0,0.0,0.0,0.0,0.0,0.0,0.0,0.0,0.0,0.0,0.0,0.0,0.0,0.0,0.0,0.0,-0.5986,-0.6334,-0.6299,-0.6277,-0.6293,-0.63,-0.63,-0.6296,-0.6788,-0.6779,0.0,0.0,0.0,0.0,0.0,0.0,0.0,0.0,0.0,0.0,0.0,0.0,0.0,0.0,0.0,0.0,0.0,0.0,0.0,0.0,0.0,0.0,0.0,0.0,0.0,0.0,0.0,0.0,0.0,0.0,0.0,0.0,0.0,0.0,0.0,0.0,0.0,0.0,0.0,0.0,0.0,0.0,-0.9736,-0.9967,0.0,0.0,0.0,-1.0007,-1.0466,0.0,0.0,0.0,0.0,0.0,0.0,0.0,0.0,0.0,0.0,0.0,0.0,0.0,0.0,0.0,0.0,0.0,0.0,0.0,0.0,0.0,0.0,0.0,0.0,0.0,0.0,0.0,0.0,0.0,0.0,0.0,0.0,0.0,0.0,0.0,0.0,0.0,0.0,0.0,0.0,0.0,0.0,0.0,0.0,0.0,0.0,0.0,0.0,0.0,0.0,0.0,0.0,0.0,0.0,0.0,0.0,0.0,-0.6486,-0.6366,-0.63,-0.63,-0.63,-0.63,-0.6289,-0.6651,0.0,0.0,0.0,0.0,0.0,0.0,0.0,0.0,0.0,0.0,0.0,0.0,0.0,0.0,0.0,0.0,0.0,0.0,0.0,0.0,0.0,0.0,0.0,0.0,0.0,0.0,0.0,-0.8135,0.0,0.0,0.0,0.0,0.0,0.0,0.0,0.0,0.0,0.0,0.0,0.0,0.0,0.0,-0.9956,-0.9935,-1.0143,-1.0275,0.0,0.0,-1.0635,-1.0972,-0.9621,-0.8871,0.0,0.0,0.0,0.0,0.0,0.0,0.0,0.0,0.0,0.0,0.0,0.0,0.0,0.0,0.0,0.0,0.0,0.0,0.0,0.0,0.0,0.0,0.0,0.0,0.0,0.0,0.0,0.0,0.0,0.0,0.0,0.0,0.0,0.0,0.0,0.0,0.0,0.0,0.0,0.0,0.0,0.0,0.0,0.0,0.0,0.0,0.0,0.0,0.0,0.0,0.0,0.0,0.0,0.0,0.0,-0.649,-0.6362,-0.63,-0.63,-0.63,-0.63,-0.6296,-0.6614,-0.6611,0.0,0.0,0.0,0.0,0.0,0.0,0.0,0.0,0.0,0.0,0.0,0.0,0.0,0.0,0.0,0.0,0.0,0.0,0.0,0.0,0.0,0.0,0.0,0.0,0.0,0.0,0.0,0.0,0.0,0.0,0.0,0.0,0.0,0.0,0.0,0.0,0.0,0.0,0.0,0.0,0.0,-0.9822,-0.9796,-1.0113,-1.0229,0.0,0.0,-1.1092,-1.0867,-0.9938,-0.9495,-1.023,0.0,0.0,0.0,0.0,0.0,0.0,0.0,0.0,0.0,0.0,0.0,0.0,0.0,0.0,0.0,0.0,0.0,0.0,0.0,0.0,0.0,0.0,0.0,0.0,0.0,0.0,0.0,0.0,0.0,0.0,0.0,0.0,0.0,0.0,0.0,0.0,0.0,0.0,0.0,0.0,0.0,0.0,0.0,0.0,0.0,0.0,0.0,0.0,0.0,0.0,0.0,0.0,0.0,-0.626,-0.6741,-0.645,-0.63,-0.63,-0.63,-0.63,-0.63,-0.6633,-0.6653,0.0,0.0,0.0,0.0,0.0,0.0,0.0,0.0,0.0,0.0,0.0,0.0,0.0,0.0,0.0,0.0,0.0,0.0,0.0,0.0,0.0,0.0,0.0,0.0,0.0,0.0,0.0,0.0,-0.8858,-0.9086,-0.9694,0.0,0.0,0.0,0.0,0.0,0.0,0.0,0.0,0.0,0.0,-1.0092,-1.0055,-1.0162,0.0,0.0,-1.0904,-1.1273,-1.1668,-1.0512,-0.9919,-1.0974,-1.0816,0.0,0.0,0.0,0.0,0.0,0.0,0.0,0.0,0.0,0.0,0.0,0.0,0.0,0.0,0.0,0.0,0.0,0.0,0.0,0.0,0.0,0.0,0.0,0.0,0.0,0.0,0.0,0.0,0.0,0.0,0.0,0.0,0.0,0.0,0.0,0.0,0.0,0.0,0.0,0.0,0.0,0.0,0.0,0.0,0.0,0.0,0.0,0.0,0.0,0.0,0.0,0.0,-0.6359,-0.6873,-0.6482,-0.63,-0.63,-0.63,-0.63,-0.6296,-0.6529,-0.6577,0.0,0.0,0.0,0.0,0.0,0.0,0.0,0.0,0.0,0.0,0.0,0.0,0.0,0.0,0.0,0.0,0.0,0.0,0.0,0.0,0.0,0.0,0.0,0.0,0.0,0.0,0.0,0.0,-0.9231,-0.9378,-0.9981,0.0,0.0,0.0,0.0,0.0,0.0,0.0,0.0,0.0,0.0,-1.0204,-1.0673,-1.0783,-1.0975,-1.1434,-1.1805,-1.2211,-1.2609,-1.1619,-1.1066,-1.1778,0.0,0.0,0.0,0.0,0.0,0.0,0.0,0.0,0.0,0.0,0.0,0.0,0.0,0.0,0.0,0.0,0.0,0.0,0.0,0.0,0.0,0.0,0.0,0.0,0.0,0.0,0.0,0.0,0.0,0.0,-0.2182,0.0,0.0,0.0,0.0,0.0,0.0,0.0,0.0,0.0,0.0,0.0,0.0,0.0,0.0,0.0,0.0,0.0,0.0,0.0,0.0,0.0,0.0,-0.6363,-0.6877,-0.6482,-0.63,-0.63,-0.63,-0.63,-0.63,-0.6293,-0.6297,-0.623,0.0,0.0,0.0,0.0,0.0,0.0,0.0,0.0,0.0,0.0,0.0,0.0,0.0,0.0,0.0,0.0,0.0,0.0,0.0,0.0,0.0,0.0,0.0,0.0,0.0,0.0,-0.9976,-1.0348,-1.0351,0.0,0.0,0.0,0.0,0.0,0.0,0.0,0.0,0.0,0.0,-1.0695,-1.0053,-1.1704,-1.2124,-1.2265,-1.2448,-1.3411,-1.4006,-1.3528,-1.3404,-1.3237,0.0,0.0,0.0,0.0,0.0,0.0,0.0,0.0,0.0,0.0,0.0,0.0,0.0,0.0,0.0,0.0,0.0,0.0,0.0,0.0,0.0,0.0,0.0,0.0,0.0,0.0,0.0,-0.0399,-0.039,0.0,0.0,0.0,0.0,0.0,0.0,0.0,0.0,0.0,0.0,0.0,-0.2366,-0.2663,0.0,0.0,0.0,0.0,0.0,0.0,0.0,0.0,0.0,0.0,0.0,0.0,-0.6466,-0.6857,-0.6479,-0.63,-0.63,-0.63,-0.63,-0.63,-0.63,-0.6266,-0.6197,0.0,0.0,0.0,0.0,0.0,0.0,0.0,0.0,0.0,0.0,0.0,0.0,0.0,0.0,0.0,0.0,0.0,0.0,0.0,0.0,0.0,0.0,0.0,0.0,0.0,-0.8733,0.0,0.0,0.0,0.0,0.0,0.0,0.0,0.0,0.0,0.0,0.0,-1.231,-1.198,-1.202,-1.2138,-1.2325,-1.2412,-1.2418,0.0,0.0,0.0,0.0,0.0,0.0,0.0,0.0,0.0,0.0,0.0,0.0,0.0,0.0,-1.2598,-1.1682,-1.1056,-1.069,-1.0755,0.0,0.0,0.0,0.0,0.0,0.0,0.0,0.0,0.0,0.0,0.0,0.0,0.0,0.0,0.0573,0.0,0.0224,0.0,0.0,0.0,0.0,0.0,0.0,0.0,0.0,-0.2366,-0.2335,-0.2223,-0.2449,-0.264,0.0,-0.2895,-0.3307,0.0,0.0,0.0,0.0,0.0,0.0,0.0,0.0,-0.6666,-0.7037,-0.6644,-0.6453,-0.6453,-0.6402,-0.6371,-0.6375,-0.6327,-0.628,-0.6224,-0.6371,-0.635,0.0,0.0,0.0,0.0,0.0,0.0,0.0,0.0,0.0,0.0,0.0,0.0,0.0,0.0,0.0,0.0,0.0,0.0,0.0,0.0,0.0,0.0,0.0,-0.8871,0.0,0.0,0.0,0.0,0.0,0.0,0.0,0.0,0.0,-1.2013,-1.2404,-1.2614,-1.2286,-1.2501,-1.2873,-1.3288,0.0,0.0,0.0,0.0,0.0,0.0,0.0,-1.4316,-1.4706,-1.3964,-1.3218,-1.2816,-1.3048,-1.3239,-1.3094,0.0,0.0,-1.2257,-1.1567,-1.1101,-1.1169,-1.1144,-1.1204,-1.1564,-1.1783,-1.1982,0.0,0.0,0.0,0.0,0.0,0.0,0.0,0.0,0.2013,0.1002,0.0,0.0354,0.0,0.0,0.0,0.0,0.0,-0.221,0.0,0.0,-0.1443,-0.1378,-0.2126,-0.1973,-0.2009,-0.2207,-0.2814,-0.3091,-0.3138,-0.3211,0.0,0.0,0.0,0.0,0.0,0.0,-0.7005,-0.7357,-0.6932,-0.6685,-0.6671,-0.6539,-0.6511,-0.6508,-0.6371,-0.6293,-0.6279,-0.6294,-0.6192,-0.602,-0.6303,0.0,0.0,0.0,0.0,0.0,0.0,0.0,0.0,0.0,0.0,0.0,0.0,0.0,0.0,0.0,0.0,0.0,0.0,0.0,0.0,-0.8533,0.0,0.0,0.0,0.0,0.0,0.0,0.0,0.0,0.0,0.0,-1.2086,-1.1928,-1.2165,-1.3114,0.0,0.0,0.0,0.0,-1.4208,-1.5984,-1.6454,-1.664,-1.6894,-1.6071,-1.5123,-1.441,0.0,0.0,-1.1882,-1.2899,-1.3576,-1.3216,-1.2904,-1.2835,-1.3295,-1.2773,-1.2434,-1.2587,-1.2099,-1.1893,-1.2204,-1.2308,-1.2603,0.3604,0.0,0.0,0.0,0.0,0.1315,0.1611,0.2617,0.1984,0.1407,0.0949,0.1277,0.0,0.0,0.0,0.0,0.0,0.0,-0.2331,-0.1921,-0.1882,-0.1733,-0.1396,-0.1503,-0.1586,-0.1646,-0.18,-0.1847,-0.1834,-0.186,-0.2951,-0.5017,0.0,0.0,0.0,0.0,-0.7011,-0.6961,-0.6719,-0.6528,-0.6429,-0.6444,-0.6515,-0.6515,-0.6375,-0.621,-0.6098,-0.6084,-0.6011,-0.5877,-0.5952,0.0,0.0,0.0,0.0,0.0,0.0,0.0,0.0,0.0,0.0,0.0,0.0,0.0,0.0,0.0,0.0,0.0,0.0,0.0,-0.8705,-0.884,-0.928,0.0,0.0,0.0,0.0,0.0,0.0,0.0,0.0,0.0,-1.2515,-1.3575,-1.4413,0.0,0.0,-1.5856,-1.6152,-1.5466,-1.4933,-1.4887,-1.4626,0.0,-1.3785,-1.3793,-1.3843,-1.3733,-1.3045,-1.2498,-1.2374,-1.2458,-1.2485,-1.2367,-1.239,-1.246,-1.2574,-1.2149,-1.1772,-1.1744,-1.1654,-1.1543,-1.1643,-1.172,-1.1802,0.5196,0.4643,0.3378,0.314,0.3377,0.2294,0.2519,0.3647,0.2757,0.192,0.1137,0.1524,0.0395,-0.1784,-0.1807,0.0,0.0,0.0,-0.2163,-0.1576,-0.1813,-0.1645,-0.1205,-0.1306,-0.1347,-0.1373,-0.1325,-0.1349,-0.1321,-0.1664,-0.2808,-0.4749,0.0,0.0,-0.7028,-0.7065,-0.7008,-0.6905,-0.6752,-0.6583,-0.6477,-0.6501,-0.6487,-0.6429,-0.6344,-0.619,-0.6034,-0.5969,-0.5861,-0.5734,-0.5763,-0.5812,0.0,0.0,0.0,0.0,0.0,0.0,0.0,0.0,0.0,0.0,0.0,-0.6887,0.0,0.0,0.0,0.0,-0.7328,-0.8157,-0.9133,-0.9385,0.0,0.0,0.0,0.0,0.0,0.0,0.0,-1.2893,-1.3318,-1.3389,-1.3099,-1.4137,-1.4682,-1.4072,-1.482,-1.5433,-1.5523,0.0,-1.4341,-1.4291,-1.4291,-1.4149,-1.3791,-1.3729,-1.3611,-1.3188,-1.2841,-1.2659,-1.2703,-1.2421,-1.2229,-1.2285,-1.2311,-1.2305,-1.2305,-1.2004,-1.1695,-1.1617,-1.1469,-1.143,-1.143,-1.1516,-1.1603,0.6635,0.6398,0.4168,0.3827,0.4715,0.3716,0.3854,0.4701,0.383,0.2316,0.0509,0.1254,0.0,-0.2617,-0.2613,0.0,-0.2074,-0.2026,-0.1824,-0.1397,-0.1397,-0.1382,-0.1313,-0.1315,-0.1315,-0.1313,-0.1378,-0.1377,-0.1353,-0.2106,-0.3137,-0.4299,-0.4205,-0.5132,-0.6972,-0.7047,-0.7086,-0.7114,-0.6996,-0.6827,-0.6702,-0.6539,-0.6443,-0.634,-0.631,-0.6183,-0.5979,-0.5874,-0.5728,-0.5572,-0.5698,-0.5724,-0.5646,0.0,0.0,0.0,0.0,0.0,0.0,0.0,0.0,0.0,0.0,0.0,0.0,0.0,0.0,0.0,-0.7424,0.0,-0.8809,-0.9802,0.0,0.0,0.0,-1.003,-0.9043,-1.0273,-1.1301,-1.1711,0.0,0.0,-1.3571,-1.3778,-1.3604,-1.2684,-1.2493,-1.2808,-1.3682,-1.3286,-1.3105,-1.417,-1.4751,-1.5226,-1.5095,-1.4678,-1.3874,-1.287,-1.2611,-1.2659,-1.2798,-1.2707,-1.262,-1.2747,-1.2538,-1.2345,-1.2338,-1.2311,-1.2218,-1.1951,-1.1703,-1.1516,-1.1509,-1.1737,-1.194,0.6757,0.67,0.6145,0.5866,0.5835,0.5057,0.4436,0.3954,0.2839,0.1725,0.0616,0.0488,-0.0245,-0.1296,-0.1657,-0.1739,-0.1645,-0.1665,-0.1604,-0.1459,-0.1459,-0.1444,-0.1372,-0.1438,-0.1437,-0.137,-0.1397,-0.1386,-0.138,-0.156,-0.2565,-0.424,-0.4376,-0.5424,-0.7383,-0.7615,-0.7477,-0.7118,-0.7071,-0.6951,-0.6688,-0.6487,-0.6443,-0.659,-0.6416,-0.617,-0.5867,-0.582,-0.5681,-0.5463,-0.5477,-0.5567,-0.5759,-0.589,0.0,0.0,0.0,0.0,0.0,0.0,0.0,0.0,0.0,-0.7787,-0.7632,0.0,-0.8427,0.0,-0.7851,-0.7588,-0.7757,-0.7951,0.0,0.0,-0.9653,-0.9877,-1.0277,-1.0575,-1.1102,-1.2052,-1.281,-1.31,-1.2693,-1.3077,-1.3054,-1.224,-1.3362,-1.4378,-1.4638,-1.4072,-1.3769,-1.4134,-1.3743,-1.3299,-1.3466,-1.322,-1.3014,-1.2664,-1.2617,-1.2611,-1.2651,-1.2758,-1.2831,-1.2883,-1.2769,-1.2703,-1.267,-1.2465,-1.2298,-1.2211,-1.2138,-1.2098,-1.2098,-1.2151,-1.2198,0.6885,0.6877,0.6825,0.6687,0.6452,0.5641,0.474,0.3857,0.2827,0.1629,0.0392,-0.0397,-0.0897,-0.1143,-0.1426,-0.1559,-0.1545,-0.1529,-0.1506,-0.1482,-0.1494,-0.1485,-0.1457,-0.1487,-0.1485,-0.1455,-0.1438,-0.1423,-0.141,-0.141,-0.2143,-0.3669,-0.4183,-0.5281,-0.6874,-0.7516,-0.7648,-0.7281,-0.7081,-0.6918,-0.6685,-0.6474,-0.6593,-0.6993,-0.6878,-0.6785,-0.6751,-0.6622,-0.6464,-0.6281,-0.6125,-0.6178,-0.6408,-0.6467,-0.6638,0.0,0.0,0.0,0.0,0.0,0.0,0.0,0.0,0.0,0.0,0.0,-0.8244,-0.835,-0.7788,-0.7561,-0.8029,-0.8205,-0.8463,-0.8953,-0.8981,-0.9126,-0.9437,-0.9736,-1.0264,-1.1249,-1.1986,-1.2298,-1.2005,-1.2446,-1.2674,-1.2258,-1.3165,-1.3849,-1.3796,-1.3488,-1.3366,-1.3474,-1.3253,-1.3097,-1.3248,-1.3274,-1.3274,-1.3267,-1.3274,-1.3267,-1.3267,-1.3244,-1.3199,-1.3226,-1.3074,-1.2938,-1.2811,-1.2663,-1.2509,-1.2338,-1.2305,-1.2305,-1.2305,-1.2305,-1.2305,0.7005,0.6999,0.6891,0.6839,0.6764,0.5924,0.5037,0.4082,0.3201,0.1768,-0.0101,-0.1146,-0.16,-0.1628,-0.162,-0.1605,-0.1632,-0.157,-0.1537,-0.1489,-0.1514,-0.151,-0.1483,-0.1516,-0.1516,-0.1487,-0.1483,-0.1467,-0.1396,-0.1392,-0.1925,-0.2945,-0.3785,-0.484,-0.6148,-0.7118,-0.7581,-0.7525,-0.7169,-0.6925,-0.6812,-0.6734,-0.6965,-0.7501,-0.7521,-0.7631,-0.7899,-0.7672,-0.7478,-0.7309,-0.7089,-0.701,-0.714,-0.725,-0.7395,0.0,-0.7782,0.0,0.0,0.0,0.0,0.0,0.0,0.0,0.0,-0.7412,-0.7728,-0.7621,-0.751,-0.775,-0.8468,-0.8903,-0.8808,-0.8034,-0.8189,-0.8245,-0.794,-0.8712,-0.9543,-1.0202,-1.1062,-1.1621,-1.1666,-1.2031,-1.2412,-1.2609,-1.2715,-1.2793,-1.2599,-1.2707,-1.2821,-1.274,-1.3249,-1.3698,-1.3939,-1.4055,-1.4055,-1.4068,-1.4041,-1.4088,-1.4055,-1.382,-1.366,-1.3633,-1.342,-1.3186,-1.2945,-1.2878,-1.2737,-1.2445,-1.2385,-1.2365,-1.2318,-1.2305,-1.2305,0.7177,0.7177,0.7152,0.7035,0.6948,0.6765,0.5739,0.4135,0.3452,0.1678,-0.0723,-0.139,-0.1661,-0.1683,-0.1638,-0.1627,-0.1692,-0.1568,-0.1528,-0.1518,-0.1476,-0.151,-0.1485,-0.1537,-0.1547,-0.1517,-0.1493,-0.1478,-0.1472,-0.1448,-0.2044,-0.3183,-0.3571,-0.4606,-0.6351,0.0,0.0,0.0,-0.7422,-0.736,-0.7417,-0.7691,-0.7901,-0.8128,-0.8026,0.0,-0.7894,-0.7846,-0.7664,-0.7322,-0.7358,0.0,0.0,0.0,0.0,0.0,0.0,0.0,0.0,0.0,0.0,0.0,-0.7741,-0.7554,-0.7124,-0.7807,-0.7967,-0.7311,-0.7416,-0.7311,-0.6694,-0.6726,-0.6804,-0.69,-0.7651,-0.8189,-0.8307,-0.9774,-1.0847,-1.0771,-1.1718,-1.233,-1.2178,-1.238,-1.2707,-1.3074,-1.3031,-1.308,-1.3368,-1.3242,-1.3244,-1.3487,-1.3774,-1.4015,-1.4075,-1.4088,-1.4088,-1.4088,-1.4088,-1.4088,-1.4082,-1.4048,-1.4001,-1.3988,-1.3761,-1.3507,-1.3427,-1.3287,-1.3026,-1.2764,-1.2697,-1.263,-1.2358,-1.2305,-1.2305,0.7241,0.0,0.7179,0.7177,0.0,0.701,0.5997,0.4245,0.3597,0.1761,-0.0882,-0.144,-0.1656,-0.1734,-0.1637,-0.1625,-0.1637,-0.1592,-0.1547,-0.1506,-0.1502,-0.1547,-0.1505,-0.1566,-0.1578,-0.1548,-0.1517,-0.1495,-0.1479,-0.145,-0.1739,-0.238,-0.3432,-0.4459,-0.54,-0.6478,-0.7176,-0.76,-0.7438,-0.7353,-0.7364,-0.7439,-0.7671,-0.8045,-0.7963,0.0,0.0,0.0,0.0,0.0,0.0,0.0,0.0,-0.7147,0.0,-0.7172,-0.719,-0.7164,-0.7116,-0.6966,-0.6887,-0.6849,-0.6819,-0.6897,-0.7087,-0.7108,-0.6939,-0.65,-0.6611,-0.6542,-0.6127,-0.6138,-0.6341,-0.6681,-0.7322,-0.8077,-0.8968,-1.0003,-1.0875,-1.1384,-1.2117,-1.2613,-1.2538,-1.2908,-1.3188,-1.3454,-1.3522,-1.3616,-1.3824,-1.3661,-1.3587,-1.3851,-1.3997,-1.4088,-1.4088,-1.4088,-1.4088,-1.4088,-1.4088,-1.4088,-1.4088,-1.4088,-1.4088,-1.4075,-1.3961,-1.3793,-1.3626,-1.348,-1.3333,-1.3046,-1.2891,-1.2757,-1.2576,-1.2405,-1.2305,0.7366,0.7304,0.726,0.7276,0.7209,0.6929,0.5761,0.3979,0.0,0.0,0.0,-0.138,-0.1642,-0.1719,-0.1633,-0.162,-0.1624,-0.1613,-0.1571,-0.1509,-0.1577,-0.1585,-0.1545,-0.1593,-0.1604,-0.1579,-0.1549,-0.1518,-0.1489,-0.1458,-0.1395,-0.157,-0.3087,-0.4111,-0.4512,-0.6204,-0.721,-0.7429,-0.7403,-0.7324,-0.7223,-0.7175,-0.7395,-0.7905,-0.7943,-0.8086,-0.8468,-0.8354,-0.8177,-0.8039,-0.7844,-0.763,-0.7515,-0.7507,-0.7539,-0.7605,-0.761,-0.7358,-0.6824,-0.6792,-0.6535,-0.5921,-0.5881,-0.6158,-0.6881,-0.6244,-0.5823,-0.5878,-0.593,-0.6098,-0.6242,-0.6403,-0.667,-0.7169,-0.7552,-0.8364,-0.9736,-1.034,-1.1046,-1.1896,-1.255,-1.2889,-1.2854,-1.3365,-1.3779,-1.3822,-1.3928,-1.4088,-1.4088,-1.3899,-1.3844,-1.4039,-1.4088,-1.4088,-1.4088,-1.4088,-1.4088,-1.4088,-1.4088,-1.4088,-1.4088,-1.4088,-1.4088,-1.4088,-1.4088,-1.3891,-1.3568,-1.3439,-1.3369,-1.2973,-1.2851,-1.2725,-1.2697,-1.2516,-1.2385,0.7494,0.7489,0.7475,0.7467,0.7401,0.6534,0.4817,0.2509,0.1126,-0.0053,-0.0935,-0.1451,-0.1671,-0.1695,-0.1641,-0.163,-0.1704,-0.1602,-0.1585,-0.1596,-0.1584,-0.1587,-0.1605,-0.1562,-0.1564,-0.1609,-0.158,-0.1549,-0.1519,-0.1489,-0.1461,-0.1484,-0.2152,-0.3314,-0.4875,-0.6384,-0.7129,-0.7149,-0.7526,-0.7723,-0.7722,-0.8062,-0.83,-0.8424,-0.8391,-0.8411,-0.8468,-0.8442,-0.8375,-0.8186,-0.815,-0.7808,-0.7137,-0.7141,-0.698,-0.6561,-0.6537,-0.6465,-0.6384,-0.6388,-0.635,-0.6235,-0.6235,-0.6215,-0.6155,-0.595,-0.5911,-0.6232,-0.6525,-0.69,-0.7227,-0.723,-0.7581,-0.8581,-0.9058,-0.9676,-1.0678,-1.1752,-1.2423,-1.2511,-1.3121,-1.3455,-1.3273,-1.3669,-1.3955,-1.3997,-1.4046,-1.4088,-1.4088,-1.4082,-1.4082,-1.4088,-1.4088,-1.4088,-1.4088,-1.4088,-1.4088,-1.4088,-1.4088,-1.4088,-1.4088,-1.4088,-1.4088,-1.4088,-1.4088,-1.3844,-1.3267,-1.3074,-1.2866,-1.23,-1.2384,-1.2615,-1.25,-1.2583,-1.265,0.7616,0.7608,0.7546,0.7519,0.7397,0.594,0.4184,0.2298,0.1048,0.0,-0.0831,-0.113,-0.1403,-0.1699,-0.166,-0.1666,-0.1762,-0.1733,-0.1658,-0.1642,-0.1643,-0.1634,-0.1618,-0.1566,-0.1566,-0.1564,-0.1585,-0.1564,-0.1548,-0.1504,-0.1474,-0.1551,-0.2703,-0.4117,-0.5544,-0.6609,-0.7095,-0.7095,-0.7294,-0.7433,-0.7429,-0.7615,-0.7746,-0.7746,-0.7746,-0.7749,-0.7749,-0.7749,-0.767,-0.7511,-0.7509,-0.7266,-0.6774,-0.6813,-0.6738,-0.6419,-0.6454,-0.6504,-0.6419,-0.634,-0.63,-0.63,-0.63,-0.6234,-0.6162,-0.6129,-0.618,-0.6388,-0.6581,-0.6784,-0.7057,-0.7123,-0.755,-0.838,-0.9063,-0.9895,-1.1024,-1.2021,-1.2776,-1.2998,-1.3435,-1.3519,-1.3094,-1.3307,-1.3483,-1.3525,-1.3779,-1.4088,-1.4088,-1.4088,-1.4088,-1.4088,-1.4088,-1.4088,-1.4088,-1.4088,-1.4088,-1.4088,-1.4088,-1.4088,-1.4088,-1.4088,-1.4088,-1.4088,-1.4088,-1.3822,-1.313,-1.3349,-1.3153,-1.265,-1.2765,-1.3009,-1.3024,-1.3041,-1.2852,0.7741,0.7728,0.7638,0.7346,0.6791,0.5373,0.3805,0.2249,0.1526,0.0603,-0.037,-0.0669,-0.1086,-0.1486,-0.1622,-0.1743,-0.1789,-0.1793,-0.1772,-0.1739,-0.1697,-0.168,-0.1639,-0.163,-0.1624,-0.1615,-0.1592,-0.1579,-0.1566,-0.1564,-0.1622,-0.2019,-0.356,-0.4917,-0.6086,-0.6741,-0.7095,-0.7095,-0.7095,-0.7095,-0.7095,-0.7095,-0.7095,-0.7095,-0.7095,-0.7095,-0.7095,-0.7095,-0.7045,-0.694,-0.6903,-0.682,-0.6644,-0.6654,-0.6647,-0.6549,-0.6634,-0.6651,-0.6573,-0.646,-0.6399,-0.6399,-0.6399,-0.6399,-0.6399,-0.6399,-0.6386,-0.6501,-0.6696,-0.6905,-0.7213,-0.7208,-0.764,-0.8815,-0.9101,-0.9923,-1.1327,-1.1935,-1.2406,-1.3052,-1.3222,-1.3045,-1.2833,-1.2747,-1.279,-1.2875,-1.3392,-1.3828,-1.387,-1.3955,-1.4088,-1.4088,-1.4088,-1.4088,-1.4088,-1.4088,-1.4088,-1.4088,-1.4088,-1.4088,-1.4088,-1.4088,-1.4088,-1.4088,-1.4088,-1.3779,-1.3215,-1.3392,-1.3392,-1.2838,-1.2836,-1.3083,-1.2892,-1.2766,-1.2759,0.7853,0.7856,0.7834,0.6805,0.5285,0.4982,0.3751,0.2052,0.1764,0.14,0.072,-0.0318,-0.0785,-0.0955,-0.1465,-0.1734,-0.171,-0.1709,-0.172,-0.179,-0.1716,-0.1701,-0.1691,-0.1721,-0.1643,-0.162,-0.1562,-0.1596,-0.157,-0.1536,-0.2005,-0.3022,-0.4072,-0.5095,-0.608,-0.6789,-0.7095,-0.7095,-0.7095,-0.7095,-0.7095,-0.7095,-0.7095,-0.7095,-0.7095,-0.7095,-0.7095,-0.7095,-0.7092,-0.7068,-0.6953,-0.6876,-0.6832,-0.6773,-0.6698,-0.6681,-0.6695,-0.6692,-0.6678,-0.6664,-0.6647,-0.6661,-0.6644,-0.6644,-0.6647,-0.6654,-0.6603,-0.6623,-0.7134,-0.7737,-0.8611,-0.809,-0.8662,-1.0792,-1.0096,-1.0,-1.166,-1.1752,-1.1671,-1.2406,-1.2277,-1.2063,-1.2448,-1.2272,-1.2095,-1.2095,-1.279,-1.3173,-1.3173,-1.3737,-1.4039,-1.4039,-1.4082,-1.4088,-1.4088,-1.4088,-1.4088,-1.4088,-1.4088,-1.4088,-1.4088,-1.4088,-1.4088,-1.3913,-1.4088,-1.3828,-1.3222,-1.3088,-1.2918,-1.2437,-1.2232,-1.2079,-1.1648,-1.1605,-1.1809,0.7933,0.7933,0.7933,0.7111,0.5796,0.5185,0.4134,0.2775,0.2108,0.1733,0.1435,0.0603,-0.016,-0.0851,-0.1427,-0.1703,-0.1784,-0.1785,-0.1802,-0.1828,-0.1745,-0.1721,-0.1702,-0.1728,-0.1646,-0.1619,-0.1566,-0.1601,-0.1617,-0.1665,-0.2215,-0.3192,-0.416,-0.5097,-0.6083,-0.6741,-0.7095,-0.7095,-0.7095,-0.7095,-0.7095,-0.7095,-0.7095,-0.7095,-0.7095,-0.7095,-0.7095,-0.7095,-0.7095,-0.7092,-0.7038,-0.697,-0.6889,-0.6906,-0.6922,-0.6844,-0.6837,-0.6834,-0.6792,-0.6753,-0.6702,-0.6702,-0.6702,-0.6702,-0.6705,-0.6783,-0.6803,-0.6808,-0.7007,-0.7403,-0.7801,-0.757,-0.8032,-0.9353,-0.9453,-0.9927,-1.0982,-1.1505,-1.1843,-1.21,-1.2015,-1.1757,-1.1714,-1.1542,-1.1413,-1.1537,-1.2272,-1.2784,-1.2571,-1.3349,-1.3828,-1.361,-1.3786,-1.4088,-1.4088,-1.4088,-1.4088,-1.4088,-1.4088,-1.4088,-1.4088,-1.4088,-1.3997,-1.3568,-1.3828,-1.3568,-1.2528,-1.3173,-1.3349,-1.2492,-1.1843,-1.1725,-1.1404,-1.1341,-1.1556,0.7933,0.7933,0.7933,0.7136,0.591,0.5233,0.4189,0.3011,0.2219,0.1894,0.1819,0.1185,0.0383,-0.0591,-0.1174,-0.1563,-0.1758,-0.1809,-0.1821,-0.179,-0.1827,-0.1742,-0.1705,-0.1684,-0.1654,-0.1622,-0.1566,-0.1597,-0.1656,-0.2037,-0.2623,-0.355,-0.4516,-0.5453,-0.6346,-0.6877,-0.7095,-0.7095,-0.7095,-0.7095,-0.7095,-0.7095,-0.7095,-0.7095,-0.7095,-0.7095,-0.7095,-0.7095,-0.7095,-0.7095,-0.7095,-0.7051,-0.6957,-0.7041,-0.7051,-0.6957,-0.6943,-0.6943,-0.694,-0.6881,-0.682,-0.682,-0.682,-0.6824,-0.6841,-0.6922,-0.694,-0.694,-0.6943,-0.7081,-0.7383,-0.7228,-0.7448,-0.8237,-0.9065,-0.954,-1.0289,-1.1073,-1.1456,-1.1671,-1.1451,-1.1284,-1.0857,-1.0727,-1.0727,-1.0852,-1.1671,-1.2448,-1.2229,-1.3003,-1.3652,-1.3349,-1.3652,-1.3828,-1.4046,-1.4088,-1.4088,-1.4088,-1.4088,-1.4004,-1.387,-1.3786,-1.3737,-1.3307,-1.361,-1.373,-1.3197,-1.3584,-1.3381,-1.2248,-1.153,-1.1174,-1.0621,-1.0725,-1.057,0.7933,0.7933,0.7933,0.6825,0.4988,0.4926,0.3883,0.2343,0.2003,0.1913,0.1825,0.1213,0.0563,-0.0109,-0.0645,-0.1193,-0.1725,-0.1816,-0.182,-0.1791,-0.1791,-0.1761,-0.1706,-0.1702,-0.1673,-0.1624,-0.1618,-0.1587,-0.1581,-0.2613,-0.3582,-0.4253,-0.5319,-0.6299,-0.6918,-0.7054,-0.7095,-0.7095,-0.7095,-0.7095,-0.7095,-0.7095,-0.7095,-0.7095,-0.7095,-0.7095,-0.7095,-0.7095,-0.7095,-0.7095,-0.7095,-0.7088,-0.7085,-0.7092,-0.7088,-0.7078,-0.7082,-0.7082,-0.7078,-0.7058,-0.7051,-0.7061,-0.7041,-0.7065,-0.7034,-0.7051,-0.7065,-0.7082,-0.7068,-0.7346,-0.7797,-0.7404,-0.7753,-0.9144,-0.8978,-0.9244,-1.012,-1.0207,-1.0424,-1.0809,-1.0593,-1.0294,-1.012,-1.0033,-1.0125,-1.0255,-1.0727,-1.1327,-1.1929,-1.2619,-1.3349,-1.3652,-1.3568,-1.3307,-1.3913,-1.3786,-1.387,-1.3955,-1.3786,-1.3913,-1.3392,-1.3045,-1.3045,-1.3045,-1.3264,-1.3555,-1.3776,-1.3474,-1.2697,-1.1735,-1.0835,-1.03,-0.974,-0.932,-0.9277,0.7933,0.7933,0.7933,0.7441,0.6705,0.5477,0.4496,0.3754,0.2429,0.1914,0.1766,0.1216,0.0568,-0.0056,-0.06,-0.1192,-0.1683,-0.1799,-0.1811,-0.1823,-0.1786,-0.1773,-0.1735,-0.1714,-0.1685,-0.1649,-0.1626,-0.1536,-0.1577,-0.2259,-0.3177,-0.4222,-0.5006,-0.5944,-0.6918,-0.7095,-0.7095,-0.7095,-0.7095,-0.7095,-0.7095,-0.7095,-0.7095,-0.7095,-0.7095,-0.7095,-0.7095,-0.7095,-0.7095,-0.7095,-0.7095,-0.7095,-0.7095,-0.7095,-0.7095,-0.7095,-0.7095,-0.7095,-0.7095,-0.7095,-0.7095,-0.7095,-0.7095,-0.7095,-0.7095,-0.7095,-0.7095,-0.7095,-0.7095,-0.7272,-0.736,-0.7228,-0.7356,-0.7969,-0.8412,-0.8723,-0.9205,-0.9641,-1.012,-1.025,-1.0125,-1.0038,-0.9994,-0.9994,-0.9994,-1.0081,-1.0939,-1.1456,-1.1628,-1.2613,-1.361,-1.3476,-1.3568,-1.3603,-1.3307,-1.296,-1.2833,-1.3222,-1.3349,-1.3652,-1.3434,-1.3483,-1.3568,-1.3124,-1.3167,-1.2932,-1.3096,-1.2052,-1.1393,-1.0959,-1.0084,-0.9483,-0.8898,-0.8796,-0.874,0.7933,0.7933,0.7933,0.7686,0.7197,0.56,0.4742,0.4307,0.2684,0.1924,0.177,0.1223,0.0573,0.0,-0.0609,-0.1201,-0.1667,-0.1731,-0.1789,-0.1792,-0.1766,-0.1814,-0.1779,-0.171,-0.1684,-0.165,-0.1627,-0.1585,-0.1578,-0.2209,-0.3172,-0.4253,-0.5008,-0.5897,-0.6918,-0.7095,-0.7095,-0.7095,-0.7095,-0.7095,-0.7095,-0.7095,-0.7095,-0.7095,-0.7095,-0.7095,-0.7095,-0.7095,-0.7095,-0.7095,-0.7095,-0.7095,-0.7095,-0.7095,-0.7095,-0.7095,-0.7095,-0.7095,-0.7095,-0.7095,-0.7095,-0.7095,-0.7095,-0.7095,-0.7095,-0.7095,-0.7095,-0.7095,-0.7095,-0.7095,-0.7095,-0.7095,-0.7095,-0.7183,-0.7845,-0.8328,-0.8372,-0.903,-0.9467,-0.9554,-0.9689,-0.9733,-0.9777,-0.9907,-0.9994,-0.9994,-1.0982,-1.1456,-1.1628,-1.2577,-1.3743,-1.3434,-1.3519,-1.344,-1.3137,-1.2662,-1.2534,-1.2833,-1.3392,-1.361,-1.3568,-1.3743,-1.3682,-1.3239,-1.2819,-1.2516,-1.1805,-1.0759,-1.0195,-0.9878,-0.9345,-0.8714,-0.8501,-0.8498,-0.8408,0.7933,0.7933,0.7933,0.7383,0.6464,0.5356,0.4372,0.3511,0.2466,0.1939,0.183,0.1236,0.0635,0.0,-0.0615,-0.122,-0.169,-0.172,-0.1709,-0.1712,-0.1794,-0.1778,-0.1728,-0.1695,-0.1674,-0.1623,-0.1618,-0.1585,-0.158,-0.266,-0.3582,-0.4367,-0.5458,-0.6346,-0.7095,-0.7095,-0.7095,-0.7095,-0.7095,-0.7095,-0.7095,-0.7095,-0.7095,-0.7095,-0.7095,-0.7095,-0.7095,-0.7095,-0.7095,-0.7095,-0.7095,-0.7095,-0.7095,-0.7095,-0.7095,-0.7095,-0.7095,-0.7095,-0.7095,-0.7095,-0.7095,-0.7095,-0.7095,-0.7095,-0.7095,-0.7095,-0.7095,-0.7095,-0.7095,-0.7095,-0.7095,-0.7095,-0.7095,-0.7139,-0.7584,-0.7893,-0.7937,-0.8285,-0.8636,-0.8767,-0.9078,-0.9257,-0.9388,-0.9559,-0.9816,-0.9994,-1.0554,-1.1284,-1.1714,-1.2528,-1.3222,-1.3652,-1.3307,-1.2705,-1.2577,-1.2485,-1.2571,-1.2705,-1.3349,-1.3743,-1.3349,-1.3343,-1.3237,-1.2849,-1.1603,-1.1222,-1.0803,-0.9845,-0.9404,-0.9019,-0.8467,-0.8141,-0.8115,-0.8055,-0.7944,0.7933,0.7933,0.7933,0.7319,0.6342,0.5356,0.4372,0.3388,0.2406,0.1943,0.1834,0.1296,0.0637,0.0,-0.0617,-0.1222,-0.1802,-0.1718,-0.1704,-0.171,-0.1789,-0.1782,-0.1697,-0.1699,-0.1673,-0.1625,-0.1566,-0.1697,-0.1998,-0.2826,-0.3748,-0.4624,-0.5581,-0.6438,-0.7051,-0.7095,-0.7095,-0.7095,-0.7095,-0.7095,-0.7095,-0.7095,-0.7095,-0.7095,-0.7095,-0.7095,-0.7095,-0.7095,-0.7095,-0.7095,-0.7095,-0.7095,-0.7095,-0.7095,-0.7095,-0.7095,-0.7095,-0.7095,-0.7095,-0.7095,-0.7095,-0.7095,-0.7095,-0.7095,-0.7095,-0.7095,-0.7095,-0.7095,-0.7095,-0.7095,-0.7095,-0.7095,-0.7095,-0.7095,-0.7496,-0.7764,-0.7808,-0.8245,-0.8548,-0.8592,-0.8727,-0.8815,-0.8811,-0.903,-0.9205,-0.9515,-1.012,-1.0852,-1.1714,-1.2057,-1.2577,-1.3137,-1.2443,-1.1794,-1.1623,-1.1574,-1.166,-1.188,-1.2528,-1.3088,-1.2869,-1.2681,-1.2614,-1.1998,-1.0781,-0.9973,-0.9503,-0.9014,-0.8528,-0.8252,-0.7851,-0.7727,-0.7714,-0.7638,-0.7522,0.7933,0.7933,0.7933,0.7322,0.6342,0.5293,0.431,0.3328,0.2407,0.1942,0.1775,0.1296,0.0637,-0.0056,-0.0617,-0.1227,-0.1763,-0.1724,-0.1704,-0.1706,-0.1722,-0.1712,-0.1677,-0.1671,-0.1656,-0.1624,-0.1566,-0.1751,-0.2013,-0.2883,-0.3765,-0.4702,-0.5647,-0.6438,-0.7051,-0.7095,-0.7095,-0.7095,-0.7095,-0.7095,-0.7095,-0.7095,-0.7095,-0.7095,-0.7095,-0.7095,-0.7095,-0.7095,-0.7095,-0.7095,-0.7095,-0.7095,-0.7095,-0.7095,-0.7095,-0.7095,-0.7095,-0.7095,-0.7095,-0.7095,-0.7095,-0.7095,-0.7095,-0.7095,-0.7095,-0.7095,-0.7095,-0.7095,-0.7095,-0.7095,-0.7095,-0.7095,-0.7095,-0.7095,-0.7316,-0.7496,-0.7584,-0.7845,-0.8021,-0.8021,-0.8153,-0.8285,-0.8285,-0.8548,-0.8684,-0.9078,-0.9641,-1.0154,-1.0971,-1.1311,-1.1746,-1.1918,-1.1526,-1.1009,-1.0626,-1.0626,-1.075,-1.1009,-1.1402,-1.1789,-1.1912,-1.1772,-1.1685,-1.0792,-0.9671,-0.9102,-0.8606,-0.7992,-0.7496,-0.733,-0.733,-0.7292,-0.7288,-0.7288,-0.7176,0.7933,0.7933,0.7933,0.7258,0.6219,0.5295,0.4249,0.3204,0.2283,0.1881,0.1776,0.1237,0.0694,0.0113,-0.0448,-0.1119,-0.1725,-0.173,-0.1701,-0.17,-0.1703,-0.1684,-0.1647,-0.1639,-0.1629,-0.1568,-0.1566,-0.175,-0.2061,-0.3027,-0.3811,-0.4796,-0.5739,-0.6482,-0.701,-0.7095,-0.7095,-0.7095,-0.7095,-0.7095,-0.7095,-0.7095,-0.7095,-0.7095,-0.7095,-0.7095,-0.7095,-0.7095,-0.7095,-0.7095,-0.7095,-0.7095,-0.7095,-0.7095,-0.7095,-0.7095,-0.7095,-0.7095,-0.7095,-0.7095,-0.7095,-0.7095,-0.7095,-0.7095,-0.7095,-0.7095,-0.7095,-0.7095,-0.7095,-0.7095,-0.7095,-0.7095,-0.7095,-0.7095,-0.7183,-0.7187,-0.7139,-0.7183,-0.7272,-0.7319,-0.7496,-0.7764,-0.776,-0.8157,-0.8372,-0.8636,-0.9069,-0.941,-0.984,-1.0269,-1.0486,-1.0481,-1.0399,-0.9966,-0.9497,-0.9671,-0.971,-0.9492,-0.9971,-1.0491,-1.0764,-1.0728,-1.0378,-0.9456,-0.8764,-0.8217,-0.7716,-0.7161,-0.6945,-0.7061,-0.7022,-0.6903,-0.6865,-0.6868,-0.6945,0.7933,0.7933,0.7933,0.6888,0.5418,0.4988,0.3944,0.2407,0.1605,0.1578,0.1658,0.1237,0.1042,0.118,0.0168,-0.078,-0.1593,-0.1722,-0.1691,-0.1731,-0.1696,-0.1697,-0.1678,-0.171,-0.1637,-0.162,-0.1615,-0.185,-0.2304,-0.3456,-0.4375,-0.503,-0.6185,-0.6874,-0.7095,-0.7095,-0.7095,-0.7095,-0.7095,-0.7095,-0.7095,-0.7095,-0.7095,-0.7095,-0.7095,-0.7095,-0.7095,-0.7095,-0.7095,-0.7095,-0.7095,-0.7095,-0.7095,-0.7095,-0.7095,-0.7095,-0.7095,-0.7095,-0.7095,-0.7095,-0.7095,-0.7095,-0.7095,-0.7095,-0.7095,-0.7095,-0.7095,-0.7095,-0.7095,-0.7095,-0.7095,-0.7095,-0.7095,-0.7095,-0.7095,-0.7095,-0.7095,-0.7095,-0.7095,-0.7139,-0.7228,-0.7319,-0.7363,-0.7452,-0.7669,-0.7981,-0.8241,-0.8584,-0.9061,-0.9104,-0.9231,-0.9366,-0.9279,-0.8759,-0.85,-0.8671,-0.854,-0.8017,-0.8408,-0.9192,-0.937,-0.94,-0.8844,-0.8042,-0.7628,-0.7122,-0.6867,-0.6493,-0.6602,-0.6795,-0.6679,-0.6563,-0.6486,-0.649,-0.6679,0.7933,0.7933,0.7933,0.6766,0.4988,0.4926,0.376,0.2161,0.1605,0.1578,0.1717,0.1355,0.1099,0.0955,0.0168,-0.0778,-0.1693,-0.1718,-0.1689,-0.172,-0.1731,-0.169,-0.169,-0.1665,-0.1633,-0.162,-0.1566,-0.1848,-0.245,-0.3695,-0.4563,-0.5257,-0.6451,-0.7098,-0.7095,-0.7095,-0.7095,-0.7095,-0.7095,-0.7095,-0.7095,-0.7095,-0.7095,-0.7095,-0.7095,-0.7095,-0.7095,-0.7095,-0.7095,-0.7095,-0.7095,-0.7095,-0.7095,-0.7095,-0.7095,-0.7095,-0.7095,-0.7095,-0.7095,-0.7095,-0.7095,-0.7095,-0.7095,-0.7095,-0.7095,-0.7095,-0.7095,-0.7095,-0.7095,-0.7095,-0.7095,-0.7095,-0.7095,-0.7095,-0.7095,-0.7095,-0.7095,-0.7095,-0.7095,-0.7095,-0.7095,-0.7095,-0.7095,-0.7095,-0.7231,-0.7408,-0.754,-0.7885,-0.8273,-0.8105,-0.8105,-0.8281,-0.8321,-0.7973,-0.7797,-0.7929,-0.8017,-0.7448,-0.746,-0.8162,-0.8185,-0.822,-0.7741,-0.718,-0.6631,-0.63,-0.63,-0.63,-0.6374,-0.6451,-0.63,-0.63,-0.63,-0.63,-0.649,0.7933,0.7933,0.7933,0.6764,0.5047,0.4865,0.3821,0.2222,0.1785,0.1817,0.1775,0.1412,0.0749,0.0,-0.0279,-0.0941,-0.1796,-0.1709,-0.169,-0.1671,-0.1667,-0.1671,-0.1697,-0.1656,-0.1628,-0.1618,-0.1566,-0.1843,-0.249,-0.3684,-0.4552,-0.5235,-0.6385,-0.7058,-0.7095,-0.7095,-0.7095,-0.7095,-0.7095,-0.7095,-0.7095,-0.7095,-0.7095,-0.7095,-0.7095,-0.7095,-0.7095,-0.7095,-0.7095,-0.7095,-0.7095,-0.7095,-0.7095,-0.7095,-0.7095,-0.7095,-0.7095,-0.7095,-0.7095,-0.7095,-0.7095,-0.7095,-0.7095,-0.7095,-0.7095,-0.7095,-0.7095,-0.7095,-0.7095,-0.7095,-0.7095,-0.7095,-0.7095,-0.7095,-0.7095,-0.7095,-0.7095,-0.7095,-0.7095,-0.7095,-0.7095,-0.7095,-0.7095,-0.7095,-0.7139,-0.7231,-0.7275,-0.7448,-0.7621,-0.7577,-0.7492,-0.7448,-0.7404,-0.7272,-0.7183,-0.7228,-0.7272,-0.718,-0.7129,-0.7386,-0.7289,-0.7181,-0.6873,-0.6518,-0.6368,-0.63,-0.63,-0.63,-0.63,-0.63,-0.63,-0.63,-0.63,-0.63,-0.6412,0.7933,0.7933,0.7933,0.6766,0.5111,0.4865,0.3821,0.1975,0.1402,0.1501,0.1591,0.0814,0.0229,-0.0056,-0.0553,-0.1143,-0.1661,-0.1688,-0.173,-0.169,-0.1644,-0.166,-0.1687,-0.1664,-0.1639,-0.1623,-0.1566,-0.1737,-0.2317,-0.3471,-0.4522,-0.4968,-0.6192,-0.7095,-0.7095,-0.7095,-0.7095,-0.7095,-0.7095,-0.7095,-0.7095,-0.7095,-0.7095,-0.7095,-0.7095,-0.7095,-0.7095,-0.7095,-0.7095,-0.7095,-0.7095,-0.7095,-0.7095,-0.7095,-0.7095,-0.7095,-0.7095,-0.7095,-0.7095,-0.7095,-0.7095,-0.7095,-0.7095,-0.7095,-0.7095,-0.7095,-0.7095,-0.7095,-0.7095,-0.7095,-0.7095,-0.7095,-0.7095,-0.7095,-0.7095,-0.7095,-0.7095,-0.7095,-0.7095,-0.7095,-0.7095,-0.7095,-0.7095,-0.7095,-0.7095,-0.7095,-0.7095,-0.7095,-0.7095,-0.7095,-0.7095,-0.7095,-0.7095,-0.7095,-0.7095,-0.7095,-0.7095,-0.7071,-0.7018,-0.6966,-0.6831,-0.6702,-0.6569,-0.6474,-0.6337,-0.6303,-0.63,-0.63,-0.63,-0.63,-0.63,-0.63,-0.63,-0.63,-0.6296,0.7933,0.7933,0.7933,0.6764,0.5111,0.4865,0.376,0.2155,0.158,0.1375,0.1295,0.0579,0.0,-0.0448,-0.0881,-0.13,-0.1592,-0.1661,-0.1665,-0.1681,-0.1648,-0.1652,-0.1683,-0.1663,-0.1631,-0.1615,-0.1601,-0.1715,-0.2253,-0.32,-0.4103,-0.4705,-0.6033,-0.6741,-0.7051,-0.7095,-0.7095,-0.7095,-0.7095,-0.7095,-0.7095,-0.7095,-0.7095,-0.7095,-0.7095,-0.7095,-0.7095,-0.7095,-0.7095,-0.7095,-0.7095,-0.7095,-0.7095,-0.7095,-0.7095,-0.7095,-0.7095,-0.7095,-0.7095,-0.7095,-0.7095,-0.7095,-0.7095,-0.7095,-0.7095,-0.7095,-0.7095,-0.7095,-0.7095,-0.7095,-0.7095,-0.7095,-0.7095,-0.7095,-0.7095,-0.7095,-0.7095,-0.7095,-0.7095,-0.7095,-0.7095,-0.7095,-0.7095,-0.7095,-0.7095,-0.7095,-0.7095,-0.7095,-0.7095,-0.7095,-0.7095,-0.7095,-0.7095,-0.7095,-0.7095,-0.7095,-0.7095,-0.7051,-0.7027,-0.6905,-0.6763,-0.6637,-0.6552,-0.6422,-0.6303,-0.63,-0.63,-0.63,-0.63,-0.63,-0.63,-0.63,-0.63,-0.63,-0.6296,0.7933,0.7933,0.7933,0.6766,0.5049,0.4865,0.3752,0.2086,0.1816,0.1368,0.0938,0.0519,-0.0283,-0.0836,-0.1205,-0.1508,-0.1631,-0.165,-0.1649,-0.168,-0.1641,-0.165,-0.1672,-0.1647,-0.1615,-0.1608,-0.1588,-0.1702,-0.205,-0.2799,-0.3797,-0.4618,-0.5633,-0.6479,-0.6962,-0.7095,-0.7095,-0.7095,-0.7095,-0.7095,-0.7095,-0.7095,-0.7095,-0.7095,-0.7095,-0.7095,-0.7095,-0.7095,-0.7095,-0.7095,-0.7095,-0.7095,-0.7095,-0.7095,-0.7095,-0.7095,-0.7095,-0.7095,-0.7095,-0.7095,-0.7095,-0.7095,-0.7095,-0.7095,-0.7095,-0.7095,-0.7095,-0.7095,-0.7095,-0.7095,-0.7095,-0.7095,-0.7095,-0.7095,-0.7095,-0.7095,-0.7095,-0.7095,-0.7095,-0.7095,-0.7095,-0.7095,-0.7095,-0.7095,-0.7095,-0.7095,-0.7095,-0.7095,-0.7095,-0.7095,-0.7095,-0.7095,-0.7095,-0.7095,-0.7095,-0.7095,-0.7095,-0.7034,-0.7007,-0.6851,-0.6698,-0.6536,-0.645,-0.6378,-0.63,-0.63,-0.63,-0.63,-0.63,-0.63,-0.63,-0.63,-0.63,-0.63,-0.6335,0.7933,0.7933,0.7933,0.6766,0.5049,0.4926,0.3734,0.1996,0.1432,0.1055,0.0808,-0.017,-0.0614,-0.0988,-0.1402,-0.1631,-0.1594,-0.1624,-0.1637,-0.1663,-0.1635,-0.1641,-0.171,-0.1637,-0.1606,-0.1584,-0.1569,-0.16,-0.1854,-0.2704,-0.3557,-0.4397,-0.5453,-0.6346,-0.689,-0.7098,-0.7105,-0.7119,-0.7109,-0.7098,-0.7119,-0.7102,-0.7095,-0.7095,-0.7095,-0.7095,-0.7095,-0.7095,-0.7095,-0.7095,-0.7095,-0.7095,-0.7095,-0.7095,-0.7095,-0.7095,-0.7095,-0.7095,-0.7095,-0.7095,-0.7095,-0.7095,-0.7095,-0.7095,-0.7095,-0.7095,-0.7095,-0.7095,-0.7095,-0.7095,-0.7095,-0.7095,-0.7095,-0.7095,-0.7095,-0.7095,-0.7095,-0.7095,-0.7095,-0.7095,-0.7095,-0.7095,-0.7095,-0.7095,-0.7095,-0.7095,-0.7095,-0.7095,-0.7095,-0.7095,-0.7095,-0.7095,-0.7095,-0.7095,-0.7095,-0.7095,-0.7088,-0.7018,-0.6966,-0.6803,-0.6634,-0.6434,-0.6347,-0.6313,-0.63,-0.63,-0.63,-0.63,-0.63,-0.63,-0.63,-0.63,-0.63,-0.63,-0.63,0.7933,0.7933,0.7933,0.6766,0.5109,0.4926,0.3726,0.205,0.1602,0.1226,0.0747,0.0,-0.0611,-0.0983,-0.1449,-0.1672,-0.1578,-0.1566,-0.1635,-0.1702,-0.1635,-0.1633,-0.1707,-0.163,-0.1601,-0.1575,-0.1556,-0.1533,-0.1549,-0.2159,-0.3137,-0.4178,-0.5041,-0.5927,-0.6818,-0.7091,-0.7152,-0.7214,-0.7142,-0.718,-0.7234,-0.7146,-0.7102,-0.7095,-0.7095,-0.7095,-0.7095,-0.7095,-0.7095,-0.7095,-0.7095,-0.7095,-0.7095,-0.7095,-0.7095,-0.7095,-0.7095,-0.7095,-0.7095,-0.7095,-0.7095,-0.7095,-0.7095,-0.7095,-0.7095,-0.7095,-0.7095,-0.7095,-0.7095,-0.7095,-0.7095,-0.7095,-0.7095,-0.7095,-0.7095,-0.7095,-0.7095,-0.7095,-0.7095,-0.7095,-0.7095,-0.7095,-0.7095,-0.7095,-0.7095,-0.7095,-0.7095,-0.7095,-0.7095,-0.7095,-0.7095,-0.7095,-0.7095,-0.7095,-0.7095,-0.7095,-0.7071,-0.7001,-0.6922,-0.6756,-0.6603,-0.6417,-0.6358,-0.6303,-0.63,-0.63,-0.63,-0.63,-0.63,-0.63,-0.63,-0.63,-0.63,-0.63,-0.63,0.7933,0.7933,0.7933,0.6764,0.5107,0.4908,0.3768,0.2159,0.1711,0.1335,0.0857,0.0225,-0.0276,-0.0705,-0.1115,-0.1399,-0.1415,-0.1465,-0.1529,-0.1538,-0.1578,-0.1631,-0.1638,-0.1628,-0.1597,-0.1557,-0.1541,-0.151,-0.153,-0.1817,-0.2632,-0.3673,-0.4405,-0.5355,-0.6535,-0.6964,-0.7155,-0.7241,-0.7221,-0.7217,-0.7265,-0.7241,-0.7122,-0.7098,-0.7095,-0.7095,-0.7095,-0.7095,-0.7095,-0.7095,-0.7095,-0.7095,-0.7095,-0.7095,-0.7095,-0.7095,-0.7095,-0.7095,-0.7095,-0.7095,-0.7095,-0.7095,-0.7095,-0.7095,-0.7095,-0.7095,-0.7095,-0.7095,-0.7095,-0.7095,-0.7095,-0.7095,-0.7095,-0.7095,-0.7095,-0.7095,-0.7095,-0.7095,-0.7095,-0.7095,-0.7095,-0.7095,-0.7095,-0.7095,-0.7095,-0.7095,-0.7095,-0.7095,-0.7095,-0.7095,-0.7095,-0.7095,-0.7095,-0.7095,-0.7095,-0.7095,-0.7055,-0.698,-0.6875,-0.6702,-0.6566,-0.6424,-0.6381,-0.63,-0.63,-0.63,-0.63,-0.63,-0.63,-0.63,-0.63,-0.63,-0.63,-0.63,-0.63,0.7933,0.7933,0.7933,0.6764,0.5035,0.4915,0.3771,0.1948,0.1337,0.0971,0.0957,0.0332,0.0,-0.0266,-0.0465,-0.0711,-0.0961,-0.1162,-0.1266,-0.127,-0.1418,-0.1518,-0.1573,-0.162,-0.1484,-0.1449,-0.1482,-0.1509,-0.1523,-0.1673,-0.2294,-0.3289,-0.4183,-0.5208,-0.6217,-0.6694,-0.7105,-0.7132,-0.7132,-0.7132,-0.7159,-0.7285,-0.7255,-0.7142,-0.7098,-0.7095,-0.7095,-0.7095,-0.7095,-0.7095,-0.7095,-0.7095,-0.7095,-0.7095,-0.7095,-0.7095,-0.7095,-0.7095,-0.7095,-0.7095,-0.7095,-0.7095,-0.7095,-0.7095,-0.7095,-0.7095,-0.7095,-0.7095,-0.7095,-0.7095,-0.7095,-0.7095,-0.7095,-0.7095,-0.7095,-0.7095,-0.7095,-0.7095,-0.7095,-0.7095,-0.7095,-0.7095,-0.7095,-0.7095,-0.7095,-0.7095,-0.7095,-0.7095,-0.7095,-0.7095,-0.7095,-0.7095,-0.7095,-0.7095,-0.7095,-0.7095,-0.7034,-0.696,-0.6841,-0.6661,-0.6569,-0.645,-0.6361,-0.63,-0.63,-0.63,-0.63,-0.63,-0.63,-0.63,-0.63,-0.63,-0.63,-0.63,-0.63,0.7933,0.7933,0.7933,0.6731,0.504,0.4886,0.3739,0.2096,0.1558,0.1424,0.1289,0.0771,0.0269,-0.0105,-0.0357,-0.0556,-0.0758,-0.0909,-0.096,-0.101,-0.1111,-0.1162,-0.1162,-0.1159,-0.1139,-0.1251,-0.1283,-0.1355,-0.142,-0.1583,-0.2026,-0.2862,-0.3609,-0.4591,-0.5705,-0.632,-0.6918,-0.731,-0.7469,-0.7434,-0.7333,-0.7329,-0.7343,-0.7268,-0.7187,-0.7102,-0.7095,-0.7095,-0.7095,-0.7095,-0.7095,-0.7095,-0.7095,-0.7095,-0.7095,-0.7095,-0.7095,-0.7095,-0.7095,-0.7095,-0.7095,-0.7095,-0.7095,-0.7095,-0.7095,-0.7095,-0.7095,-0.7095,-0.7095,-0.7095,-0.7095,-0.7095,-0.7095,-0.7095,-0.7095,-0.7095,-0.7095,-0.7095,-0.7095,-0.7095,-0.7095,-0.7095,-0.7095,-0.7095,-0.7095,-0.7095,-0.7095,-0.7095,-0.7095,-0.7095,-0.7095,-0.7095,-0.7095,-0.7095,-0.7095,-0.7092,-0.7011,-0.6923,-0.6782,-0.6654,-0.6545,-0.6429,-0.634,-0.6257,-0.6257,-0.6257,-0.6257,-0.63,-0.63,-0.63,-0.63,-0.63,-0.63,-0.63,-0.63,0.7809,0.7788,0.7815,0.6791,0.5201,0.4945,0.3875,0.2245,0.1888,0.1816,0.1677,0.126,0.0639,0.0052,-0.0102,-0.0202,-0.0606,-0.0657,-0.0707,-0.0707,-0.0758,-0.0808,-0.0859,-0.0857,-0.0891,-0.1002,-0.101,-0.1131,-0.1239,-0.1404,-0.173,-0.2477,-0.3067,-0.3908,-0.5011,-0.5884,-0.6617,-0.7526,-0.7377,-0.7355,-0.7372,-0.7194,-0.727,-0.7245,-0.7238,-0.7051,-0.6877,-0.7051,-0.7095,-0.6833,-0.7051,-0.7095,-0.7095,-0.7095,-0.7095,-0.7095,-0.7095,-0.7095,-0.7095,-0.7095,-0.7095,-0.7095,-0.7095,-0.7095,-0.7095,-0.7095,-0.7095,-0.7095,-0.7095,-0.7095,-0.7095,-0.7095,-0.7095,-0.7095,-0.7095,-0.7095,-0.7095,-0.7095,-0.7095,-0.7095,-0.7095,-0.7095,-0.7095,-0.7095,-0.7095,-0.7095,-0.7095,-0.7095,-0.7095,-0.7095,-0.7095,-0.7051,-0.7051,-0.7051,-0.7051,-0.7027,-0.6991,-0.6833,-0.6689,-0.6569,-0.6441,-0.6349,-0.632,-0.6257,-0.618,-0.5983,-0.5828,-0.6064,-0.63,-0.63,-0.63,-0.63,-0.63,-0.63,-0.63,0.7646,0.7554,0.7665,0.704,0.5816,0.5042,0.4088,0.292,0.2149,0.1797,0.1779,0.1626,0.1207,0.0766,0.0507,0.0303,-0.0101,-0.0303,-0.0404,-0.0505,-0.0657,-0.0707,-0.0707,-0.0703,-0.0744,-0.0817,-0.0819,-0.0903,-0.1069,-0.1096,-0.1409,-0.1891,-0.2606,-0.3277,-0.4205,-0.5365,-0.6367,-0.7025,-0.6882,-0.6884,-0.696,-0.6886,-0.6706,-0.7142,-0.7103,-0.6833,-0.626,-0.67,-0.6697,-0.6257,-0.6656,-0.6786,-0.6741,-0.6741,-0.6738,-0.6741,-0.6877,-0.6918,-0.6918,-0.7051,-0.7095,-0.7095,-0.7095,-0.7095,-0.7095,-0.7095,-0.7095,-0.7095,-0.7095,-0.7095,-0.7095,-0.7095,-0.7095,-0.7095,-0.7095,-0.7095,-0.7095,-0.7095,-0.7095,-0.7095,-0.7007,-0.6877,-0.6877,-0.6789,-0.7051,-0.7051,-0.7095,-0.7095,-0.7095,-0.7095,-0.7054,-0.701,-0.701,-0.701,-0.6962,-0.6819,-0.6418,-0.6336,-0.628,-0.6276,-0.6218,-0.62,-0.6064,-0.5948,-0.575,-0.5553,-0.5476,-0.575,-0.5986,-0.6219,-0.63,-0.63,-0.63,-0.63,-0.63,0.746,0.741,0.7459,0.6925,0.5956,0.5064,0.4111,0.3113,0.2193,0.1772,0.174,0.1659,0.1367,0.0927,0.0761,0.0509,0.0051,-0.0101,0.0,0.0,-0.0252,0.0,0.0,0.0,-0.0396,-0.0529,-0.0576,-0.0661,-0.0819,-0.0867,-0.0906,-0.1392,-0.2154,-0.2897,-0.3774,-0.4854,-0.5953,-0.6357,-0.6158,-0.6061,-0.5986,-0.5978,-0.5863,-0.6051,-0.5936,-0.5733,-0.5544,-0.6124,-0.5944,-0.5811,-0.6169,-0.6169,-0.6033,-0.5941,-0.5941,-0.5985,-0.6254,-0.6479,-0.6656,-0.6833,-0.7095,-0.7095,-0.7095,-0.7095,-0.7095,-0.7095,-0.7095,-0.7095,-0.7095,-0.7095,-0.7095,-0.7095,-0.7095,-0.7095,-0.7095,-0.7095,-0.7007,-0.6918,-0.683,-0.6697,-0.6567,-0.6393,-0.6438,-0.6438,-0.6745,-0.701,-0.7051,-0.7095,-0.7007,-0.683,-0.6653,-0.652,-0.6476,-0.6254,-0.6166,-0.5949,-0.5723,-0.5768,-0.5844,-0.5777,-0.5755,-0.5685,-0.5556,-0.544,-0.5359,-0.5201,-0.5204,-0.5479,-0.5712,-0.5944,-0.6141,-0.63,-0.63,-0.63,-0.63,0.7391,0.7285,0.7279,0.6771,0.5862,0.5013,0.4076,0.3086,0.2187,0.1767,0.1718,0.1716,0.1382,0.0993,0.0823,0.0512,0.0,0.0,0.0,0.0,0.0,0.0,0.0,0.0,-0.0149,0.0,0.0,-0.0378,-0.0592,-0.0589,-0.0726,-0.0997,-0.144,-0.2217,-0.3009,-0.4254,-0.5352,-0.5722,-0.5417,-0.5308,-0.5302,-0.5111,-0.5176,-0.5279,-0.5251,-0.4931,-0.4964,-0.5319,-0.5322,-0.5144,-0.5233,-0.5413,-0.5233,-0.501,-0.501,-0.5188,-0.5411,-0.5813,-0.6216,-0.67,-0.7095,-0.7095,-0.7095,-0.7095,-0.7095,-0.7095,-0.7095,-0.7095,-0.7095,-0.7095,-0.7095,-0.7095,-0.7095,-0.7095,-0.7095,-0.7051,-0.6697,-0.652,-0.6387,-0.621,-0.5988,-0.5633,-0.5725,-0.5811,-0.6299,-0.6564,-0.6656,-0.6656,-0.6567,-0.6346,-0.6033,-0.5855,-0.5766,-0.5455,-0.5139,-0.5182,-0.5215,-0.5191,-0.5241,-0.5159,-0.5101,-0.511,-0.5243,-0.5321,-0.5204,-0.489,-0.5007,-0.5395,-0.5553,-0.5712,-0.5983,-0.63,-0.63,-0.63,-0.63,0.7271,0.7218,0.7221,0.6664,0.5779,0.4875,0.398,0.3193,0.2186,0.1776,0.1746,0.1744,0.1459,0.0956,0.0833,0.0518,0.0,0.0,0.0,0.0,0.0,0.0,0.0,0.0,0.0,0.0,0.0,-0.0189,-0.0368,-0.0366,-0.0505,-0.0731,-0.1039,-0.1619,-0.2022,-0.3275,-0.4389,-0.5045,-0.4512,-0.4703,-0.4895,-0.4432,-0.4431,-0.4616,-0.4478,-0.4074,-0.3892,-0.4338,-0.434,-0.4072,-0.4518,-0.4741,-0.4699,-0.4654,-0.4699,-0.4786,-0.4919,-0.5366,-0.6038,-0.67,-0.6874,-0.7007,-0.7007,-0.6962,-0.7051,-0.7095,-0.7095,-0.7095,-0.7095,-0.7051,-0.7051,-0.7007,-0.6962,-0.6694,-0.6605,-0.6473,-0.6027,-0.5716,-0.5492,-0.527,-0.5003,-0.4739,-0.4875,-0.5142,-0.5716,-0.6074,-0.6213,-0.6171,-0.6038,-0.5766,-0.5408,-0.5008,-0.4872,-0.4537,-0.4343,-0.4585,-0.4673,-0.4659,-0.4676,-0.4721,-0.4737,-0.4826,-0.4971,-0.5165,-0.5007,-0.4696,-0.4965,-0.5315,-0.55,-0.5687,-0.6018,-0.63,-0.63,-0.618,-0.6022,0.7248,0.721,0.721,0.6654,0.5766,0.4871,0.4311,0.381,0.2575,0.1667,0.1535,0.1695,0.13,0.0853,0.0734,0.0,0.0,0.0,0.0,0.0,0.0,0.0,0.0,0.0,0.0,0.0,0.0,0.0,-0.0136,0.0,0.0,-0.0317,-0.0768,-0.1628,-0.2541,-0.3354,-0.3688,-0.428,-0.3919,-0.3596,-0.3824,-0.3309,-0.309,-0.3414,-0.3016,-0.269,-0.2463,-0.3178,-0.3224,-0.3001,-0.358,-0.3805,-0.3764,-0.3721,-0.3676,-0.3808,-0.3941,-0.4607,-0.5053,-0.5494,-0.5891,-0.6381,-0.6561,-0.6517,-0.6962,-0.7095,-0.7095,-0.6962,-0.6782,-0.6602,-0.634,-0.6163,-0.5941,-0.527,-0.5045,-0.5045,-0.4781,-0.4601,-0.4376,-0.4154,-0.3844,-0.3623,-0.358,-0.3758,-0.4336,-0.4781,-0.4872,-0.5277,-0.5233,-0.5053,-0.4739,-0.4204,-0.3887,-0.3592,-0.347,-0.3748,-0.372,-0.3517,-0.3966,-0.4506,-0.4545,-0.4384,-0.4735,-0.489,-0.4735,-0.4577,-0.4822,-0.5109,-0.5464,-0.5777,-0.5797,-0.5624,-0.533,-0.5303,-0.5356,0.721,0.721,0.721,0.6687,0.572,0.4829,0.4163,0.3444,0.2279,0.1606,0.1379,0.1536,0.1197,0.0643,0.0578,0.0519,0.0,0.0,0.0,0.0,0.0,0.0,0.0,0.0,0.0,0.0,0.0,0.0,0.0,0.0,0.0,0.0,-0.0494,-0.1217,-0.2037,-0.2349,-0.2597,-0.2934,-0.266,-0.254,-0.2551,-0.2298,-0.204,-0.2013,-0.1786,-0.148,-0.1569,-0.1793,-0.2152,-0.2286,-0.2555,-0.2913,-0.2873,-0.2875,-0.2875,-0.3096,-0.336,-0.3892,-0.4158,-0.3935,-0.4465,-0.544,-0.5403,-0.5492,-0.58,-0.562,-0.5664,-0.5708,-0.5977,-0.5622,-0.5134,-0.5003,-0.4734,-0.402,-0.3976,-0.3976,-0.3621,-0.3441,-0.3129,-0.2906,-0.2684,-0.2418,-0.2374,-0.2419,-0.2731,-0.3133,-0.3491,-0.3937,-0.434,-0.4071,-0.389,-0.3487,-0.3112,-0.2948,-0.2814,-0.2877,-0.2741,-0.2446,-0.2999,-0.3763,-0.3602,-0.3368,-0.3992,-0.4499,-0.4144,-0.4012,-0.4466,-0.4825,-0.4795,-0.4887,-0.502,-0.4755,-0.4397,-0.4493,-0.4735,0.721,0.721,0.7207,0.6641,0.5741,0.4695,0.3384,0.1915,0.1808,0.1602,0.1285,0.1319,0.1034,0.0487,0.0421,0.0311,0.0,0.0,0.0,0.0,0.0,0.0,0.0,0.0,0.0,0.0,0.0,0.0,0.0,0.0,0.0,0.0,0.0,-0.0765,-0.1034,-0.1263,-0.1553,-0.1813,-0.1933,-0.1857,-0.1866,-0.1624,-0.1508,-0.1391,-0.1274,-0.1169,-0.1256,-0.139,-0.1749,-0.1974,-0.2243,-0.2513,-0.2739,-0.2875,-0.2875,-0.2872,-0.3001,-0.3042,-0.3042,-0.2686,-0.2773,-0.3527,-0.3438,-0.3481,-0.3881,-0.4283,-0.4372,-0.4326,-0.4372,-0.4016,-0.3616,-0.3616,-0.3527,-0.3304,-0.3215,-0.2949,-0.2506,-0.2193,-0.188,-0.1613,-0.1389,-0.1256,-0.1435,-0.148,-0.1659,-0.1837,-0.2239,-0.2552,-0.2865,-0.2732,-0.264,-0.2726,-0.2437,-0.2442,-0.2309,-0.2172,-0.2129,-0.1932,-0.2109,-0.2663,-0.2469,-0.2624,-0.3287,-0.3634,-0.3357,-0.3413,-0.3861,-0.3878,-0.3673,-0.3806,-0.3944,-0.392,-0.3598,-0.4007,-0.4201,0.721,0.7202,0.7122,0.6577,0.5613,0.4093,0.2753,0.1859,0.177,0.15,0.1046,0.148,0.1133,0.0474,0.0626,0.0515,0.0306,0.0,0.0,0.0,0.0,0.0,0.0,0.0,0.0,0.0,0.0,0.0,0.0,0.0,0.0,0.0,0.0,0.0,0.0,0.0,-0.0816,-0.1192,-0.1348,-0.1362,-0.1322,-0.1127,-0.1022,-0.092,-0.068,-0.0629,-0.0718,-0.0852,-0.1211,-0.175,-0.2064,-0.2424,-0.283,-0.2604,-0.2289,-0.1885,-0.1883,-0.1881,-0.1837,-0.1524,-0.1389,-0.1567,-0.1433,-0.228,-0.2903,-0.3393,-0.3304,-0.3126,-0.3037,-0.2815,-0.2549,-0.2415,-0.2236,-0.2013,-0.1923,-0.1746,-0.1389,-0.1255,-0.0986,-0.0896,-0.0628,-0.0628,-0.0718,-0.0763,-0.0942,-0.0897,-0.1031,-0.1389,-0.1613,-0.1569,-0.1739,-0.1914,-0.18,-0.1768,-0.1608,-0.1449,-0.146,-0.1512,-0.1695,-0.1882,-0.2117,-0.2388,-0.2776,-0.2801,-0.2551,-0.2797,-0.3258,-0.3083,-0.2679,-0.2602,-0.2707,-0.2785,-0.2935,-0.3254,-0.3332,0.721,0.7193,0.7087,0.6283,0.5022,0.3597,0.2493,0.1826,0.1746,0.142,0.1029,0.1396,0.1165,0.0521,0.0567,0.0562,0.0354,0.0,0.0,0.0,0.0,0.0,0.0,0.0,0.0,0.0,0.0,0.0,0.0,0.0,0.0,0.0,0.0,0.0,0.0,0.0,0.0,-0.0634,-0.0823,0.0,0.0,0.0,0.0,0.0,0.0,-0.018,-0.0224,-0.0404,-0.0763,-0.1256,-0.157,-0.184,-0.22,-0.1974,-0.184,-0.1436,-0.1256,-0.1211,-0.1121,-0.0763,-0.0538,0.0,0.0,-0.0807,-0.1389,-0.1836,-0.1879,-0.1835,-0.1924,-0.1879,-0.1568,-0.121,-0.0852,-0.0538,-0.0494,-0.0494,-0.0404,-0.0359,-0.0269,-0.0269,-0.0224,-0.018,-0.0224,0.0,-0.0269,-0.0359,-0.0449,-0.0583,-0.0852,-0.0987,-0.1244,-0.1498,-0.13,-0.1106,-0.096,-0.0942,-0.1044,-0.1108,-0.1143,-0.1372,-0.1725,-0.1798,-0.187,-0.189,-0.183,-0.1993,-0.2104,-0.1983,-0.1727,-0.1691,-0.1724,-0.1844,-0.2016,-0.2159,-0.2119,0.7204,0.7124,0.6896,0.5704,0.4204,0.3218,0.234,0.1769,0.1694,0.1436,0.1061,0.1257,0.1092,0.067,0.0612,0.0558,0.0404,0.0,0.0,0.0,0.0,0.0,0.0,0.0,0.0,0.0,0.0,0.0,0.0,0.0,0.0,0.0,0.0,0.0,0.0,0.0,0.0,0.0,0.0,0.0,0.0,0.0,0.0,0.0,0.0,-0.0045,-0.0045,-0.0135,-0.0269,-0.0583,-0.0897,-0.1122,-0.1256,-0.1391,-0.1346,-0.1122,-0.0808,-0.0673,-0.0583,-0.0314,0.0,0.0,0.0,0.0,0.0,0.0,0.0,0.0,0.0,0.0,0.0,0.0,0.0,0.0,0.0,0.0,0.0,0.0,0.0,0.0,0.0,0.0,0.0,0.0,0.0,0.0,0.0,0.0,0.0,0.0,0.0,0.0,0.0,0.0,-0.0741,-0.0727,-0.0755,-0.0786,0.0,-0.0707,-0.0942,-0.0937,-0.0854,-0.0917,-0.1013,-0.0731,-0.068,0.0,0.0,-0.0959,-0.0993,-0.1028,0.0,0.0,-0.1287,0.7105,0.6896,0.5468,0.4533,0.3987,0.2593,0.1921,0.1714,0.1721,0.1515,0.1305,0.1404,0.1391,0.0967,0.0761,0.0707,0.0606,0.0,0.0,0.0,0.0,0.0,0.0,0.0,0.0,0.0,0.0,0.0,0.0,0.0,0.0,0.0,0.0,0.0,0.0,0.0,0.0,0.0,0.0,0.0,0.0,0.0,0.0,0.0,0.0,0.0,-0.0225,-0.0449,-0.0673,-0.0942,-0.1166,-0.1122,-0.0897,-0.0897,-0.0673,0.0,0.0,0.0,0.0,0.0,0.0,0.0,0.0,0.0,0.0,0.0,0.0,0.0,0.0,0.0,0.0,0.0,0.0,0.0,0.0,0.0,0.0,0.0,0.0,0.0,0.0,0.0,0.0,0.0,0.0,0.0,0.0,0.0,0.0,0.0,0.0,0.0,0.0,0.0,0.0,0.0,0.0,0.0,0.0,0.0,0.0,0.0,0.0,0.0,-0.0184,0.0,0.0,0.0,0.0,0.0,0.0,0.0,0.0,0.0,0.0,0.6961,0.6776,0.5758,0.4789,0.3992,0.3073,0.2358,0.1745,0.1642,0.1539,0.1437,0.1538,0.1479,0.1263,0.1061,0.0859,0.0758,0.0404,0.0,0.0,0.0,0.0,0.0,0.0,0.0,0.0,0.0,0.0,0.0,0.0,0.0,0.0,0.0,0.0,0.0,0.0,0.0,0.0,0.0,0.0,0.0,0.0,0.0,0.0,0.0,0.0,-0.018,-0.0359,-0.0449,-0.0584,-0.0628,-0.0628,-0.0449,-0.0404,-0.0269,0.0,0.0,0.0,0.0,0.0,0.0,0.0,0.0,0.0,0.0,0.0,0.0,0.0,0.0,0.0,0.0,0.0,0.0,0.0,0.0,0.0,0.0,0.0,0.0,0.0,0.0,0.0,0.0,0.0,0.0,0.0,0.0,0.0,0.0,0.0,0.0,0.0,0.0,0.0,0.0,0.0,0.0,0.0,0.0,0.0,0.0,0.0,0.0,0.0,0.0,0.0,0.0,0.0,0.0,0.0,0.0,0.0,0.0,0.0,0.0,0.6798,0.676,0.6489,0.5468,0.4088,0.3833,0.2928,0.1769,0.1719,0.1719,0.167,0.1721,0.1566,0.1313,0.1162,0.101,0.0758,0.0455,0.0252,0.0,0.0,0.0,0.0,0.0,0.0,0.0,0.0,0.0,0.0,0.0,0.0,0.0,0.0,0.0,0.0,0.0,0.0,0.0,0.0,0.0,0.0,0.0,0.0,0.0,0.0,0.0,0.0,0.0,0.0,0.0,0.0,0.0,0.0,0.0,0.0,0.0,0.0,0.0,0.0,0.0,0.0,0.0,0.0,0.0,0.0,0.0,0.0,0.0,0.0,0.0,0.0,0.0,0.0,0.0,0.0,0.0,0.0,0.0,0.0,0.0,0.0,0.0,0.0,0.0,0.0,0.0,0.0,0.0,0.0,0.0,0.0,0.0,0.0,0.0,0.0,0.0,0.0,0.0,0.0,0.0,0.0,0.0,0.0,0.0,0.0,0.0,0.0,0.0,0.0,0.0,0.0,0.0,0.0,0.0,0.0,0.6744,0.6594,0.5817,0.4903,0.3984,0.3328,0.2473,0.1819,0.2272,0.2221,0.1969,0.2272,0.2221,0.1516,0.1313,0.1061,0.0808,0.0556,0.0252,0.0,0.0,0.0,0.0,0.0,0.0,0.0,0.0,0.0,0.0,0.0,0.0,0.0,0.0,0.0,0.0,0.0,0.0,0.0,0.0,0.0,0.0,0.0,0.0,0.0,0.0,0.0,0.0,0.0,0.0,0.0,0.0,0.0,0.0,0.0,0.0,0.0,0.0,0.0,0.0,0.0,0.0,0.0,0.0,0.0,0.0,0.0,0.0,0.0,0.0,0.0,0.0,0.0,0.0,0.0,0.0,0.0,0.0,0.0,0.0,0.0,0.0,0.0,0.0,0.0,0.0,0.0,0.0,0.0,0.0,0.0,0.0,0.0,0.0,0.0,0.0,0.0,0.0,0.0,0.0,0.0,0.0,0.0,0.0,0.0,0.0,0.0,0.0,0.0,0.0,0.0,0.0,0.0,0.0,0.0,0.0]}]]